Wetterdaten: Sonntag, 29.09.2019
Datum Zeit Temp. A. Feuchte A. Luftdruck Regen Wind Richtung Richtung Sonnenschein ET UV Solar Taupunkt Windchill Windböen
29.09.2019 00:00 10,3 °C 93 % 1017,1 hPa 0,0 mm 0,0 km/h (0 Bft) O-SO 121 ° 0 min 0,000 mm 0,0 UV-I 0 W/m² 9,2 °C 10,3 °C 0,0 km/h (0 Bft)
29.09.2019 00:01 10,3 °C 93 % 1017,1 hPa 0,0 mm 5,3 km/h (1 Bft) S 191 ° 0 min 0,000 mm 0,0 UV-I 0 W/m² 9,2 °C 10,3 °C 8,0 km/h (2 Bft)
29.09.2019 00:02 10,4 °C 93 % 1017,0 hPa 0,0 mm 2,6 km/h (1 Bft) S-SW 192 ° 0 min 0,000 mm 0,0 UV-I 0 W/m² 9,3 °C 10,4 °C 4,8 km/h (1 Bft)
29.09.2019 00:03 10,4 °C 93 % 1017,1 hPa 0,0 mm 3,4 km/h (1 Bft) S-SW 192 ° 0 min 0,000 mm 0,0 UV-I 0 W/m² 9,3 °C 10,4 °C 4,8 km/h (1 Bft)
29.09.2019 00:04 10,5 °C 93 % 1017,0 hPa 0,0 mm 5,1 km/h (1 Bft) S 169 ° 0 min 0,000 mm 0,0 UV-I 0 W/m² 9,4 °C 10,5 °C 8,0 km/h (2 Bft)
29.09.2019 00:05 10,6 °C 92 % 1017,0 hPa 0,0 mm 2,6 km/h (1 Bft) S-SW 209 ° 0 min 0,000 mm 0,0 UV-I 0 W/m² 9,4 °C 10,6 °C 4,8 km/h (1 Bft)
29.09.2019 00:06 10,6 °C 93 % 1017,0 hPa 0,0 mm 0,5 km/h (0 Bft) S-SW 209 ° 0 min 0,000 mm 0,0 UV-I 0 W/m² 9,5 °C 10,6 °C 1,6 km/h (1 Bft)
29.09.2019 00:07 10,7 °C 92 % 1017,0 hPa 0,0 mm 2,4 km/h (1 Bft) S-SW 209 ° 0 min 0,000 mm 0,0 UV-I 0 W/m² 9,5 °C 10,7 °C 4,8 km/h (1 Bft)
29.09.2019 00:08 10,8 °C 92 % 1017,0 hPa 0,0 mm 2,1 km/h (1 Bft) S-SW 209 ° 0 min 0,000 mm 0,0 UV-I 0 W/m² 9,6 °C 10,8 °C 4,8 km/h (1 Bft)
29.09.2019 00:09 10,8 °C 92 % 1017,0 hPa 0,0 mm 2,9 km/h (1 Bft) S-SW 196 ° 0 min 0,000 mm 0,0 UV-I 0 W/m² 9,6 °C 10,8 °C 8,0 km/h (2 Bft)
29.09.2019 00:10 10,8 °C 92 % 1017,0 hPa 0,0 mm 1,9 km/h (1 Bft) S-SW 195 ° 0 min 0,000 mm 0,0 UV-I 0 W/m² 9,6 °C 10,8 °C 3,2 km/h (1 Bft)
29.09.2019 00:11 10,9 °C 92 % 1017,0 hPa 0,0 mm 3,1 km/h (1 Bft) S-SW 196 ° 0 min 0,000 mm 0,0 UV-I 0 W/m² 9,7 °C 10,9 °C 4,8 km/h (1 Bft)
29.09.2019 00:12 10,9 °C 91 % 1017,0 hPa 0,0 mm 3,1 km/h (1 Bft) S-SW 196 ° 0 min 0,000 mm 0,0 UV-I 0 W/m² 9,5 °C 10,9 °C 6,4 km/h (2 Bft)
29.09.2019 00:13 10,9 °C 91 % 1016,9 hPa 0,0 mm 1,3 km/h (1 Bft) S-SW 208 ° 0 min 0,000 mm 0,0 UV-I 0 W/m² 9,5 °C 10,9 °C 4,8 km/h (1 Bft)
29.09.2019 00:14 11,0 °C 91 % 1016,9 hPa 0,0 mm 1,2 km/h (1 Bft) S-SW 208 ° 0 min 0,000 mm 0,0 UV-I 0 W/m² 9,6 °C 11,0 °C 3,2 km/h (1 Bft)
29.09.2019 00:15 11,0 °C 91 % 1016,9 hPa 0,0 mm 0,0 km/h (0 Bft) S-SW 208 ° 0 min 0,000 mm 0,0 UV-I 0 W/m² 9,6 °C 11,0 °C 0,0 km/h (0 Bft)
29.09.2019 00:16 11,0 °C 91 % 1016,8 hPa 0,0 mm 1,7 km/h (1 Bft) S-SW 208 ° 0 min 0,000 mm 0,0 UV-I 0 W/m² 9,6 °C 11,0 °C 3,2 km/h (1 Bft)
29.09.2019 00:17 11,0 °C 91 % 1016,8 hPa 0,0 mm 0,9 km/h (0 Bft) S-SW 208 ° 0 min 0,000 mm 0,0 UV-I 0 W/m² 9,6 °C 11,0 °C 3,2 km/h (1 Bft)
29.09.2019 00:18 11,0 °C 91 % 1016,8 hPa 0,0 mm 1,2 km/h (1 Bft) S-SW 208 ° 0 min 0,000 mm 0,0 UV-I 0 W/m² 9,6 °C 11,0 °C 3,2 km/h (1 Bft)
29.09.2019 00:19 10,9 °C 91 % 1016,9 hPa 0,0 mm 1,5 km/h (1 Bft) S-SW 208 ° 0 min 0,000 mm 0,0 UV-I 0 W/m² 9,5 °C 10,9 °C 3,2 km/h (1 Bft)
29.09.2019 00:20 10,9 °C 91 % 1016,9 hPa 0,0 mm 1,7 km/h (1 Bft) S-SW 207 ° 0 min 0,000 mm 0,0 UV-I 0 W/m² 9,5 °C 10,9 °C 4,8 km/h (1 Bft)
29.09.2019 00:21 10,9 °C 91 % 1016,8 hPa 0,0 mm 2,5 km/h (1 Bft) S-SW 207 ° 0 min 0,000 mm 0,0 UV-I 0 W/m² 9,5 °C 10,9 °C 3,2 km/h (1 Bft)
29.09.2019 00:22 10,8 °C 91 % 1016,9 hPa 0,2 mm 1,0 km/h (0 Bft) S-SW 207 ° 0 min 0,000 mm 0,0 UV-I 0 W/m² 9,4 °C 10,8 °C 1,6 km/h (1 Bft)
29.09.2019 00:23 10,8 °C 91 % 1016,9 hPa 0,0 mm 1,2 km/h (1 Bft) S-SW 207 ° 0 min 0,000 mm 0,0 UV-I 0 W/m² 9,4 °C 10,8 °C 3,2 km/h (1 Bft)
29.09.2019 00:24 10,7 °C 91 % 1016,9 hPa 0,0 mm 0,1 km/h (0 Bft) S-SW 207 ° 0 min 0,000 mm 0,0 UV-I 0 W/m² 9,3 °C 10,7 °C 1,6 km/h (1 Bft)
29.09.2019 00:25 10,7 °C 91 % 1016,9 hPa 0,0 mm 0,0 km/h (0 Bft) S-SW 207 ° 0 min 0,000 mm 0,0 UV-I 0 W/m² 9,3 °C 10,7 °C 0,0 km/h (0 Bft)
29.09.2019 00:26 10,7 °C 91 % 1016,9 hPa 0,0 mm 0,0 km/h (0 Bft) S-SW 208 ° 0 min 0,000 mm 0,0 UV-I 0 W/m² 9,3 °C 10,7 °C 0,0 km/h (0 Bft)
29.09.2019 00:27 10,6 °C 91 % 1016,9 hPa 0,0 mm 0,0 km/h (0 Bft) S-SW 208 ° 0 min 0,000 mm 0,0 UV-I 0 W/m² 9,2 °C 10,6 °C 0,0 km/h (0 Bft)
29.09.2019 00:28 10,6 °C 91 % 1016,9 hPa 0,0 mm 0,0 km/h (0 Bft) S-SW 208 ° 0 min 0,000 mm 0,0 UV-I 0 W/m² 9,2 °C 10,6 °C 0,0 km/h (0 Bft)
29.09.2019 00:29 10,6 °C 91 % 1016,9 hPa 0,0 mm 0,0 km/h (0 Bft) S-SW 208 ° 0 min 0,000 mm 0,0 UV-I 0 W/m² 9,2 °C 10,6 °C 0,0 km/h (0 Bft)
29.09.2019 00:30 10,6 °C 91 % 1016,9 hPa 0,0 mm 0,0 km/h (0 Bft) S-SW 208 ° 0 min 0,000 mm 0,0 UV-I 0 W/m² 9,2 °C 10,6 °C 0,0 km/h (0 Bft)
29.09.2019 00:31 10,6 °C 91 % 1016,9 hPa 0,0 mm 0,0 km/h (0 Bft) S-SW 208 ° 0 min 0,000 mm 0,0 UV-I 0 W/m² 9,2 °C 10,6 °C 0,0 km/h (0 Bft)
29.09.2019 00:32 10,6 °C 91 % 1017,0 hPa 0,0 mm 0,0 km/h (0 Bft) S-SW 208 ° 0 min 0,000 mm 0,0 UV-I 0 W/m² 9,2 °C 10,6 °C 0,0 km/h (0 Bft)
29.09.2019 00:33 10,6 °C 91 % 1017,0 hPa 0,0 mm 0,0 km/h (0 Bft) S-SW 208 ° 0 min 0,000 mm 0,0 UV-I 0 W/m² 9,2 °C 10,6 °C 0,0 km/h (0 Bft)
29.09.2019 00:34 10,6 °C 91 % 1016,9 hPa 0,0 mm 0,0 km/h (0 Bft) S-SW 208 ° 0 min 0,000 mm 0,0 UV-I 0 W/m² 9,2 °C 10,6 °C 0,0 km/h (0 Bft)
29.09.2019 00:35 10,6 °C 91 % 1016,9 hPa 0,0 mm 0,0 km/h (0 Bft) S-SW 208 ° 0 min 0,000 mm 0,0 UV-I 0 W/m² 9,2 °C 10,6 °C 0,0 km/h (0 Bft)
29.09.2019 00:36 10,6 °C 91 % 1017,0 hPa 0,0 mm 0,0 km/h (0 Bft) S-SW 208 ° 0 min 0,000 mm 0,0 UV-I 0 W/m² 9,2 °C 10,6 °C 0,0 km/h (0 Bft)
29.09.2019 00:37 10,5 °C 91 % 1017,0 hPa 0,0 mm 0,0 km/h (0 Bft) S-SW 208 ° 0 min 0,000 mm 0,0 UV-I 0 W/m² 9,1 °C 10,5 °C 0,0 km/h (0 Bft)
29.09.2019 00:38 10,5 °C 91 % 1017,0 hPa 0,0 mm 0,0 km/h (0 Bft) S-SW 208 ° 0 min 0,000 mm 0,0 UV-I 0 W/m² 9,1 °C 10,5 °C 0,0 km/h (0 Bft)
29.09.2019 00:39 10,4 °C 91 % 1016,9 hPa 0,0 mm 0,0 km/h (0 Bft) S-SW 208 ° 0 min 0,000 mm 0,0 UV-I 0 W/m² 9,0 °C 10,4 °C 0,0 km/h (0 Bft)
29.09.2019 00:40 10,4 °C 92 % 1016,9 hPa 0,0 mm 0,0 km/h (0 Bft) S-SW 208 ° 0 min 0,000 mm 0,0 UV-I 0 W/m² 9,2 °C 10,4 °C 0,0 km/h (0 Bft)
29.09.2019 00:41 10,4 °C 92 % 1016,9 hPa 0,0 mm 0,0 km/h (0 Bft) S-SW 208 ° 0 min 0,000 mm 0,0 UV-I 0 W/m² 9,2 °C 10,4 °C 0,0 km/h (0 Bft)
29.09.2019 00:42 10,4 °C 92 % 1016,9 hPa 0,0 mm 0,0 km/h (0 Bft) S-SW 208 ° 0 min 0,000 mm 0,0 UV-I 0 W/m² 9,2 °C 10,4 °C 0,0 km/h (0 Bft)
29.09.2019 00:43 10,4 °C 92 % 1016,9 hPa 0,0 mm 2,2 km/h (1 Bft) SW 220 ° 0 min 0,000 mm 0,0 UV-I 0 W/m² 9,2 °C 10,4 °C 4,8 km/h (1 Bft)
29.09.2019 00:44 10,4 °C 92 % 1016,9 hPa 0,0 mm 0,8 km/h (0 Bft) SW 220 ° 0 min 0,000 mm 0,0 UV-I 0 W/m² 9,2 °C 10,4 °C 3,2 km/h (1 Bft)
29.09.2019 00:45 10,4 °C 92 % 1016,9 hPa 0,0 mm 0,0 km/h (0 Bft) SW 220 ° 0 min 0,000 mm 0,0 UV-I 0 W/m² 9,2 °C 10,4 °C 0,0 km/h (0 Bft)
29.09.2019 00:46 10,3 °C 92 % 1016,9 hPa 0,0 mm 0,0 km/h (0 Bft) SW 220 ° 0 min 0,000 mm 0,0 UV-I 0 W/m² 9,1 °C 10,3 °C 0,0 km/h (0 Bft)
29.09.2019 00:47 10,3 °C 92 % 1016,9 hPa 0,0 mm 0,0 km/h (0 Bft) SW 220 ° 0 min 0,000 mm 0,0 UV-I 0 W/m² 9,1 °C 10,3 °C 0,0 km/h (0 Bft)
29.09.2019 00:48 10,3 °C 92 % 1016,9 hPa 0,0 mm 0,0 km/h (0 Bft) SW 220 ° 0 min 0,000 mm 0,0 UV-I 0 W/m² 9,1 °C 10,3 °C 0,0 km/h (0 Bft)
29.09.2019 00:49 10,3 °C 92 % 1016,9 hPa 0,0 mm 0,0 km/h (0 Bft) SW 220 ° 0 min 0,000 mm 0,0 UV-I 0 W/m² 9,1 °C 10,3 °C 0,0 km/h (0 Bft)
29.09.2019 00:50 10,3 °C 92 % 1016,9 hPa 0,0 mm 0,0 km/h (0 Bft) SW 220 ° 0 min 0,000 mm 0,0 UV-I 0 W/m² 9,1 °C 10,3 °C 0,0 km/h (0 Bft)
29.09.2019 00:51 10,3 °C 92 % 1016,9 hPa 0,0 mm 0,0 km/h (0 Bft) SW 220 ° 0 min 0,000 mm 0,0 UV-I 0 W/m² 9,1 °C 10,3 °C 0,0 km/h (0 Bft)
29.09.2019 00:52 10,3 °C 92 % 1016,9 hPa 0,0 mm 0,0 km/h (0 Bft) SW 220 ° 0 min 0,000 mm 0,0 UV-I 0 W/m² 9,1 °C 10,3 °C 0,0 km/h (0 Bft)
29.09.2019 00:53 10,3 °C 92 % 1016,9 hPa 0,0 mm 0,0 km/h (0 Bft) SW 220 ° 0 min 0,000 mm 0,0 UV-I 0 W/m² 9,1 °C 10,3 °C 0,0 km/h (0 Bft)
29.09.2019 00:54 10,3 °C 92 % 1016,9 hPa 0,0 mm 0,0 km/h (0 Bft) SW 220 ° 0 min 0,000 mm 0,0 UV-I 0 W/m² 9,1 °C 10,3 °C 0,0 km/h (0 Bft)
29.09.2019 00:55 10,3 °C 92 % 1016,8 hPa 0,0 mm 0,0 km/h (0 Bft) SW 220 ° 0 min 0,000 mm 0,0 UV-I 0 W/m² 9,1 °C 10,3 °C 0,0 km/h (0 Bft)
29.09.2019 00:56 10,3 °C 92 % 1016,9 hPa 0,0 mm 0,0 km/h (0 Bft) SW 220 ° 0 min 0,000 mm 0,0 UV-I 0 W/m² 9,1 °C 10,3 °C 0,0 km/h (0 Bft)
29.09.2019 00:57 10,3 °C 92 % 1016,9 hPa 0,0 mm 0,0 km/h (0 Bft) SW 220 ° 0 min 0,000 mm 0,0 UV-I 0 W/m² 9,1 °C 10,3 °C 0,0 km/h (0 Bft)
29.09.2019 00:58 10,3 °C 92 % 1016,8 hPa 0,0 mm 0,0 km/h (0 Bft) SW 220 ° 0 min 0,000 mm 0,0 UV-I 0 W/m² 9,1 °C 10,3 °C 0,0 km/h (0 Bft)
29.09.2019 00:59 10,3 °C 92 % 1016,8 hPa 0,0 mm 0,0 km/h (0 Bft) SW 220 ° 0 min 0,000 mm 0,0 UV-I 0 W/m² 9,1 °C 10,3 °C 0,0 km/h (0 Bft)
29.09.2019 01:00 10,3 °C 92 % 1016,8 hPa 0,0 mm 0,0 km/h (0 Bft) SW 220 ° 0 min 0,000 mm 0,0 UV-I 0 W/m² 9,1 °C 10,3 °C 0,0 km/h (0 Bft)
29.09.2019 01:01 10,3 °C 92 % 1016,8 hPa 0,0 mm 0,0 km/h (0 Bft) SW 220 ° 0 min 0,000 mm 0,0 UV-I 0 W/m² 9,1 °C 10,3 °C 0,0 km/h (0 Bft)
29.09.2019 01:02 10,3 °C 92 % 1016,8 hPa 0,0 mm 0,0 km/h (0 Bft) SW 220 ° 0 min 0,000 mm 0,0 UV-I 0 W/m² 9,1 °C 10,3 °C 0,0 km/h (0 Bft)
29.09.2019 01:03 10,3 °C 92 % 1016,8 hPa 0,0 mm 0,0 km/h (0 Bft) SW 220 ° 0 min 0,000 mm 0,0 UV-I 0 W/m² 9,1 °C 10,3 °C 0,0 km/h (0 Bft)
29.09.2019 01:04 10,3 °C 92 % 1016,8 hPa 0,0 mm 0,0 km/h (0 Bft) SW 220 ° 0 min 0,000 mm 0,0 UV-I 0 W/m² 9,1 °C 10,3 °C 0,0 km/h (0 Bft)
29.09.2019 01:05 10,3 °C 92 % 1016,8 hPa 0,0 mm 0,0 km/h (0 Bft) SW 220 ° 0 min 0,000 mm 0,0 UV-I 0 W/m² 9,1 °C 10,3 °C 0,0 km/h (0 Bft)
29.09.2019 01:06 10,3 °C 92 % 1016,8 hPa 0,0 mm 0,0 km/h (0 Bft) SW 220 ° 0 min 0,000 mm 0,0 UV-I 0 W/m² 9,1 °C 10,3 °C 0,0 km/h (0 Bft)
29.09.2019 01:07 10,3 °C 92 % 1016,8 hPa 0,0 mm 0,0 km/h (0 Bft) SW 220 ° 0 min 0,000 mm 0,0 UV-I 0 W/m² 9,1 °C 10,3 °C 0,0 km/h (0 Bft)
29.09.2019 01:08 10,3 °C 92 % 1016,8 hPa 0,2 mm 0,0 km/h (0 Bft) SW 220 ° 0 min 0,000 mm 0,0 UV-I 0 W/m² 9,1 °C 10,3 °C 0,0 km/h (0 Bft)
29.09.2019 01:09 10,3 °C 92 % 1016,8 hPa 0,0 mm 0,0 km/h (0 Bft) SW 220 ° 0 min 0,000 mm 0,0 UV-I 0 W/m² 9,1 °C 10,3 °C 0,0 km/h (0 Bft)
29.09.2019 01:10 10,3 °C 92 % 1016,8 hPa 0,0 mm 0,0 km/h (0 Bft) SW 220 ° 0 min 0,000 mm 0,0 UV-I 0 W/m² 9,1 °C 10,3 °C 0,0 km/h (0 Bft)
29.09.2019 01:11 10,3 °C 92 % 1016,8 hPa 0,0 mm 0,0 km/h (0 Bft) SW 220 ° 0 min 0,000 mm 0,0 UV-I 0 W/m² 9,1 °C 10,3 °C 0,0 km/h (0 Bft)
29.09.2019 01:12 10,3 °C 92 % 1016,8 hPa 0,0 mm 0,0 km/h (0 Bft) SW 220 ° 0 min 0,000 mm 0,0 UV-I 0 W/m² 9,1 °C 10,3 °C 0,0 km/h (0 Bft)
29.09.2019 01:13 10,2 °C 92 % 1016,8 hPa 0,0 mm 0,0 km/h (0 Bft) SW 220 ° 0 min 0,000 mm 0,0 UV-I 0 W/m² 9,0 °C 10,2 °C 0,0 km/h (0 Bft)
29.09.2019 01:14 10,3 °C 92 % 1016,8 hPa 0,0 mm 0,0 km/h (0 Bft) SW 220 ° 0 min 0,000 mm 0,0 UV-I 0 W/m² 9,1 °C 10,3 °C 0,0 km/h (0 Bft)
29.09.2019 01:15 10,2 °C 92 % 1016,8 hPa 0,0 mm 0,0 km/h (0 Bft) SW 220 ° 0 min 0,000 mm 0,0 UV-I 0 W/m² 9,0 °C 10,2 °C 0,0 km/h (0 Bft)
29.09.2019 01:16 10,2 °C 92 % 1016,8 hPa 0,0 mm 0,0 km/h (0 Bft) SW 220 ° 0 min 0,000 mm 0,0 UV-I 0 W/m² 9,0 °C 10,2 °C 0,0 km/h (0 Bft)
29.09.2019 01:17 10,3 °C 92 % 1016,8 hPa 0,0 mm 0,0 km/h (0 Bft) SW 220 ° 0 min 0,000 mm 0,0 UV-I 0 W/m² 9,1 °C 10,3 °C 0,0 km/h (0 Bft)
29.09.2019 01:18 10,2 °C 92 % 1016,7 hPa 0,0 mm 0,0 km/h (0 Bft) SW 220 ° 0 min 0,000 mm 0,0 UV-I 0 W/m² 9,0 °C 10,2 °C 0,0 km/h (0 Bft)
29.09.2019 01:19 10,2 °C 92 % 1016,7 hPa 0,0 mm 0,0 km/h (0 Bft) SW 220 ° 0 min 0,000 mm 0,0 UV-I 0 W/m² 9,0 °C 10,2 °C 0,0 km/h (0 Bft)
29.09.2019 01:20 10,2 °C 92 % 1016,8 hPa 0,0 mm 0,0 km/h (0 Bft) SW 220 ° 0 min 0,000 mm 0,0 UV-I 0 W/m² 9,0 °C 10,2 °C 0,0 km/h (0 Bft)
29.09.2019 01:21 10,3 °C 92 % 1016,7 hPa 0,0 mm 0,0 km/h (0 Bft) SW 220 ° 0 min 0,000 mm 0,0 UV-I 0 W/m² 9,1 °C 10,3 °C 0,0 km/h (0 Bft)
29.09.2019 01:22 10,2 °C 92 % 1016,7 hPa 0,0 mm 0,0 km/h (0 Bft) SW 220 ° 0 min 0,000 mm 0,0 UV-I 0 W/m² 9,0 °C 10,2 °C 0,0 km/h (0 Bft)
29.09.2019 01:23 10,3 °C 92 % 1016,7 hPa 0,0 mm 0,0 km/h (0 Bft) SW 220 ° 0 min 0,000 mm 0,0 UV-I 0 W/m² 9,1 °C 10,3 °C 0,0 km/h (0 Bft)
29.09.2019 01:24 10,2 °C 92 % 1016,7 hPa 0,0 mm 0,0 km/h (0 Bft) SW 220 ° 0 min 0,000 mm 0,0 UV-I 0 W/m² 9,0 °C 10,2 °C 0,0 km/h (0 Bft)
29.09.2019 01:25 10,2 °C 92 % 1016,7 hPa 0,0 mm 0,0 km/h (0 Bft) SW 220 ° 0 min 0,000 mm 0,0 UV-I 0 W/m² 9,0 °C 10,2 °C 0,0 km/h (0 Bft)
29.09.2019 01:26 10,2 °C 92 % 1016,7 hPa 0,0 mm 0,0 km/h (0 Bft) SW 220 ° 0 min 0,000 mm 0,0 UV-I 0 W/m² 9,0 °C 10,2 °C 0,0 km/h (0 Bft)
29.09.2019 01:27 10,2 °C 92 % 1016,7 hPa 0,0 mm 0,0 km/h (0 Bft) SW 220 ° 0 min 0,000 mm 0,0 UV-I 0 W/m² 9,0 °C 10,2 °C 0,0 km/h (0 Bft)
29.09.2019 01:28 10,1 °C 92 % 1016,7 hPa 0,0 mm 0,0 km/h (0 Bft) SW 220 ° 0 min 0,000 mm 0,0 UV-I 0 W/m² 8,9 °C 10,1 °C 0,0 km/h (0 Bft)
29.09.2019 01:29 10,1 °C 92 % 1016,7 hPa 0,0 mm 0,0 km/h (0 Bft) SW 220 ° 0 min 0,000 mm 0,0 UV-I 0 W/m² 8,9 °C 10,1 °C 0,0 km/h (0 Bft)
29.09.2019 01:30 10,1 °C 92 % 1016,7 hPa 0,0 mm 0,0 km/h (0 Bft) SW 220 ° 0 min 0,000 mm 0,0 UV-I 0 W/m² 8,9 °C 10,1 °C 0,0 km/h (0 Bft)
29.09.2019 01:31 10,1 °C 92 % 1016,7 hPa 0,0 mm 0,0 km/h (0 Bft) SW 220 ° 0 min 0,000 mm 0,0 UV-I 0 W/m² 8,9 °C 10,1 °C 0,0 km/h (0 Bft)
29.09.2019 01:32 10,1 °C 92 % 1016,7 hPa 0,0 mm 0,0 km/h (0 Bft) SW 220 ° 0 min 0,000 mm 0,0 UV-I 0 W/m² 8,9 °C 10,1 °C 0,0 km/h (0 Bft)
29.09.2019 01:33 10,1 °C 92 % 1016,7 hPa 0,0 mm 0,0 km/h (0 Bft) SW 220 ° 0 min 0,000 mm 0,0 UV-I 0 W/m² 8,9 °C 10,1 °C 0,0 km/h (0 Bft)
29.09.2019 01:34 10,1 °C 92 % 1016,7 hPa 0,0 mm 0,0 km/h (0 Bft) SW 220 ° 0 min 0,000 mm 0,0 UV-I 0 W/m² 8,9 °C 10,1 °C 0,0 km/h (0 Bft)
29.09.2019 01:35 10,1 °C 92 % 1016,7 hPa 0,0 mm 0,0 km/h (0 Bft) SW 220 ° 0 min 0,000 mm 0,0 UV-I 0 W/m² 8,9 °C 10,1 °C 0,0 km/h (0 Bft)
29.09.2019 01:36 10,0 °C 92 % 1016,7 hPa 0,0 mm 0,0 km/h (0 Bft) SW 220 ° 0 min 0,000 mm 0,0 UV-I 0 W/m² 8,8 °C 10,0 °C 0,0 km/h (0 Bft)
29.09.2019 01:37 10,0 °C 92 % 1016,7 hPa 0,0 mm 0,0 km/h (0 Bft) SW 220 ° 0 min 0,000 mm 0,0 UV-I 0 W/m² 8,8 °C 10,0 °C 0,0 km/h (0 Bft)
29.09.2019 01:38 10,0 °C 92 % 1016,7 hPa 0,0 mm 0,0 km/h (0 Bft) SW 220 ° 0 min 0,000 mm 0,0 UV-I 0 W/m² 8,8 °C 10,0 °C 0,0 km/h (0 Bft)
29.09.2019 01:39 10,0 °C 92 % 1016,7 hPa 0,0 mm 0,0 km/h (0 Bft) SW 220 ° 0 min 0,000 mm 0,0 UV-I 0 W/m² 8,8 °C 10,0 °C 0,0 km/h (0 Bft)
29.09.2019 01:40 9,9 °C 92 % 1016,6 hPa 0,0 mm 0,0 km/h (0 Bft) SW 220 ° 0 min 0,000 mm 0,0 UV-I 0 W/m² 8,7 °C 9,9 °C 0,0 km/h (0 Bft)
29.09.2019 01:41 9,9 °C 92 % 1016,6 hPa 0,0 mm 0,0 km/h (0 Bft) SW 220 ° 0 min 0,000 mm 0,0 UV-I 0 W/m² 8,7 °C 9,9 °C 0,0 km/h (0 Bft)
29.09.2019 01:42 9,9 °C 92 % 1016,6 hPa 0,0 mm 0,0 km/h (0 Bft) SW 220 ° 0 min 0,000 mm 0,0 UV-I 0 W/m² 8,7 °C 9,9 °C 0,0 km/h (0 Bft)
29.09.2019 01:43 9,9 °C 92 % 1016,7 hPa 0,0 mm 0,0 km/h (0 Bft) SW 220 ° 0 min 0,000 mm 0,0 UV-I 0 W/m² 8,7 °C 9,9 °C 0,0 km/h (0 Bft)
29.09.2019 01:44 9,8 °C 92 % 1016,6 hPa 0,0 mm 0,0 km/h (0 Bft) SW 220 ° 0 min 0,000 mm 0,0 UV-I 0 W/m² 8,6 °C 9,8 °C 0,0 km/h (0 Bft)
29.09.2019 01:45 9,8 °C 92 % 1016,6 hPa 0,0 mm 0,0 km/h (0 Bft) SW 220 ° 0 min 0,000 mm 0,0 UV-I 0 W/m² 8,6 °C 9,8 °C 0,0 km/h (0 Bft)
29.09.2019 01:46 9,8 °C 92 % 1016,7 hPa 0,0 mm 0,0 km/h (0 Bft) SW 220 ° 0 min 0,000 mm 0,0 UV-I 0 W/m² 8,6 °C 9,8 °C 0,0 km/h (0 Bft)
29.09.2019 01:47 9,8 °C 92 % 1016,6 hPa 0,0 mm 0,0 km/h (0 Bft) SW 220 ° 0 min 0,000 mm 0,0 UV-I 0 W/m² 8,6 °C 9,8 °C 0,0 km/h (0 Bft)
29.09.2019 01:48 9,8 °C 92 % 1016,6 hPa 0,0 mm 0,0 km/h (0 Bft) SW 220 ° 0 min 0,000 mm 0,0 UV-I 0 W/m² 8,6 °C 9,8 °C 0,0 km/h (0 Bft)
29.09.2019 01:49 9,8 °C 93 % 1016,6 hPa 0,0 mm 0,0 km/h (0 Bft) SW 220 ° 0 min 0,000 mm 0,0 UV-I 0 W/m² 8,7 °C 9,8 °C 0,0 km/h (0 Bft)
29.09.2019 01:50 9,8 °C 93 % 1016,6 hPa 0,0 mm 0,0 km/h (0 Bft) SW 220 ° 0 min 0,000 mm 0,0 UV-I 0 W/m² 8,7 °C 9,8 °C 0,0 km/h (0 Bft)
29.09.2019 01:51 9,8 °C 92 % 1016,7 hPa 0,0 mm 0,0 km/h (0 Bft) SW 220 ° 0 min 0,000 mm 0,0 UV-I 0 W/m² 8,6 °C 9,8 °C 0,0 km/h (0 Bft)
29.09.2019 01:52 9,9 °C 92 % 1016,7 hPa 0,0 mm 0,0 km/h (0 Bft) SW 220 ° 0 min 0,000 mm 0,0 UV-I 0 W/m² 8,7 °C 9,9 °C 0,0 km/h (0 Bft)
29.09.2019 01:53 9,9 °C 93 % 1016,6 hPa 0,0 mm 0,0 km/h (0 Bft) SW 220 ° 0 min 0,000 mm 0,0 UV-I 0 W/m² 8,8 °C 9,9 °C 0,0 km/h (0 Bft)
29.09.2019 01:54 9,9 °C 93 % 1016,7 hPa 0,0 mm 0,0 km/h (0 Bft) SW 220 ° 0 min 0,000 mm 0,0 UV-I 0 W/m² 8,8 °C 9,9 °C 0,0 km/h (0 Bft)
29.09.2019 01:55 9,9 °C 93 % 1016,7 hPa 0,0 mm 0,0 km/h (0 Bft) SW 220 ° 0 min 0,000 mm 0,0 UV-I 0 W/m² 8,8 °C 9,9 °C 0,0 km/h (0 Bft)
29.09.2019 01:56 10,0 °C 93 % 1016,6 hPa 0,0 mm 0,0 km/h (0 Bft) SW 220 ° 0 min 0,000 mm 0,0 UV-I 0 W/m² 8,9 °C 10,0 °C 0,0 km/h (0 Bft)
29.09.2019 01:57 10,1 °C 93 % 1016,6 hPa 0,0 mm 0,0 km/h (0 Bft) SW 220 ° 0 min 0,000 mm 0,0 UV-I 0 W/m² 9,0 °C 10,1 °C 0,0 km/h (0 Bft)
29.09.2019 01:58 10,1 °C 93 % 1016,7 hPa 0,0 mm 0,0 km/h (0 Bft) SW 220 ° 0 min 0,000 mm 0,0 UV-I 0 W/m² 9,0 °C 10,1 °C 0,0 km/h (0 Bft)
29.09.2019 01:59 10,1 °C 92 % 1016,6 hPa 0,0 mm 0,0 km/h (0 Bft) SW 220 ° 0 min 0,000 mm 0,0 UV-I 0 W/m² 8,9 °C 10,1 °C 0,0 km/h (0 Bft)
29.09.2019 02:00 10,1 °C 92 % 1016,6 hPa 0,0 mm 1,1 km/h (1 Bft) SW 220 ° 0 min 0,000 mm 0,0 UV-I 0 W/m² 8,9 °C 10,1 °C 3,2 km/h (1 Bft)
29.09.2019 02:01 10,1 °C 92 % 1016,7 hPa 0,0 mm 0,3 km/h (0 Bft) SW 220 ° 0 min 0,000 mm 0,0 UV-I 0 W/m² 8,9 °C 10,1 °C 1,6 km/h (1 Bft)
29.09.2019 02:02 10,2 °C 92 % 1016,7 hPa 0,0 mm 1,0 km/h (0 Bft) SW 220 ° 0 min 0,000 mm 0,0 UV-I 0 W/m² 9,0 °C 10,2 °C 3,2 km/h (1 Bft)
29.09.2019 02:03 10,2 °C 92 % 1016,6 hPa 0,0 mm 1,5 km/h (1 Bft) SW 220 ° 0 min 0,000 mm 0,0 UV-I 0 W/m² 9,0 °C 10,2 °C 3,2 km/h (1 Bft)
29.09.2019 02:04 10,2 °C 92 % 1016,6 hPa 0,0 mm 0,0 km/h (0 Bft) SW 220 ° 0 min 0,000 mm 0,0 UV-I 0 W/m² 9,0 °C 10,2 °C 0,0 km/h (0 Bft)
29.09.2019 02:05 10,2 °C 92 % 1016,6 hPa 0,0 mm 0,0 km/h (0 Bft) SW 220 ° 0 min 0,000 mm 0,0 UV-I 0 W/m² 9,0 °C 10,2 °C 0,0 km/h (0 Bft)
29.09.2019 02:06 10,3 °C 92 % 1016,6 hPa 0,0 mm 0,0 km/h (0 Bft) SW 220 ° 0 min 0,000 mm 0,0 UV-I 0 W/m² 9,1 °C 10,3 °C 0,0 km/h (0 Bft)
29.09.2019 02:07 10,3 °C 92 % 1016,6 hPa 0,0 mm 0,0 km/h (0 Bft) SW 220 ° 0 min 0,000 mm 0,0 UV-I 0 W/m² 9,1 °C 10,3 °C 0,0 km/h (0 Bft)
29.09.2019 02:08 10,3 °C 92 % 1016,6 hPa 0,0 mm 0,0 km/h (0 Bft) SW 220 ° 0 min 0,000 mm 0,0 UV-I 0 W/m² 9,1 °C 10,3 °C 0,0 km/h (0 Bft)
29.09.2019 02:09 10,3 °C 92 % 1016,6 hPa 0,0 mm 0,0 km/h (0 Bft) SW 220 ° 0 min 0,000 mm 0,0 UV-I 0 W/m² 9,1 °C 10,3 °C 0,0 km/h (0 Bft)
29.09.2019 02:10 10,4 °C 92 % 1016,6 hPa 0,0 mm 0,0 km/h (0 Bft) SW 220 ° 0 min 0,000 mm 0,0 UV-I 0 W/m² 9,2 °C 10,4 °C 0,0 km/h (0 Bft)
29.09.2019 02:11 10,4 °C 92 % 1016,7 hPa 0,0 mm 0,0 km/h (0 Bft) SW 220 ° 0 min 0,000 mm 0,0 UV-I 0 W/m² 9,2 °C 10,4 °C 0,0 km/h (0 Bft)
29.09.2019 02:12 10,4 °C 92 % 1016,6 hPa 0,0 mm 0,0 km/h (0 Bft) SW 220 ° 0 min 0,000 mm 0,0 UV-I 0 W/m² 9,2 °C 10,4 °C 0,0 km/h (0 Bft)
29.09.2019 02:13 10,4 °C 92 % 1016,6 hPa 0,0 mm 0,0 km/h (0 Bft) SW 220 ° 0 min 0,000 mm 0,0 UV-I 0 W/m² 9,2 °C 10,4 °C 0,0 km/h (0 Bft)
29.09.2019 02:14 10,4 °C 92 % 1016,6 hPa 0,0 mm 0,0 km/h (0 Bft) SW 220 ° 0 min 0,000 mm 0,0 UV-I 0 W/m² 9,2 °C 10,4 °C 0,0 km/h (0 Bft)
29.09.2019 02:15 10,4 °C 92 % 1016,6 hPa 0,0 mm 0,0 km/h (0 Bft) SW 220 ° 0 min 0,000 mm 0,0 UV-I 0 W/m² 9,2 °C 10,4 °C 0,0 km/h (0 Bft)
29.09.2019 02:16 10,4 °C 92 % 1016,6 hPa 0,2 mm 0,0 km/h (0 Bft) SW 220 ° 0 min 0,000 mm 0,0 UV-I 0 W/m² 9,2 °C 10,4 °C 0,0 km/h (0 Bft)
29.09.2019 02:17 10,4 °C 92 % 1016,6 hPa 0,0 mm 0,0 km/h (0 Bft) SW 220 ° 0 min 0,000 mm 0,0 UV-I 0 W/m² 9,2 °C 10,4 °C 0,0 km/h (0 Bft)
29.09.2019 02:18 10,4 °C 92 % 1016,6 hPa 0,0 mm 0,0 km/h (0 Bft) SW 220 ° 0 min 0,000 mm 0,0 UV-I 0 W/m² 9,2 °C 10,4 °C 0,0 km/h (0 Bft)
29.09.2019 02:19 10,5 °C 92 % 1016,5 hPa 0,0 mm 0,0 km/h (0 Bft) SW 220 ° 0 min 0,000 mm 0,0 UV-I 0 W/m² 9,3 °C 10,5 °C 0,0 km/h (0 Bft)
29.09.2019 02:20 10,4 °C 92 % 1016,5 hPa 0,0 mm 0,0 km/h (0 Bft) SW 220 ° 0 min 0,000 mm 0,0 UV-I 0 W/m² 9,2 °C 10,4 °C 0,0 km/h (0 Bft)
29.09.2019 02:21 10,4 °C 92 % 1016,5 hPa 0,0 mm 0,0 km/h (0 Bft) SW 220 ° 0 min 0,000 mm 0,0 UV-I 0 W/m² 9,2 °C 10,4 °C 0,0 km/h (0 Bft)
29.09.2019 02:22 10,4 °C 92 % 1016,5 hPa 0,0 mm 0,0 km/h (0 Bft) SW 220 ° 0 min 0,000 mm 0,0 UV-I 0 W/m² 9,2 °C 10,4 °C 0,0 km/h (0 Bft)
29.09.2019 02:23 10,5 °C 92 % 1016,5 hPa 0,0 mm 0,0 km/h (0 Bft) SW 220 ° 0 min 0,000 mm 0,0 UV-I 0 W/m² 9,3 °C 10,5 °C 0,0 km/h (0 Bft)
29.09.2019 02:24 10,5 °C 92 % 1016,4 hPa 0,0 mm 0,0 km/h (0 Bft) SW 220 ° 0 min 0,000 mm 0,0 UV-I 0 W/m² 9,3 °C 10,5 °C 0,0 km/h (0 Bft)
29.09.2019 02:25 10,5 °C 92 % 1016,4 hPa 0,0 mm 0,0 km/h (0 Bft) SW 220 ° 0 min 0,000 mm 0,0 UV-I 0 W/m² 9,3 °C 10,5 °C 0,0 km/h (0 Bft)
29.09.2019 02:26 10,5 °C 92 % 1016,4 hPa 0,0 mm 0,0 km/h (0 Bft) SW 220 ° 0 min 0,000 mm 0,0 UV-I 0 W/m² 9,3 °C 10,5 °C 0,0 km/h (0 Bft)
29.09.2019 02:27 10,5 °C 92 % 1016,4 hPa 0,0 mm 0,0 km/h (0 Bft) SW 220 ° 0 min 0,000 mm 0,0 UV-I 0 W/m² 9,3 °C 10,5 °C 0,0 km/h (0 Bft)
29.09.2019 02:28 10,4 °C 92 % 1016,4 hPa 0,0 mm 0,0 km/h (0 Bft) SW 220 ° 0 min 0,000 mm 0,0 UV-I 0 W/m² 9,2 °C 10,4 °C 0,0 km/h (0 Bft)
29.09.2019 02:29 10,4 °C 92 % 1016,3 hPa 0,0 mm 0,0 km/h (0 Bft) SW 220 ° 0 min 0,000 mm 0,0 UV-I 0 W/m² 9,2 °C 10,4 °C 0,0 km/h (0 Bft)
29.09.2019 02:30 10,4 °C 92 % 1016,3 hPa 0,0 mm 0,0 km/h (0 Bft) SW 220 ° 0 min 0,000 mm 0,0 UV-I 0 W/m² 9,2 °C 10,4 °C 0,0 km/h (0 Bft)
29.09.2019 02:31 10,4 °C 92 % 1016,3 hPa 0,0 mm 0,0 km/h (0 Bft) SW 220 ° 0 min 0,000 mm 0,0 UV-I 0 W/m² 9,2 °C 10,4 °C 0,0 km/h (0 Bft)
29.09.2019 02:32 10,4 °C 92 % 1016,3 hPa 0,0 mm 0,0 km/h (0 Bft) SW 220 ° 0 min 0,000 mm 0,0 UV-I 0 W/m² 9,2 °C 10,4 °C 0,0 km/h (0 Bft)
29.09.2019 02:33 10,4 °C 92 % 1016,3 hPa 0,0 mm 0,0 km/h (0 Bft) SW 220 ° 0 min 0,000 mm 0,0 UV-I 0 W/m² 9,2 °C 10,4 °C 0,0 km/h (0 Bft)
29.09.2019 02:34 10,4 °C 92 % 1016,2 hPa 0,0 mm 0,0 km/h (0 Bft) SW 220 ° 0 min 0,000 mm 0,0 UV-I 0 W/m² 9,2 °C 10,4 °C 0,0 km/h (0 Bft)
29.09.2019 02:35 10,4 °C 92 % 1016,2 hPa 0,0 mm 0,0 km/h (0 Bft) SW 220 ° 0 min 0,000 mm 0,0 UV-I 0 W/m² 9,2 °C 10,4 °C 0,0 km/h (0 Bft)
29.09.2019 02:36 10,4 °C 92 % 1016,2 hPa 0,0 mm 0,0 km/h (0 Bft) SW 220 ° 0 min 0,000 mm 0,0 UV-I 0 W/m² 9,2 °C 10,4 °C 0,0 km/h (0 Bft)
29.09.2019 02:37 10,4 °C 92 % 1016,2 hPa 0,0 mm 0,0 km/h (0 Bft) SW 220 ° 0 min 0,000 mm 0,0 UV-I 0 W/m² 9,2 °C 10,4 °C 0,0 km/h (0 Bft)
29.09.2019 02:38 10,4 °C 92 % 1016,1 hPa 0,0 mm 0,0 km/h (0 Bft) SW 220 ° 0 min 0,000 mm 0,0 UV-I 0 W/m² 9,2 °C 10,4 °C 0,0 km/h (0 Bft)
29.09.2019 02:39 10,4 °C 92 % 1016,1 hPa 0,0 mm 0,0 km/h (0 Bft) SW 220 ° 0 min 0,000 mm 0,0 UV-I 0 W/m² 9,2 °C 10,4 °C 0,0 km/h (0 Bft)
29.09.2019 02:40 10,4 °C 91 % 1016,2 hPa 0,0 mm 0,0 km/h (0 Bft) SW 220 ° 0 min 0,000 mm 0,0 UV-I 0 W/m² 9,0 °C 10,4 °C 0,0 km/h (0 Bft)
29.09.2019 02:41 10,3 °C 91 % 1016,2 hPa 0,0 mm 0,0 km/h (0 Bft) SW 220 ° 0 min 0,000 mm 0,0 UV-I 0 W/m² 8,9 °C 10,3 °C 0,0 km/h (0 Bft)
29.09.2019 02:42 10,3 °C 91 % 1016,1 hPa 0,0 mm 0,0 km/h (0 Bft) SW 220 ° 0 min 0,000 mm 0,0 UV-I 0 W/m² 8,9 °C 10,3 °C 0,0 km/h (0 Bft)
29.09.2019 02:43 10,4 °C 91 % 1016,2 hPa 0,0 mm 0,0 km/h (0 Bft) SW 220 ° 0 min 0,000 mm 0,0 UV-I 0 W/m² 9,0 °C 10,4 °C 0,0 km/h (0 Bft)
29.09.2019 02:44 10,4 °C 91 % 1016,2 hPa 0,0 mm 0,0 km/h (0 Bft) SW 220 ° 0 min 0,000 mm 0,0 UV-I 0 W/m² 9,0 °C 10,4 °C 0,0 km/h (0 Bft)
29.09.2019 02:45 10,3 °C 91 % 1016,2 hPa 0,0 mm 0,0 km/h (0 Bft) SW 220 ° 0 min 0,000 mm 0,0 UV-I 0 W/m² 8,9 °C 10,3 °C 0,0 km/h (0 Bft)
29.09.2019 02:46 10,4 °C 91 % 1016,2 hPa 0,0 mm 0,0 km/h (0 Bft) SW 220 ° 0 min 0,000 mm 0,0 UV-I 0 W/m² 9,0 °C 10,4 °C 0,0 km/h (0 Bft)
29.09.2019 02:47 10,4 °C 91 % 1016,2 hPa 0,0 mm 0,0 km/h (0 Bft) SW 220 ° 0 min 0,000 mm 0,0 UV-I 0 W/m² 9,0 °C 10,4 °C 0,0 km/h (0 Bft)
29.09.2019 02:48 10,4 °C 91 % 1016,2 hPa 0,0 mm 0,0 km/h (0 Bft) SW 220 ° 0 min 0,000 mm 0,0 UV-I 0 W/m² 9,0 °C 10,4 °C 0,0 km/h (0 Bft)
29.09.2019 02:49 10,4 °C 91 % 1016,2 hPa 0,0 mm 0,0 km/h (0 Bft) SW 220 ° 0 min 0,000 mm 0,0 UV-I 0 W/m² 9,0 °C 10,4 °C 0,0 km/h (0 Bft)
29.09.2019 02:50 10,4 °C 91 % 1016,2 hPa 0,0 mm 0,0 km/h (0 Bft) SW 220 ° 0 min 0,000 mm 0,0 UV-I 0 W/m² 9,0 °C 10,4 °C 0,0 km/h (0 Bft)
29.09.2019 02:51 10,4 °C 91 % 1016,2 hPa 0,0 mm 0,0 km/h (0 Bft) SW 220 ° 0 min 0,000 mm 0,0 UV-I 0 W/m² 9,0 °C 10,4 °C 0,0 km/h (0 Bft)
29.09.2019 02:52 10,4 °C 91 % 1016,1 hPa 0,0 mm 0,0 km/h (0 Bft) SW 220 ° 0 min 0,000 mm 0,0 UV-I 0 W/m² 9,0 °C 10,4 °C 0,0 km/h (0 Bft)
29.09.2019 02:53 10,4 °C 91 % 1016,1 hPa 0,0 mm 0,0 km/h (0 Bft) SW 220 ° 0 min 0,000 mm 0,0 UV-I 0 W/m² 9,0 °C 10,4 °C 0,0 km/h (0 Bft)
29.09.2019 02:54 10,4 °C 91 % 1016,1 hPa 0,0 mm 0,0 km/h (0 Bft) SW 220 ° 0 min 0,000 mm 0,0 UV-I 0 W/m² 9,0 °C 10,4 °C 0,0 km/h (0 Bft)
29.09.2019 02:55 10,4 °C 91 % 1016,1 hPa 0,0 mm 0,0 km/h (0 Bft) SW 220 ° 0 min 0,000 mm 0,0 UV-I 0 W/m² 9,0 °C 10,4 °C 0,0 km/h (0 Bft)
29.09.2019 02:56 10,4 °C 91 % 1016,1 hPa 0,0 mm 0,0 km/h (0 Bft) SW 220 ° 0 min 0,000 mm 0,0 UV-I 0 W/m² 9,0 °C 10,4 °C 0,0 km/h (0 Bft)
29.09.2019 02:57 10,4 °C 91 % 1016,1 hPa 0,0 mm 0,0 km/h (0 Bft) SW 220 ° 0 min 0,000 mm 0,0 UV-I 0 W/m² 9,0 °C 10,4 °C 0,0 km/h (0 Bft)
29.09.2019 02:58 10,4 °C 91 % 1016,1 hPa 0,0 mm 0,0 km/h (0 Bft) SW 220 ° 0 min 0,000 mm 0,0 UV-I 0 W/m² 9,0 °C 10,4 °C 0,0 km/h (0 Bft)
29.09.2019 02:59 10,4 °C 91 % 1016,0 hPa 0,0 mm 0,0 km/h (0 Bft) SW 220 ° 0 min 0,000 mm 0,0 UV-I 0 W/m² 9,0 °C 10,4 °C 0,0 km/h (0 Bft)
29.09.2019 03:00 10,4 °C 91 % 1016,0 hPa 0,0 mm 0,0 km/h (0 Bft) SW 220 ° 0 min 0,000 mm 0,0 UV-I 0 W/m² 9,0 °C 10,4 °C 0,0 km/h (0 Bft)
29.09.2019 03:01 10,3 °C 91 % 1016,0 hPa 0,0 mm 0,0 km/h (0 Bft) SW 220 ° 0 min 0,000 mm 0,0 UV-I 0 W/m² 8,9 °C 10,3 °C 0,0 km/h (0 Bft)
29.09.2019 03:02 10,4 °C 91 % 1016,0 hPa 0,0 mm 0,0 km/h (0 Bft) SW 220 ° 0 min 0,000 mm 0,0 UV-I 0 W/m² 9,0 °C 10,4 °C 0,0 km/h (0 Bft)
29.09.2019 03:03 10,3 °C 91 % 1016,0 hPa 0,0 mm 0,0 km/h (0 Bft) SW 220 ° 0 min 0,000 mm 0,0 UV-I 0 W/m² 8,9 °C 10,3 °C 0,0 km/h (0 Bft)
29.09.2019 03:04 10,3 °C 91 % 1016,0 hPa 0,2 mm 0,0 km/h (0 Bft) SW 220 ° 0 min 0,000 mm 0,0 UV-I 0 W/m² 8,9 °C 10,3 °C 0,0 km/h (0 Bft)
29.09.2019 03:05 10,3 °C 91 % 1015,9 hPa 0,0 mm 0,0 km/h (0 Bft) SW 220 ° 0 min 0,000 mm 0,0 UV-I 0 W/m² 8,9 °C 10,3 °C 0,0 km/h (0 Bft)
29.09.2019 03:06 10,3 °C 91 % 1015,9 hPa 0,0 mm 0,0 km/h (0 Bft) SW 220 ° 0 min 0,000 mm 0,0 UV-I 0 W/m² 8,9 °C 10,3 °C 0,0 km/h (0 Bft)
29.09.2019 03:07 10,3 °C 91 % 1015,8 hPa 0,0 mm 0,0 km/h (0 Bft) SW 220 ° 0 min 0,000 mm 0,0 UV-I 0 W/m² 8,9 °C 10,3 °C 0,0 km/h (0 Bft)
29.09.2019 03:08 10,3 °C 91 % 1015,8 hPa 0,0 mm 0,0 km/h (0 Bft) SW 220 ° 0 min 0,000 mm 0,0 UV-I 0 W/m² 8,9 °C 10,3 °C 0,0 km/h (0 Bft)
29.09.2019 03:09 10,3 °C 91 % 1015,8 hPa 0,0 mm 0,0 km/h (0 Bft) SW 220 ° 0 min 0,000 mm 0,0 UV-I 0 W/m² 8,9 °C 10,3 °C 0,0 km/h (0 Bft)
29.09.2019 03:10 10,3 °C 91 % 1015,8 hPa 0,0 mm 0,0 km/h (0 Bft) SW 220 ° 0 min 0,000 mm 0,0 UV-I 0 W/m² 8,9 °C 10,3 °C 0,0 km/h (0 Bft)
29.09.2019 03:11 10,3 °C 91 % 1015,8 hPa 0,0 mm 0,0 km/h (0 Bft) SW 220 ° 0 min 0,000 mm 0,0 UV-I 0 W/m² 8,9 °C 10,3 °C 0,0 km/h (0 Bft)
29.09.2019 03:12 10,2 °C 91 % 1015,8 hPa 0,0 mm 0,0 km/h (0 Bft) SW 220 ° 0 min 0,000 mm 0,0 UV-I 0 W/m² 8,8 °C 10,2 °C 0,0 km/h (0 Bft)
29.09.2019 03:13 10,2 °C 91 % 1015,8 hPa 0,0 mm 0,0 km/h (0 Bft) SW 220 ° 0 min 0,000 mm 0,0 UV-I 0 W/m² 8,8 °C 10,2 °C 0,0 km/h (0 Bft)
29.09.2019 03:14 10,2 °C 91 % 1015,8 hPa 0,0 mm 0,0 km/h (0 Bft) SW 220 ° 0 min 0,000 mm 0,0 UV-I 0 W/m² 8,8 °C 10,2 °C 0,0 km/h (0 Bft)
29.09.2019 03:15 10,2 °C 91 % 1015,8 hPa 0,0 mm 0,0 km/h (0 Bft) SW 220 ° 0 min 0,000 mm 0,0 UV-I 0 W/m² 8,8 °C 10,2 °C 0,0 km/h (0 Bft)
29.09.2019 03:16 10,2 °C 91 % 1015,7 hPa 0,0 mm 0,0 km/h (0 Bft) SW 220 ° 0 min 0,000 mm 0,0 UV-I 0 W/m² 8,8 °C 10,2 °C 0,0 km/h (0 Bft)
29.09.2019 03:17 10,1 °C 91 % 1015,7 hPa 0,0 mm 0,0 km/h (0 Bft) SW 220 ° 0 min 0,000 mm 0,0 UV-I 0 W/m² 8,7 °C 10,1 °C 0,0 km/h (0 Bft)
29.09.2019 03:18 10,1 °C 91 % 1015,7 hPa 0,0 mm 0,0 km/h (0 Bft) SW 220 ° 0 min 0,000 mm 0,0 UV-I 0 W/m² 8,7 °C 10,1 °C 0,0 km/h (0 Bft)
29.09.2019 03:19 10,1 °C 91 % 1015,7 hPa 0,0 mm 0,0 km/h (0 Bft) SW 220 ° 0 min 0,000 mm 0,0 UV-I 0 W/m² 8,7 °C 10,1 °C 0,0 km/h (0 Bft)
29.09.2019 03:20 10,1 °C 91 % 1015,7 hPa 0,0 mm 0,0 km/h (0 Bft) SW 220 ° 0 min 0,000 mm 0,0 UV-I 0 W/m² 8,7 °C 10,1 °C 0,0 km/h (0 Bft)
29.09.2019 03:21 10,0 °C 91 % 1015,7 hPa 0,0 mm 0,0 km/h (0 Bft) SW 220 ° 0 min 0,000 mm 0,0 UV-I 0 W/m² 8,6 °C 10,0 °C 0,0 km/h (0 Bft)
29.09.2019 03:22 9,9 °C 91 % 1015,7 hPa 0,0 mm 0,0 km/h (0 Bft) SW 220 ° 0 min 0,000 mm 0,0 UV-I 0 W/m² 8,5 °C 9,9 °C 0,0 km/h (0 Bft)
29.09.2019 03:23 9,9 °C 91 % 1015,7 hPa 0,0 mm 0,0 km/h (0 Bft) SW 220 ° 0 min 0,000 mm 0,0 UV-I 0 W/m² 8,5 °C 9,9 °C 0,0 km/h (0 Bft)
29.09.2019 03:24 9,8 °C 91 % 1015,7 hPa 0,0 mm 0,0 km/h (0 Bft) SW 220 ° 0 min 0,000 mm 0,0 UV-I 0 W/m² 8,4 °C 9,8 °C 0,0 km/h (0 Bft)
29.09.2019 03:25 9,8 °C 91 % 1015,7 hPa 0,0 mm 0,0 km/h (0 Bft) SW 220 ° 0 min 0,000 mm 0,0 UV-I 0 W/m² 8,4 °C 9,8 °C 0,0 km/h (0 Bft)
29.09.2019 03:26 9,7 °C 91 % 1015,7 hPa 0,0 mm 0,0 km/h (0 Bft) SW 220 ° 0 min 0,000 mm 0,0 UV-I 0 W/m² 8,3 °C 9,7 °C 0,0 km/h (0 Bft)
29.09.2019 03:27 9,7 °C 91 % 1015,7 hPa 0,0 mm 0,0 km/h (0 Bft) SW 220 ° 0 min 0,000 mm 0,0 UV-I 0 W/m² 8,3 °C 9,7 °C 0,0 km/h (0 Bft)
29.09.2019 03:28 9,6 °C 91 % 1015,7 hPa 0,0 mm 0,0 km/h (0 Bft) SW 220 ° 0 min 0,000 mm 0,0 UV-I 0 W/m² 8,2 °C 9,6 °C 0,0 km/h (0 Bft)
29.09.2019 03:29 9,6 °C 91 % 1015,6 hPa 0,0 mm 0,0 km/h (0 Bft) SW 220 ° 0 min 0,000 mm 0,0 UV-I 0 W/m² 8,2 °C 9,6 °C 0,0 km/h (0 Bft)
29.09.2019 03:30 9,4 °C 91 % 1015,6 hPa 0,0 mm 0,0 km/h (0 Bft) SW 220 ° 0 min 0,000 mm 0,0 UV-I 0 W/m² 8,0 °C 9,4 °C 0,0 km/h (0 Bft)
29.09.2019 03:31 9,4 °C 91 % 1015,6 hPa 0,0 mm 0,0 km/h (0 Bft) SW 220 ° 0 min 0,000 mm 0,0 UV-I 0 W/m² 8,0 °C 9,4 °C 0,0 km/h (0 Bft)
29.09.2019 03:32 9,4 °C 91 % 1015,6 hPa 0,0 mm 0,0 km/h (0 Bft) SW 220 ° 0 min 0,000 mm 0,0 UV-I 0 W/m² 8,0 °C 9,4 °C 0,0 km/h (0 Bft)
29.09.2019 03:33 9,3 °C 91 % 1015,6 hPa 0,0 mm 0,0 km/h (0 Bft) SW 220 ° 0 min 0,000 mm 0,0 UV-I 0 W/m² 7,9 °C 9,3 °C 0,0 km/h (0 Bft)
29.09.2019 03:34 9,2 °C 91 % 1015,6 hPa 0,0 mm 0,0 km/h (0 Bft) SW 220 ° 0 min 0,000 mm 0,0 UV-I 0 W/m² 7,8 °C 9,2 °C 0,0 km/h (0 Bft)
29.09.2019 03:35 9,2 °C 91 % 1015,6 hPa 0,0 mm 0,0 km/h (0 Bft) SW 220 ° 0 min 0,000 mm 0,0 UV-I 0 W/m² 7,8 °C 9,2 °C 0,0 km/h (0 Bft)
29.09.2019 03:36 9,1 °C 91 % 1015,5 hPa 0,0 mm 0,0 km/h (0 Bft) SW 220 ° 0 min 0,000 mm 0,0 UV-I 0 W/m² 7,7 °C 9,1 °C 0,0 km/h (0 Bft)
29.09.2019 03:37 9,1 °C 91 % 1015,5 hPa 0,0 mm 0,0 km/h (0 Bft) SW 220 ° 0 min 0,000 mm 0,0 UV-I 0 W/m² 7,7 °C 9,1 °C 0,0 km/h (0 Bft)
29.09.2019 03:38 9,1 °C 92 % 1015,5 hPa 0,0 mm 0,0 km/h (0 Bft) SW 220 ° 0 min 0,000 mm 0,0 UV-I 0 W/m² 7,9 °C 9,1 °C 0,0 km/h (0 Bft)
29.09.2019 03:39 9,1 °C 92 % 1015,5 hPa 0,0 mm 0,0 km/h (0 Bft) SW 220 ° 0 min 0,000 mm 0,0 UV-I 0 W/m² 7,9 °C 9,1 °C 0,0 km/h (0 Bft)
29.09.2019 03:40 9,1 °C 92 % 1015,5 hPa 0,0 mm 0,0 km/h (0 Bft) SW 220 ° 0 min 0,000 mm 0,0 UV-I 0 W/m² 7,9 °C 9,1 °C 0,0 km/h (0 Bft)
29.09.2019 03:41 8,9 °C 92 % 1015,4 hPa 0,0 mm 0,0 km/h (0 Bft) SW 220 ° 0 min 0,000 mm 0,0 UV-I 0 W/m² 7,7 °C 8,9 °C 0,0 km/h (0 Bft)
29.09.2019 03:42 8,9 °C 92 % 1015,4 hPa 0,0 mm 0,0 km/h (0 Bft) SW 220 ° 0 min 0,000 mm 0,0 UV-I 0 W/m² 7,7 °C 8,9 °C 0,0 km/h (0 Bft)
29.09.2019 03:43 8,9 °C 92 % 1015,4 hPa 0,0 mm 0,0 km/h (0 Bft) SW 220 ° 0 min 0,000 mm 0,0 UV-I 0 W/m² 7,7 °C 8,9 °C 0,0 km/h (0 Bft)
29.09.2019 03:44 8,8 °C 92 % 1015,4 hPa 0,0 mm 0,0 km/h (0 Bft) SW 220 ° 0 min 0,000 mm 0,0 UV-I 0 W/m² 7,6 °C 8,8 °C 0,0 km/h (0 Bft)
29.09.2019 03:45 8,8 °C 92 % 1015,4 hPa 0,0 mm 0,0 km/h (0 Bft) SW 220 ° 0 min 0,000 mm 0,0 UV-I 0 W/m² 7,6 °C 8,8 °C 0,0 km/h (0 Bft)
29.09.2019 03:46 8,8 °C 92 % 1015,4 hPa 0,0 mm 0,0 km/h (0 Bft) SW 220 ° 0 min 0,000 mm 0,0 UV-I 0 W/m² 7,6 °C 8,8 °C 0,0 km/h (0 Bft)
29.09.2019 03:47 8,8 °C 92 % 1015,3 hPa 0,0 mm 6,1 km/h (2 Bft) S-SW 195 ° 0 min 0,000 mm 0,0 UV-I 0 W/m² 7,6 °C 8,1 °C 8,0 km/h (2 Bft)
29.09.2019 03:48 8,8 °C 92 % 1015,3 hPa 0,0 mm 2,1 km/h (1 Bft) S-SW 194 ° 0 min 0,000 mm 0,0 UV-I 0 W/m² 7,6 °C 8,8 °C 6,4 km/h (2 Bft)
29.09.2019 03:49 8,7 °C 92 % 1015,2 hPa 0,0 mm 0,0 km/h (0 Bft) S-SW 194 ° 0 min 0,000 mm 0,0 UV-I 0 W/m² 7,5 °C 8,7 °C 0,0 km/h (0 Bft)
29.09.2019 03:50 8,8 °C 93 % 1015,2 hPa 0,0 mm 0,0 km/h (0 Bft) S-SW 194 ° 0 min 0,000 mm 0,0 UV-I 0 W/m² 7,7 °C 8,8 °C 0,0 km/h (0 Bft)
29.09.2019 03:51 8,7 °C 92 % 1015,2 hPa 0,0 mm 0,0 km/h (0 Bft) S-SW 194 ° 0 min 0,000 mm 0,0 UV-I 0 W/m² 7,5 °C 8,7 °C 0,0 km/h (0 Bft)
29.09.2019 03:52 8,7 °C 92 % 1015,2 hPa 0,0 mm 0,1 km/h (0 Bft) S-SW 194 ° 0 min 0,000 mm 0,0 UV-I 0 W/m² 7,5 °C 8,7 °C 3,2 km/h (1 Bft)
29.09.2019 03:53 8,7 °C 92 % 1015,2 hPa 0,0 mm 1,8 km/h (1 Bft) S-SW 194 ° 0 min 0,000 mm 0,0 UV-I 0 W/m² 7,5 °C 8,7 °C 4,8 km/h (1 Bft)
29.09.2019 03:54 8,7 °C 92 % 1015,2 hPa 0,0 mm 2,1 km/h (1 Bft) S-SW 194 ° 0 min 0,000 mm 0,0 UV-I 0 W/m² 7,5 °C 8,7 °C 3,2 km/h (1 Bft)
29.09.2019 03:55 8,7 °C 92 % 1015,2 hPa 0,0 mm 0,2 km/h (0 Bft) S-SW 194 ° 0 min 0,000 mm 0,0 UV-I 0 W/m² 7,5 °C 8,7 °C 1,6 km/h (1 Bft)
29.09.2019 03:56 8,7 °C 92 % 1015,2 hPa 0,0 mm 0,0 km/h (0 Bft) S-SW 194 ° 0 min 0,000 mm 0,0 UV-I 0 W/m² 7,5 °C 8,7 °C 0,0 km/h (0 Bft)
29.09.2019 03:57 8,6 °C 92 % 1015,1 hPa 0,0 mm 0,0 km/h (0 Bft) S-SW 194 ° 0 min 0,000 mm 0,0 UV-I 0 W/m² 7,4 °C 8,6 °C 0,0 km/h (0 Bft)
29.09.2019 03:58 8,6 °C 92 % 1015,1 hPa 0,0 mm 0,0 km/h (0 Bft) S-SW 194 ° 0 min 0,000 mm 0,0 UV-I 0 W/m² 7,4 °C 8,6 °C 0,0 km/h (0 Bft)
29.09.2019 03:59 8,6 °C 92 % 1015,1 hPa 0,0 mm 0,0 km/h (0 Bft) S-SW 194 ° 0 min 0,000 mm 0,0 UV-I 0 W/m² 7,4 °C 8,6 °C 0,0 km/h (0 Bft)
29.09.2019 04:00 8,5 °C 92 % 1015,1 hPa 0,0 mm 0,0 km/h (0 Bft) S-SW 194 ° 0 min 0,000 mm 0,0 UV-I 0 W/m² 7,3 °C 8,5 °C 0,0 km/h (0 Bft)
29.09.2019 04:01 8,5 °C 92 % 1015,1 hPa 0,0 mm 0,0 km/h (0 Bft) S-SW 194 ° 0 min 0,000 mm 0,0 UV-I 0 W/m² 7,3 °C 8,5 °C 0,0 km/h (0 Bft)
29.09.2019 04:02 8,4 °C 92 % 1015,1 hPa 0,0 mm 0,0 km/h (0 Bft) S-SW 194 ° 0 min 0,000 mm 0,0 UV-I 0 W/m² 7,2 °C 8,4 °C 0,0 km/h (0 Bft)
29.09.2019 04:03 8,4 °C 93 % 1015,1 hPa 0,0 mm 0,3 km/h (0 Bft) S-SW 195 ° 0 min 0,000 mm 0,0 UV-I 0 W/m² 7,3 °C 8,4 °C 1,6 km/h (1 Bft)
29.09.2019 04:04 8,4 °C 93 % 1015,1 hPa 0,0 mm 0,0 km/h (0 Bft) S-SW 195 ° 0 min 0,000 mm 0,0 UV-I 0 W/m² 7,3 °C 8,4 °C 0,0 km/h (0 Bft)
29.09.2019 04:05 8,5 °C 93 % 1015,1 hPa 0,0 mm 0,0 km/h (0 Bft) S-SW 195 ° 0 min 0,000 mm 0,0 UV-I 0 W/m² 7,4 °C 8,5 °C 0,0 km/h (0 Bft)
29.09.2019 04:06 8,4 °C 92 % 1015,1 hPa 0,0 mm 0,0 km/h (0 Bft) S-SW 195 ° 0 min 0,000 mm 0,0 UV-I 0 W/m² 7,2 °C 8,4 °C 0,0 km/h (0 Bft)
29.09.2019 04:07 8,4 °C 92 % 1015,0 hPa 0,2 mm 0,0 km/h (0 Bft) S-SW 195 ° 0 min 0,000 mm 0,0 UV-I 0 W/m² 7,2 °C 8,4 °C 0,0 km/h (0 Bft)
29.09.2019 04:08 8,3 °C 92 % 1015,0 hPa 0,0 mm 0,0 km/h (0 Bft) S-SW 195 ° 0 min 0,000 mm 0,0 UV-I 0 W/m² 7,1 °C 8,3 °C 0,0 km/h (0 Bft)
29.09.2019 04:09 8,3 °C 93 % 1015,1 hPa 0,0 mm 0,0 km/h (0 Bft) S-SW 195 ° 0 min 0,000 mm 0,0 UV-I 0 W/m² 7,2 °C 8,3 °C 0,0 km/h (0 Bft)
29.09.2019 04:10 8,3 °C 93 % 1015,0 hPa 0,0 mm 0,0 km/h (0 Bft) S-SW 195 ° 0 min 0,000 mm 0,0 UV-I 0 W/m² 7,2 °C 8,3 °C 0,0 km/h (0 Bft)
29.09.2019 04:11 8,3 °C 93 % 1015,1 hPa 0,0 mm 0,0 km/h (0 Bft) S-SW 195 ° 0 min 0,000 mm 0,0 UV-I 0 W/m² 7,2 °C 8,3 °C 0,0 km/h (0 Bft)
29.09.2019 04:12 8,2 °C 93 % 1015,0 hPa 0,0 mm 0,0 km/h (0 Bft) S-SW 195 ° 0 min 0,000 mm 0,0 UV-I 0 W/m² 7,1 °C 8,2 °C 0,0 km/h (0 Bft)
29.09.2019 04:13 8,2 °C 93 % 1014,9 hPa 0,0 mm 0,0 km/h (0 Bft) S-SW 195 ° 0 min 0,000 mm 0,0 UV-I 0 W/m² 7,1 °C 8,2 °C 0,0 km/h (0 Bft)
29.09.2019 04:14 8,2 °C 93 % 1014,9 hPa 0,0 mm 0,0 km/h (0 Bft) S-SW 195 ° 0 min 0,000 mm 0,0 UV-I 0 W/m² 7,1 °C 8,2 °C 0,0 km/h (0 Bft)
29.09.2019 04:15 8,2 °C 93 % 1014,9 hPa 0,0 mm 0,0 km/h (0 Bft) S-SW 195 ° 0 min 0,000 mm 0,0 UV-I 0 W/m² 7,1 °C 8,2 °C 0,0 km/h (0 Bft)
29.09.2019 04:16 8,2 °C 93 % 1014,9 hPa 0,0 mm 0,0 km/h (0 Bft) S-SW 195 ° 0 min 0,000 mm 0,0 UV-I 0 W/m² 7,1 °C 8,2 °C 0,0 km/h (0 Bft)
29.09.2019 04:17 8,2 °C 93 % 1014,9 hPa 0,0 mm 1,4 km/h (1 Bft) S-SW 195 ° 0 min 0,000 mm 0,0 UV-I 0 W/m² 7,1 °C 8,2 °C 3,2 km/h (1 Bft)
29.09.2019 04:18 8,2 °C 93 % 1015,0 hPa 0,0 mm 0,0 km/h (0 Bft) S-SW 195 ° 0 min 0,000 mm 0,0 UV-I 0 W/m² 7,1 °C 8,2 °C 0,0 km/h (0 Bft)
29.09.2019 04:19 8,2 °C 93 % 1015,0 hPa 0,0 mm 0,0 km/h (0 Bft) S-SW 195 ° 0 min 0,000 mm 0,0 UV-I 0 W/m² 7,1 °C 8,2 °C 0,0 km/h (0 Bft)
29.09.2019 04:20 8,2 °C 93 % 1015,0 hPa 0,0 mm 0,0 km/h (0 Bft) S-SW 195 ° 0 min 0,000 mm 0,0 UV-I 0 W/m² 7,1 °C 8,2 °C 0,0 km/h (0 Bft)
29.09.2019 04:21 8,2 °C 93 % 1015,0 hPa 0,0 mm 0,0 km/h (0 Bft) S-SW 195 ° 0 min 0,000 mm 0,0 UV-I 0 W/m² 7,1 °C 8,2 °C 0,0 km/h (0 Bft)
29.09.2019 04:22 8,1 °C 93 % 1015,0 hPa 0,0 mm 0,0 km/h (0 Bft) S-SW 195 ° 0 min 0,000 mm 0,0 UV-I 0 W/m² 7,0 °C 8,1 °C 0,0 km/h (0 Bft)
29.09.2019 04:23 8,1 °C 93 % 1015,0 hPa 0,0 mm 0,0 km/h (0 Bft) S-SW 195 ° 0 min 0,000 mm 0,0 UV-I 0 W/m² 7,0 °C 8,1 °C 0,0 km/h (0 Bft)
29.09.2019 04:24 8,1 °C 93 % 1015,0 hPa 0,0 mm 0,0 km/h (0 Bft) S-SW 195 ° 0 min 0,000 mm 0,0 UV-I 0 W/m² 7,0 °C 8,1 °C 0,0 km/h (0 Bft)
29.09.2019 04:25 8,1 °C 93 % 1015,0 hPa 0,0 mm 0,0 km/h (0 Bft) S-SW 195 ° 0 min 0,000 mm 0,0 UV-I 0 W/m² 7,0 °C 8,1 °C 0,0 km/h (0 Bft)
29.09.2019 04:26 8,1 °C 93 % 1015,0 hPa 0,0 mm 0,0 km/h (0 Bft) S-SW 195 ° 0 min 0,000 mm 0,0 UV-I 0 W/m² 7,0 °C 8,1 °C 0,0 km/h (0 Bft)
29.09.2019 04:27 8,0 °C 93 % 1014,9 hPa 0,0 mm 0,0 km/h (0 Bft) S-SW 195 ° 0 min 0,000 mm 0,0 UV-I 0 W/m² 6,9 °C 8,0 °C 0,0 km/h (0 Bft)
29.09.2019 04:28 8,0 °C 93 % 1014,9 hPa 0,0 mm 0,0 km/h (0 Bft) S-SW 195 ° 0 min 0,000 mm 0,0 UV-I 0 W/m² 6,9 °C 8,0 °C 0,0 km/h (0 Bft)
29.09.2019 04:29 8,0 °C 93 % 1014,9 hPa 0,0 mm 0,0 km/h (0 Bft) S-SW 195 ° 0 min 0,000 mm 0,0 UV-I 0 W/m² 6,9 °C 8,0 °C 0,0 km/h (0 Bft)
29.09.2019 04:30 7,9 °C 93 % 1014,8 hPa 0,0 mm 0,0 km/h (0 Bft) S-SW 195 ° 0 min 0,000 mm 0,0 UV-I 0 W/m² 6,8 °C 7,9 °C 0,0 km/h (0 Bft)
29.09.2019 04:31 7,9 °C 93 % 1014,9 hPa 0,0 mm 0,0 km/h (0 Bft) S-SW 195 ° 0 min 0,000 mm 0,0 UV-I 0 W/m² 6,8 °C 7,9 °C 0,0 km/h (0 Bft)
29.09.2019 04:32 7,8 °C 93 % 1014,8 hPa 0,0 mm 0,0 km/h (0 Bft) S-SW 195 ° 0 min 0,000 mm 0,0 UV-I 0 W/m² 6,7 °C 7,8 °C 0,0 km/h (0 Bft)
29.09.2019 04:33 7,8 °C 93 % 1014,8 hPa 0,0 mm 0,0 km/h (0 Bft) S-SW 195 ° 0 min 0,000 mm 0,0 UV-I 0 W/m² 6,7 °C 7,8 °C 0,0 km/h (0 Bft)
29.09.2019 04:34 7,8 °C 93 % 1014,7 hPa 0,0 mm 0,0 km/h (0 Bft) S-SW 195 ° 0 min 0,000 mm 0,0 UV-I 0 W/m² 6,7 °C 7,8 °C 0,0 km/h (0 Bft)
29.09.2019 04:35 7,7 °C 93 % 1014,8 hPa 0,0 mm 0,0 km/h (0 Bft) S-SW 195 ° 0 min 0,000 mm 0,0 UV-I 0 W/m² 6,6 °C 7,7 °C 0,0 km/h (0 Bft)
29.09.2019 04:36 7,7 °C 93 % 1014,8 hPa 0,0 mm 0,0 km/h (0 Bft) S-SW 195 ° 0 min 0,000 mm 0,0 UV-I 0 W/m² 6,6 °C 7,7 °C 0,0 km/h (0 Bft)
29.09.2019 04:37 7,7 °C 93 % 1014,8 hPa 0,0 mm 0,0 km/h (0 Bft) S-SW 195 ° 0 min 0,000 mm 0,0 UV-I 0 W/m² 6,6 °C 7,7 °C 0,0 km/h (0 Bft)
29.09.2019 04:38 7,8 °C 93 % 1014,8 hPa 0,0 mm 0,0 km/h (0 Bft) S-SW 195 ° 0 min 0,000 mm 0,0 UV-I 0 W/m² 6,7 °C 7,8 °C 0,0 km/h (0 Bft)
29.09.2019 04:39 7,8 °C 93 % 1014,8 hPa 0,0 mm 0,0 km/h (0 Bft) S-SW 195 ° 0 min 0,000 mm 0,0 UV-I 0 W/m² 6,7 °C 7,8 °C 0,0 km/h (0 Bft)
29.09.2019 04:40 7,7 °C 93 % 1014,7 hPa 0,0 mm 0,0 km/h (0 Bft) S-SW 195 ° 0 min 0,000 mm 0,0 UV-I 0 W/m² 6,6 °C 7,7 °C 0,0 km/h (0 Bft)
29.09.2019 04:41 7,7 °C 93 % 1014,7 hPa 0,0 mm 0,0 km/h (0 Bft) S-SW 195 ° 0 min 0,000 mm 0,0 UV-I 0 W/m² 6,6 °C 7,7 °C 0,0 km/h (0 Bft)
29.09.2019 04:42 7,7 °C 94 % 1014,7 hPa 0,0 mm 0,0 km/h (0 Bft) S-SW 195 ° 0 min 0,000 mm 0,0 UV-I 0 W/m² 6,8 °C 7,7 °C 0,0 km/h (0 Bft)
29.09.2019 04:43 7,8 °C 94 % 1014,7 hPa 0,0 mm 0,0 km/h (0 Bft) S-SW 195 ° 0 min 0,000 mm 0,0 UV-I 0 W/m² 6,9 °C 7,8 °C 0,0 km/h (0 Bft)
29.09.2019 04:44 7,8 °C 94 % 1014,7 hPa 0,0 mm 0,0 km/h (0 Bft) S-SW 195 ° 0 min 0,000 mm 0,0 UV-I 0 W/m² 6,9 °C 7,8 °C 0,0 km/h (0 Bft)
29.09.2019 04:45 7,8 °C 94 % 1014,8 hPa 0,0 mm 0,0 km/h (0 Bft) S-SW 195 ° 0 min 0,000 mm 0,0 UV-I 0 W/m² 6,9 °C 7,8 °C 0,0 km/h (0 Bft)
29.09.2019 04:46 7,8 °C 94 % 1014,8 hPa 0,0 mm 0,0 km/h (0 Bft) S-SW 195 ° 0 min 0,000 mm 0,0 UV-I 0 W/m² 6,9 °C 7,8 °C 0,0 km/h (0 Bft)
29.09.2019 04:47 7,7 °C 93 % 1014,8 hPa 0,0 mm 0,0 km/h (0 Bft) S-SW 195 ° 0 min 0,000 mm 0,0 UV-I 0 W/m² 6,6 °C 7,7 °C 0,0 km/h (0 Bft)
29.09.2019 04:48 7,7 °C 93 % 1014,8 hPa 0,0 mm 0,0 km/h (0 Bft) S-SW 195 ° 0 min 0,000 mm 0,0 UV-I 0 W/m² 6,6 °C 7,7 °C 0,0 km/h (0 Bft)
29.09.2019 04:49 7,6 °C 93 % 1014,8 hPa 0,0 mm 0,0 km/h (0 Bft) S-SW 195 ° 0 min 0,000 mm 0,0 UV-I 0 W/m² 6,5 °C 7,6 °C 0,0 km/h (0 Bft)
29.09.2019 04:50 7,6 °C 93 % 1014,8 hPa 0,0 mm 0,0 km/h (0 Bft) S-SW 195 ° 0 min 0,000 mm 0,0 UV-I 0 W/m² 6,5 °C 7,6 °C 0,0 km/h (0 Bft)
29.09.2019 04:51 7,6 °C 93 % 1014,8 hPa 0,0 mm 0,0 km/h (0 Bft) S-SW 195 ° 0 min 0,000 mm 0,0 UV-I 0 W/m² 6,5 °C 7,6 °C 0,0 km/h (0 Bft)
29.09.2019 04:52 7,6 °C 93 % 1014,8 hPa 0,0 mm 0,0 km/h (0 Bft) S-SW 195 ° 0 min 0,000 mm 0,0 UV-I 0 W/m² 6,5 °C 7,6 °C 0,0 km/h (0 Bft)
29.09.2019 04:53 7,5 °C 93 % 1014,8 hPa 0,0 mm 0,0 km/h (0 Bft) S-SW 195 ° 0 min 0,000 mm 0,0 UV-I 0 W/m² 6,4 °C 7,5 °C 0,0 km/h (0 Bft)
29.09.2019 04:54 7,4 °C 93 % 1014,8 hPa 0,0 mm 0,0 km/h (0 Bft) S-SW 195 ° 0 min 0,000 mm 0,0 UV-I 0 W/m² 6,3 °C 7,4 °C 0,0 km/h (0 Bft)
29.09.2019 04:55 7,4 °C 94 % 1014,8 hPa 0,0 mm 0,0 km/h (0 Bft) S-SW 195 ° 0 min 0,000 mm 0,0 UV-I 0 W/m² 6,5 °C 7,4 °C 0,0 km/h (0 Bft)
29.09.2019 04:56 7,4 °C 93 % 1014,8 hPa 0,0 mm 0,0 km/h (0 Bft) S-SW 195 ° 0 min 0,000 mm 0,0 UV-I 0 W/m² 6,3 °C 7,4 °C 0,0 km/h (0 Bft)
29.09.2019 04:57 7,4 °C 94 % 1014,8 hPa 0,0 mm 0,0 km/h (0 Bft) S-SW 195 ° 0 min 0,000 mm 0,0 UV-I 0 W/m² 6,5 °C 7,4 °C 0,0 km/h (0 Bft)
29.09.2019 04:58 7,4 °C 94 % 1014,8 hPa 0,0 mm 0,0 km/h (0 Bft) S-SW 195 ° 0 min 0,000 mm 0,0 UV-I 0 W/m² 6,5 °C 7,4 °C 0,0 km/h (0 Bft)
29.09.2019 04:59 7,3 °C 94 % 1014,8 hPa 0,0 mm 0,0 km/h (0 Bft) S-SW 195 ° 0 min 0,000 mm 0,0 UV-I 0 W/m² 6,4 °C 7,3 °C 0,0 km/h (0 Bft)
29.09.2019 05:00 7,3 °C 93 % 1014,8 hPa 0,0 mm 0,0 km/h (0 Bft) S-SW 195 ° 0 min 0,000 mm 0,0 UV-I 0 W/m² 6,2 °C 7,3 °C 0,0 km/h (0 Bft)
29.09.2019 05:01 7,2 °C 93 % 1014,8 hPa 0,0 mm 0,0 km/h (0 Bft) S-SW 195 ° 0 min 0,000 mm 0,0 UV-I 0 W/m² 6,1 °C 7,2 °C 0,0 km/h (0 Bft)
29.09.2019 05:02 7,2 °C 94 % 1014,8 hPa 0,0 mm 0,0 km/h (0 Bft) S-SW 195 ° 0 min 0,000 mm 0,0 UV-I 0 W/m² 6,3 °C 7,2 °C 0,0 km/h (0 Bft)
29.09.2019 05:03 7,2 °C 94 % 1014,9 hPa 0,0 mm 0,0 km/h (0 Bft) S-SW 195 ° 0 min 0,000 mm 0,0 UV-I 0 W/m² 6,3 °C 7,2 °C 0,0 km/h (0 Bft)
29.09.2019 05:04 7,2 °C 94 % 1014,9 hPa 0,0 mm 0,0 km/h (0 Bft) S-SW 195 ° 0 min 0,000 mm 0,0 UV-I 0 W/m² 6,3 °C 7,2 °C 0,0 km/h (0 Bft)
29.09.2019 05:05 7,2 °C 94 % 1014,9 hPa 0,0 mm 0,0 km/h (0 Bft) S-SW 195 ° 0 min 0,000 mm 0,0 UV-I 0 W/m² 6,3 °C 7,2 °C 0,0 km/h (0 Bft)
29.09.2019 05:06 7,1 °C 94 % 1014,9 hPa 0,0 mm 0,0 km/h (0 Bft) S-SW 195 ° 0 min 0,000 mm 0,0 UV-I 0 W/m² 6,2 °C 7,1 °C 0,0 km/h (0 Bft)
29.09.2019 05:07 7,1 °C 94 % 1014,9 hPa 0,0 mm 0,0 km/h (0 Bft) S-SW 195 ° 0 min 0,000 mm 0,0 UV-I 0 W/m² 6,2 °C 7,1 °C 0,0 km/h (0 Bft)
29.09.2019 05:08 7,0 °C 94 % 1014,9 hPa 0,0 mm 0,0 km/h (0 Bft) S-SW 195 ° 0 min 0,000 mm 0,0 UV-I 0 W/m² 6,1 °C 7,0 °C 0,0 km/h (0 Bft)
29.09.2019 05:09 7,1 °C 94 % 1014,9 hPa 0,0 mm 0,0 km/h (0 Bft) S-SW 195 ° 0 min 0,000 mm 0,0 UV-I 0 W/m² 6,2 °C 7,1 °C 0,0 km/h (0 Bft)
29.09.2019 05:10 7,1 °C 94 % 1014,9 hPa 0,0 mm 0,0 km/h (0 Bft) S-SW 195 ° 0 min 0,000 mm 0,0 UV-I 0 W/m² 6,2 °C 7,1 °C 0,0 km/h (0 Bft)
29.09.2019 05:11 7,0 °C 94 % 1014,8 hPa 0,2 mm 0,0 km/h (0 Bft) S-SW 195 ° 0 min 0,000 mm 0,0 UV-I 0 W/m² 6,1 °C 7,0 °C 0,0 km/h (0 Bft)
29.09.2019 05:12 7,1 °C 94 % 1014,8 hPa 0,0 mm 0,0 km/h (0 Bft) S-SW 195 ° 0 min 0,000 mm 0,0 UV-I 0 W/m² 6,2 °C 7,1 °C 0,0 km/h (0 Bft)
29.09.2019 05:13 7,1 °C 94 % 1014,8 hPa 0,0 mm 0,0 km/h (0 Bft) S-SW 195 ° 0 min 0,000 mm 0,0 UV-I 0 W/m² 6,2 °C 7,1 °C 0,0 km/h (0 Bft)
29.09.2019 05:14 7,0 °C 94 % 1014,8 hPa 0,0 mm 0,0 km/h (0 Bft) S-SW 195 ° 0 min 0,000 mm 0,0 UV-I 0 W/m² 6,1 °C 7,0 °C 0,0 km/h (0 Bft)
29.09.2019 05:15 7,0 °C 94 % 1014,8 hPa 0,0 mm 0,0 km/h (0 Bft) S-SW 195 ° 0 min 0,000 mm 0,0 UV-I 0 W/m² 6,1 °C 7,0 °C 0,0 km/h (0 Bft)
29.09.2019 05:16 7,1 °C 94 % 1014,8 hPa 0,0 mm 0,0 km/h (0 Bft) S-SW 195 ° 0 min 0,000 mm 0,0 UV-I 0 W/m² 6,2 °C 7,1 °C 0,0 km/h (0 Bft)
29.09.2019 05:17 7,1 °C 94 % 1014,7 hPa 0,0 mm 0,0 km/h (0 Bft) S-SW 195 ° 0 min 0,000 mm 0,0 UV-I 0 W/m² 6,2 °C 7,1 °C 0,0 km/h (0 Bft)
29.09.2019 05:18 7,1 °C 94 % 1014,8 hPa 0,0 mm 0,0 km/h (0 Bft) S-SW 195 ° 0 min 0,000 mm 0,0 UV-I 0 W/m² 6,2 °C 7,1 °C 0,0 km/h (0 Bft)
29.09.2019 05:19 7,1 °C 94 % 1014,8 hPa 0,0 mm 0,0 km/h (0 Bft) S-SW 195 ° 0 min 0,000 mm 0,0 UV-I 0 W/m² 6,2 °C 7,1 °C 0,0 km/h (0 Bft)
29.09.2019 05:20 7,0 °C 94 % 1014,8 hPa 0,0 mm 0,0 km/h (0 Bft) S-SW 195 ° 0 min 0,000 mm 0,0 UV-I 0 W/m² 6,1 °C 7,0 °C 0,0 km/h (0 Bft)
29.09.2019 05:21 6,9 °C 94 % 1014,8 hPa 0,0 mm 0,0 km/h (0 Bft) S-SW 195 ° 0 min 0,000 mm 0,0 UV-I 0 W/m² 6,0 °C 6,9 °C 0,0 km/h (0 Bft)
29.09.2019 05:22 6,8 °C 94 % 1014,7 hPa 0,0 mm 0,0 km/h (0 Bft) S-SW 195 ° 0 min 0,000 mm 0,0 UV-I 0 W/m² 5,9 °C 6,8 °C 0,0 km/h (0 Bft)
29.09.2019 05:23 6,8 °C 94 % 1014,7 hPa 0,0 mm 0,0 km/h (0 Bft) S-SW 195 ° 0 min 0,000 mm 0,0 UV-I 0 W/m² 5,9 °C 6,8 °C 0,0 km/h (0 Bft)
29.09.2019 05:24 6,7 °C 94 % 1014,7 hPa 0,0 mm 0,0 km/h (0 Bft) S-SW 195 ° 0 min 0,000 mm 0,0 UV-I 0 W/m² 5,8 °C 6,7 °C 0,0 km/h (0 Bft)
29.09.2019 05:25 6,7 °C 94 % 1014,7 hPa 0,0 mm 0,0 km/h (0 Bft) S-SW 195 ° 0 min 0,000 mm 0,0 UV-I 0 W/m² 5,8 °C 6,7 °C 0,0 km/h (0 Bft)
29.09.2019 05:26 6,7 °C 94 % 1014,7 hPa 0,0 mm 0,0 km/h (0 Bft) S-SW 195 ° 0 min 0,000 mm 0,0 UV-I 0 W/m² 5,8 °C 6,7 °C 0,0 km/h (0 Bft)
29.09.2019 05:27 6,7 °C 94 % 1014,7 hPa 0,0 mm 0,0 km/h (0 Bft) S-SW 195 ° 0 min 0,000 mm 0,0 UV-I 0 W/m² 5,8 °C 6,7 °C 0,0 km/h (0 Bft)
29.09.2019 05:28 6,7 °C 94 % 1014,8 hPa 0,0 mm 0,0 km/h (0 Bft) S-SW 195 ° 0 min 0,000 mm 0,0 UV-I 0 W/m² 5,8 °C 6,7 °C 0,0 km/h (0 Bft)
29.09.2019 05:29 6,7 °C 94 % 1014,8 hPa 0,0 mm 0,0 km/h (0 Bft) S-SW 195 ° 0 min 0,000 mm 0,0 UV-I 0 W/m² 5,8 °C 6,7 °C 0,0 km/h (0 Bft)
29.09.2019 05:30 6,8 °C 94 % 1014,7 hPa 0,0 mm 0,0 km/h (0 Bft) S-SW 195 ° 0 min 0,000 mm 0,0 UV-I 0 W/m² 5,9 °C 6,8 °C 0,0 km/h (0 Bft)
29.09.2019 05:31 6,9 °C 95 % 1014,8 hPa 0,0 mm 0,0 km/h (0 Bft) S-SW 195 ° 0 min 0,000 mm 0,0 UV-I 0 W/m² 6,2 °C 6,9 °C 0,0 km/h (0 Bft)
29.09.2019 05:32 6,9 °C 95 % 1014,7 hPa 0,0 mm 0,0 km/h (0 Bft) S-SW 195 ° 0 min 0,000 mm 0,0 UV-I 0 W/m² 6,2 °C 6,9 °C 0,0 km/h (0 Bft)
29.09.2019 05:33 6,9 °C 95 % 1014,7 hPa 0,0 mm 0,0 km/h (0 Bft) S-SW 195 ° 0 min 0,000 mm 0,0 UV-I 0 W/m² 6,2 °C 6,9 °C 0,0 km/h (0 Bft)
29.09.2019 05:34 6,9 °C 94 % 1014,7 hPa 0,0 mm 0,0 km/h (0 Bft) S-SW 195 ° 0 min 0,000 mm 0,0 UV-I 0 W/m² 6,0 °C 6,9 °C 0,0 km/h (0 Bft)
29.09.2019 05:35 6,8 °C 94 % 1014,7 hPa 0,0 mm 0,0 km/h (0 Bft) S-SW 195 ° 0 min 0,000 mm 0,0 UV-I 0 W/m² 5,9 °C 6,8 °C 0,0 km/h (0 Bft)
29.09.2019 05:36 6,8 °C 94 % 1014,7 hPa 0,0 mm 0,0 km/h (0 Bft) S-SW 195 ° 0 min 0,000 mm 0,0 UV-I 0 W/m² 5,9 °C 6,8 °C 0,0 km/h (0 Bft)
29.09.2019 05:37 6,8 °C 94 % 1014,7 hPa 0,0 mm 0,0 km/h (0 Bft) S-SW 195 ° 0 min 0,000 mm 0,0 UV-I 0 W/m² 5,9 °C 6,8 °C 0,0 km/h (0 Bft)
29.09.2019 05:38 6,8 °C 94 % 1014,7 hPa 0,0 mm 0,0 km/h (0 Bft) S-SW 195 ° 0 min 0,000 mm 0,0 UV-I 0 W/m² 5,9 °C 6,8 °C 0,0 km/h (0 Bft)
29.09.2019 05:39 6,8 °C 94 % 1014,7 hPa 0,0 mm 0,0 km/h (0 Bft) S-SW 195 ° 0 min 0,000 mm 0,0 UV-I 0 W/m² 5,9 °C 6,8 °C 0,0 km/h (0 Bft)
29.09.2019 05:40 6,7 °C 94 % 1014,7 hPa 0,0 mm 0,0 km/h (0 Bft) S-SW 195 ° 0 min 0,000 mm 0,0 UV-I 0 W/m² 5,8 °C 6,7 °C 0,0 km/h (0 Bft)
29.09.2019 05:41 6,7 °C 94 % 1014,6 hPa 0,0 mm 0,0 km/h (0 Bft) S-SW 195 ° 0 min 0,000 mm 0,0 UV-I 0 W/m² 5,8 °C 6,7 °C 0,0 km/h (0 Bft)
29.09.2019 05:42 6,7 °C 94 % 1014,6 hPa 0,0 mm 0,0 km/h (0 Bft) S-SW 195 ° 0 min 0,000 mm 0,0 UV-I 0 W/m² 5,8 °C 6,7 °C 0,0 km/h (0 Bft)
29.09.2019 05:43 6,7 °C 94 % 1014,6 hPa 0,0 mm 0,0 km/h (0 Bft) S-SW 195 ° 0 min 0,000 mm 0,0 UV-I 0 W/m² 5,8 °C 6,7 °C 0,0 km/h (0 Bft)
29.09.2019 05:44 6,7 °C 94 % 1014,6 hPa 0,0 mm 0,0 km/h (0 Bft) S-SW 195 ° 0 min 0,000 mm 0,0 UV-I 0 W/m² 5,8 °C 6,7 °C 0,0 km/h (0 Bft)
29.09.2019 05:45 6,7 °C 94 % 1014,6 hPa 0,0 mm 0,0 km/h (0 Bft) S-SW 195 ° 0 min 0,000 mm 0,0 UV-I 0 W/m² 5,8 °C 6,7 °C 0,0 km/h (0 Bft)
29.09.2019 05:46 6,7 °C 94 % 1014,6 hPa 0,0 mm 0,0 km/h (0 Bft) S-SW 195 ° 0 min 0,000 mm 0,0 UV-I 0 W/m² 5,8 °C 6,7 °C 0,0 km/h (0 Bft)
29.09.2019 05:47 6,7 °C 94 % 1014,6 hPa 0,0 mm 0,0 km/h (0 Bft) S-SW 195 ° 0 min 0,000 mm 0,0 UV-I 0 W/m² 5,8 °C 6,7 °C 0,0 km/h (0 Bft)
29.09.2019 05:48 6,7 °C 94 % 1014,6 hPa 0,0 mm 0,0 km/h (0 Bft) S-SW 195 ° 0 min 0,000 mm 0,0 UV-I 0 W/m² 5,8 °C 6,7 °C 0,0 km/h (0 Bft)
29.09.2019 05:49 6,7 °C 94 % 1014,6 hPa 0,0 mm 0,0 km/h (0 Bft) S-SW 195 ° 0 min 0,000 mm 0,0 UV-I 0 W/m² 5,8 °C 6,7 °C 0,0 km/h (0 Bft)
29.09.2019 05:50 6,6 °C 94 % 1014,6 hPa 0,0 mm 0,0 km/h (0 Bft) S-SW 195 ° 0 min 0,000 mm 0,0 UV-I 0 W/m² 5,7 °C 6,6 °C 0,0 km/h (0 Bft)
29.09.2019 05:51 6,6 °C 94 % 1014,6 hPa 0,0 mm 0,0 km/h (0 Bft) S-SW 195 ° 0 min 0,000 mm 0,0 UV-I 0 W/m² 5,7 °C 6,6 °C 0,0 km/h (0 Bft)
29.09.2019 05:52 6,6 °C 94 % 1014,5 hPa 0,0 mm 0,0 km/h (0 Bft) S-SW 195 ° 0 min 0,000 mm 0,0 UV-I 0 W/m² 5,7 °C 6,6 °C 0,0 km/h (0 Bft)
29.09.2019 05:53 6,6 °C 94 % 1014,4 hPa 0,0 mm 0,0 km/h (0 Bft) S-SW 195 ° 0 min 0,000 mm 0,0 UV-I 0 W/m² 5,7 °C 6,6 °C 0,0 km/h (0 Bft)
29.09.2019 05:54 6,6 °C 94 % 1014,4 hPa 0,0 mm 0,0 km/h (0 Bft) S-SW 195 ° 0 min 0,000 mm 0,0 UV-I 0 W/m² 5,7 °C 6,6 °C 0,0 km/h (0 Bft)
29.09.2019 05:55 6,4 °C 94 % 1014,4 hPa 0,0 mm 0,0 km/h (0 Bft) S-SW 195 ° 0 min 0,000 mm 0,0 UV-I 0 W/m² 5,5 °C 6,4 °C 0,0 km/h (0 Bft)
29.09.2019 05:56 6,4 °C 94 % 1014,4 hPa 0,0 mm 0,0 km/h (0 Bft) S-SW 195 ° 0 min 0,000 mm 0,0 UV-I 0 W/m² 5,5 °C 6,4 °C 0,0 km/h (0 Bft)
29.09.2019 05:57 6,4 °C 94 % 1014,3 hPa 0,0 mm 0,0 km/h (0 Bft) S-SW 195 ° 0 min 0,000 mm 0,0 UV-I 0 W/m² 5,5 °C 6,4 °C 0,0 km/h (0 Bft)
29.09.2019 05:58 6,4 °C 94 % 1014,3 hPa 0,0 mm 0,0 km/h (0 Bft) S-SW 195 ° 0 min 0,000 mm 0,0 UV-I 0 W/m² 5,5 °C 6,4 °C 0,0 km/h (0 Bft)
29.09.2019 05:59 6,4 °C 94 % 1014,3 hPa 0,0 mm 0,0 km/h (0 Bft) S-SW 195 ° 0 min 0,000 mm 0,0 UV-I 0 W/m² 5,5 °C 6,4 °C 0,0 km/h (0 Bft)
29.09.2019 06:00 6,4 °C 94 % 1014,3 hPa 0,0 mm 0,0 km/h (0 Bft) S-SW 195 ° 0 min 0,000 mm 0,0 UV-I 0 W/m² 5,5 °C 6,4 °C 0,0 km/h (0 Bft)
29.09.2019 06:01 6,4 °C 94 % 1014,3 hPa 0,0 mm 0,0 km/h (0 Bft) S-SW 195 ° 0 min 0,000 mm 0,0 UV-I 0 W/m² 5,5 °C 6,4 °C 0,0 km/h (0 Bft)
29.09.2019 06:02 6,4 °C 94 % 1014,3 hPa 0,0 mm 0,0 km/h (0 Bft) S-SW 195 ° 0 min 0,000 mm 0,0 UV-I 0 W/m² 5,5 °C 6,4 °C 0,0 km/h (0 Bft)
29.09.2019 06:03 6,4 °C 94 % 1014,2 hPa 0,0 mm 0,0 km/h (0 Bft) S-SW 195 ° 0 min 0,000 mm 0,0 UV-I 0 W/m² 5,5 °C 6,4 °C 0,0 km/h (0 Bft)
29.09.2019 06:04 6,4 °C 94 % 1014,2 hPa 0,0 mm 0,0 km/h (0 Bft) S-SW 195 ° 0 min 0,000 mm 0,0 UV-I 0 W/m² 5,5 °C 6,4 °C 0,0 km/h (0 Bft)
29.09.2019 06:05 6,4 °C 94 % 1014,2 hPa 0,0 mm 0,0 km/h (0 Bft) S-SW 195 ° 0 min 0,000 mm 0,0 UV-I 0 W/m² 5,5 °C 6,4 °C 0,0 km/h (0 Bft)
29.09.2019 06:06 6,4 °C 94 % 1014,2 hPa 0,0 mm 0,0 km/h (0 Bft) S-SW 195 ° 0 min 0,000 mm 0,0 UV-I 0 W/m² 5,5 °C 6,4 °C 0,0 km/h (0 Bft)
29.09.2019 06:07 6,4 °C 94 % 1014,2 hPa 0,0 mm 0,0 km/h (0 Bft) S-SW 195 ° 0 min 0,000 mm 0,0 UV-I 0 W/m² 5,5 °C 6,4 °C 0,0 km/h (0 Bft)
29.09.2019 06:08 6,4 °C 94 % 1014,2 hPa 0,0 mm 0,0 km/h (0 Bft) S-SW 195 ° 0 min 0,000 mm 0,0 UV-I 0 W/m² 5,5 °C 6,4 °C 0,0 km/h (0 Bft)
29.09.2019 06:09 6,4 °C 94 % 1014,2 hPa 0,0 mm 0,0 km/h (0 Bft) S-SW 195 ° 0 min 0,000 mm 0,0 UV-I 0 W/m² 5,5 °C 6,4 °C 0,0 km/h (0 Bft)
29.09.2019 06:10 6,4 °C 94 % 1014,2 hPa 0,0 mm 0,0 km/h (0 Bft) S-SW 195 ° 0 min 0,000 mm 0,0 UV-I 0 W/m² 5,5 °C 6,4 °C 0,0 km/h (0 Bft)
29.09.2019 06:11 6,4 °C 95 % 1014,2 hPa 0,0 mm 0,0 km/h (0 Bft) S-SW 195 ° 0 min 0,000 mm 0,0 UV-I 0 W/m² 5,7 °C 6,4 °C 0,0 km/h (0 Bft)
29.09.2019 06:12 6,4 °C 95 % 1014,2 hPa 0,0 mm 0,0 km/h (0 Bft) S-SW 195 ° 0 min 0,000 mm 0,0 UV-I 0 W/m² 5,7 °C 6,4 °C 0,0 km/h (0 Bft)
29.09.2019 06:13 6,4 °C 95 % 1014,2 hPa 0,0 mm 0,0 km/h (0 Bft) S-SW 195 ° 0 min 0,000 mm 0,0 UV-I 0 W/m² 5,7 °C 6,4 °C 0,0 km/h (0 Bft)
29.09.2019 06:14 6,4 °C 95 % 1014,2 hPa 0,0 mm 0,0 km/h (0 Bft) S-SW 195 ° 0 min 0,000 mm 0,0 UV-I 0 W/m² 5,7 °C 6,4 °C 0,0 km/h (0 Bft)
29.09.2019 06:15 6,4 °C 95 % 1014,2 hPa 0,0 mm 0,0 km/h (0 Bft) S-SW 195 ° 0 min 0,000 mm 0,0 UV-I 0 W/m² 5,7 °C 6,4 °C 0,0 km/h (0 Bft)
29.09.2019 06:16 6,4 °C 95 % 1014,2 hPa 0,0 mm 0,0 km/h (0 Bft) S-SW 195 ° 0 min 0,000 mm 0,0 UV-I 0 W/m² 5,7 °C 6,4 °C 0,0 km/h (0 Bft)
29.09.2019 06:17 6,3 °C 95 % 1014,2 hPa 0,0 mm 0,0 km/h (0 Bft) S-SW 195 ° 0 min 0,000 mm 0,0 UV-I 0 W/m² 5,6 °C 6,3 °C 0,0 km/h (0 Bft)
29.09.2019 06:18 6,3 °C 95 % 1014,2 hPa 0,0 mm 0,0 km/h (0 Bft) S-SW 195 ° 0 min 0,000 mm 0,0 UV-I 0 W/m² 5,6 °C 6,3 °C 0,0 km/h (0 Bft)
29.09.2019 06:19 6,3 °C 95 % 1014,2 hPa 0,0 mm 0,0 km/h (0 Bft) S-SW 195 ° 0 min 0,000 mm 0,0 UV-I 0 W/m² 5,6 °C 6,3 °C 0,0 km/h (0 Bft)
29.09.2019 06:20 6,3 °C 95 % 1014,2 hPa 0,0 mm 0,0 km/h (0 Bft) S-SW 195 ° 0 min 0,000 mm 0,0 UV-I 0 W/m² 5,6 °C 6,3 °C 0,0 km/h (0 Bft)
29.09.2019 06:21 6,3 °C 95 % 1014,2 hPa 0,0 mm 0,0 km/h (0 Bft) S-SW 195 ° 0 min 0,000 mm 0,0 UV-I 0 W/m² 5,6 °C 6,3 °C 0,0 km/h (0 Bft)
29.09.2019 06:22 6,3 °C 95 % 1014,2 hPa 0,0 mm 0,0 km/h (0 Bft) S-SW 195 ° 0 min 0,000 mm 0,0 UV-I 0 W/m² 5,6 °C 6,3 °C 0,0 km/h (0 Bft)
29.09.2019 06:23 6,3 °C 95 % 1014,1 hPa 0,0 mm 0,0 km/h (0 Bft) S-SW 195 ° 0 min 0,000 mm 0,0 UV-I 0 W/m² 5,6 °C 6,3 °C 0,0 km/h (0 Bft)
29.09.2019 06:24 6,4 °C 95 % 1014,1 hPa 0,0 mm 0,0 km/h (0 Bft) S-SW 195 ° 0 min 0,000 mm 0,0 UV-I 0 W/m² 5,7 °C 6,4 °C 0,0 km/h (0 Bft)
29.09.2019 06:25 6,4 °C 95 % 1014,1 hPa 0,0 mm 0,0 km/h (0 Bft) S-SW 195 ° 0 min 0,000 mm 0,0 UV-I 0 W/m² 5,7 °C 6,4 °C 0,0 km/h (0 Bft)
29.09.2019 06:26 6,4 °C 95 % 1014,1 hPa 0,0 mm 0,0 km/h (0 Bft) S-SW 195 ° 0 min 0,000 mm 0,0 UV-I 0 W/m² 5,7 °C 6,4 °C 0,0 km/h (0 Bft)
29.09.2019 06:27 6,4 °C 95 % 1014,1 hPa 0,0 mm 0,0 km/h (0 Bft) S-SW 195 ° 0 min 0,000 mm 0,0 UV-I 0 W/m² 5,7 °C 6,4 °C 0,0 km/h (0 Bft)
29.09.2019 06:28 6,4 °C 95 % 1014,1 hPa 0,0 mm 0,0 km/h (0 Bft) S-SW 195 ° 0 min 0,000 mm 0,0 UV-I 0 W/m² 5,7 °C 6,4 °C 0,0 km/h (0 Bft)
29.09.2019 06:29 6,4 °C 95 % 1014,1 hPa 0,0 mm 0,0 km/h (0 Bft) S-SW 195 ° 0 min 0,000 mm 0,0 UV-I 0 W/m² 5,7 °C 6,4 °C 0,0 km/h (0 Bft)
29.09.2019 06:30 6,4 °C 95 % 1014,0 hPa 0,0 mm 0,0 km/h (0 Bft) S-SW 195 ° 0 min 0,000 mm 0,0 UV-I 0 W/m² 5,7 °C 6,4 °C 0,0 km/h (0 Bft)
29.09.2019 06:31 6,5 °C 95 % 1014,0 hPa 0,0 mm 0,0 km/h (0 Bft) S-SW 195 ° 0 min 0,000 mm 0,0 UV-I 0 W/m² 5,8 °C 6,5 °C 0,0 km/h (0 Bft)
29.09.2019 06:32 6,5 °C 95 % 1014,0 hPa 0,2 mm 0,0 km/h (0 Bft) S-SW 195 ° 0 min 0,000 mm 0,0 UV-I 0 W/m² 5,8 °C 6,5 °C 0,0 km/h (0 Bft)
29.09.2019 06:33 6,6 °C 95 % 1013,9 hPa 0,0 mm 0,0 km/h (0 Bft) S-SW 195 ° 0 min 0,000 mm 0,0 UV-I 0 W/m² 5,9 °C 6,6 °C 0,0 km/h (0 Bft)
29.09.2019 06:34 6,5 °C 95 % 1013,9 hPa 0,0 mm 0,0 km/h (0 Bft) S-SW 195 ° 0 min 0,000 mm 0,0 UV-I 0 W/m² 5,8 °C 6,5 °C 0,0 km/h (0 Bft)
29.09.2019 06:35 6,6 °C 95 % 1014,0 hPa 0,0 mm 0,1 km/h (0 Bft) S-SW 195 ° 0 min 0,000 mm 0,0 UV-I 0 W/m² 5,9 °C 6,6 °C 1,6 km/h (1 Bft)
29.09.2019 06:36 6,6 °C 95 % 1013,9 hPa 0,0 mm 0,0 km/h (0 Bft) S-SW 195 ° 0 min 0,000 mm 0,0 UV-I 0 W/m² 5,9 °C 6,6 °C 0,0 km/h (0 Bft)
29.09.2019 06:37 6,6 °C 95 % 1013,9 hPa 0,0 mm 0,0 km/h (0 Bft) S-SW 195 ° 0 min 0,000 mm 0,0 UV-I 0 W/m² 5,9 °C 6,6 °C 0,0 km/h (0 Bft)
29.09.2019 06:38 6,6 °C 95 % 1014,0 hPa 0,0 mm 0,0 km/h (0 Bft) S-SW 195 ° 0 min 0,000 mm 0,0 UV-I 0 W/m² 5,9 °C 6,6 °C 0,0 km/h (0 Bft)
29.09.2019 06:39 6,6 °C 95 % 1014,0 hPa 0,0 mm 0,0 km/h (0 Bft) S-SW 195 ° 0 min 0,000 mm 0,0 UV-I 0 W/m² 5,9 °C 6,6 °C 0,0 km/h (0 Bft)
29.09.2019 06:40 6,6 °C 95 % 1014,0 hPa 0,0 mm 0,0 km/h (0 Bft) S-SW 195 ° 0 min 0,000 mm 0,0 UV-I 0 W/m² 5,9 °C 6,6 °C 0,0 km/h (0 Bft)
29.09.2019 06:41 6,7 °C 95 % 1014,0 hPa 0,0 mm 0,0 km/h (0 Bft) S-SW 195 ° 0 min 0,000 mm 0,0 UV-I 0 W/m² 6,0 °C 6,7 °C 0,0 km/h (0 Bft)
29.09.2019 06:42 6,7 °C 95 % 1013,9 hPa 0,0 mm 0,0 km/h (0 Bft) S-SW 195 ° 0 min 0,000 mm 0,0 UV-I 0 W/m² 6,0 °C 6,7 °C 0,0 km/h (0 Bft)
29.09.2019 06:43 6,7 °C 95 % 1013,9 hPa 0,0 mm 0,0 km/h (0 Bft) S-SW 195 ° 0 min 0,000 mm 0,0 UV-I 0 W/m² 6,0 °C 6,7 °C 0,0 km/h (0 Bft)
29.09.2019 06:44 6,7 °C 95 % 1013,9 hPa 0,0 mm 0,0 km/h (0 Bft) S-SW 195 ° 0 min 0,000 mm 0,0 UV-I 0 W/m² 6,0 °C 6,7 °C 0,0 km/h (0 Bft)
29.09.2019 06:45 6,7 °C 95 % 1013,8 hPa 0,0 mm 0,0 km/h (0 Bft) S-SW 195 ° 0 min 0,000 mm 0,0 UV-I 0 W/m² 6,0 °C 6,7 °C 0,0 km/h (0 Bft)
29.09.2019 06:46 6,7 °C 95 % 1013,8 hPa 0,0 mm 0,0 km/h (0 Bft) S-SW 195 ° 0 min 0,000 mm 0,0 UV-I 0 W/m² 6,0 °C 6,7 °C 0,0 km/h (0 Bft)
29.09.2019 06:47 6,7 °C 95 % 1013,8 hPa 0,0 mm 0,3 km/h (0 Bft) S-SW 195 ° 0 min 0,000 mm 0,0 UV-I 0 W/m² 6,0 °C 6,7 °C 1,6 km/h (1 Bft)
29.09.2019 06:48 6,7 °C 95 % 1013,8 hPa 0,0 mm 0,3 km/h (0 Bft) SW 234 ° 0 min 0,000 mm 0,0 UV-I 0 W/m² 6,0 °C 6,7 °C 1,6 km/h (1 Bft)
29.09.2019 06:49 6,8 °C 95 % 1013,8 hPa 0,0 mm 0,9 km/h (0 Bft) W 275 ° 0 min 0,000 mm 0,0 UV-I 0 W/m² 6,1 °C 6,8 °C 3,2 km/h (1 Bft)
29.09.2019 06:50 6,8 °C 95 % 1013,8 hPa 0,0 mm 0,0 km/h (0 Bft) W 275 ° 0 min 0,000 mm 0,0 UV-I 0 W/m² 6,1 °C 6,8 °C 0,0 km/h (0 Bft)
29.09.2019 06:51 6,8 °C 95 % 1013,9 hPa 0,0 mm 0,0 km/h (0 Bft) W 275 ° 0 min 0,000 mm 0,0 UV-I 0 W/m² 6,1 °C 6,8 °C 0,0 km/h (0 Bft)
29.09.2019 06:52 6,8 °C 95 % 1013,9 hPa 0,0 mm 0,0 km/h (0 Bft) W 275 ° 0 min 0,000 mm 0,0 UV-I 0 W/m² 6,1 °C 6,8 °C 0,0 km/h (0 Bft)
29.09.2019 06:53 6,8 °C 95 % 1013,8 hPa 0,0 mm 0,0 km/h (0 Bft) W 275 ° 0 min 0,000 mm 0,0 UV-I 0 W/m² 6,1 °C 6,8 °C 0,0 km/h (0 Bft)
29.09.2019 06:54 6,8 °C 95 % 1013,8 hPa 0,0 mm 0,0 km/h (0 Bft) W 275 ° 0 min 0,000 mm 0,0 UV-I 0 W/m² 6,1 °C 6,8 °C 0,0 km/h (0 Bft)
29.09.2019 06:55 6,8 °C 95 % 1013,9 hPa 0,0 mm 0,0 km/h (0 Bft) W 275 ° 0 min 0,000 mm 0,0 UV-I 0 W/m² 6,1 °C 6,8 °C 0,0 km/h (0 Bft)
29.09.2019 06:56 6,8 °C 95 % 1013,8 hPa 0,0 mm 0,0 km/h (0 Bft) W 275 ° 0 min 0,000 mm 0,0 UV-I 0 W/m² 6,1 °C 6,8 °C 0,0 km/h (0 Bft)
29.09.2019 06:57 6,8 °C 95 % 1013,9 hPa 0,0 mm 0,0 km/h (0 Bft) W 275 ° 0 min 0,000 mm 0,0 UV-I 0 W/m² 6,1 °C 6,8 °C 0,0 km/h (0 Bft)
29.09.2019 06:58 6,9 °C 95 % 1013,9 hPa 0,0 mm 1,3 km/h (1 Bft) W 275 ° 0 min 0,000 mm 0,0 UV-I 0 W/m² 6,2 °C 6,9 °C 3,2 km/h (1 Bft)
29.09.2019 06:59 6,9 °C 95 % 1013,9 hPa 0,0 mm 1,8 km/h (1 Bft) W 275 ° 0 min 0,000 mm 0,0 UV-I 0 W/m² 6,2 °C 6,9 °C 3,2 km/h (1 Bft)
29.09.2019 07:00 6,9 °C 95 % 1013,9 hPa 0,0 mm 0,0 km/h (0 Bft) W 275 ° 0 min 0,000 mm 0,0 UV-I 0 W/m² 6,2 °C 6,9 °C 0,0 km/h (0 Bft)
29.09.2019 07:01 6,9 °C 95 % 1013,9 hPa 0,0 mm 0,0 km/h (0 Bft) W 275 ° 0 min 0,000 mm 0,0 UV-I 0 W/m² 6,2 °C 6,9 °C 0,0 km/h (0 Bft)
29.09.2019 07:02 6,8 °C 95 % 1013,8 hPa 0,0 mm 0,0 km/h (0 Bft) W 275 ° 0 min 0,000 mm 0,0 UV-I 0 W/m² 6,1 °C 6,8 °C 0,0 km/h (0 Bft)
29.09.2019 07:03 6,8 °C 95 % 1013,9 hPa 0,0 mm 0,0 km/h (0 Bft) W 275 ° 0 min 0,000 mm 0,0 UV-I 0 W/m² 6,1 °C 6,8 °C 0,0 km/h (0 Bft)
29.09.2019 07:04 6,8 °C 95 % 1013,8 hPa 0,0 mm 0,0 km/h (0 Bft) W 275 ° 0 min 0,000 mm 0,0 UV-I 0 W/m² 6,1 °C 6,8 °C 0,0 km/h (0 Bft)
29.09.2019 07:05 6,8 °C 95 % 1013,7 hPa 0,0 mm 0,0 km/h (0 Bft) W 275 ° 0 min 0,000 mm 0,0 UV-I 0 W/m² 6,1 °C 6,8 °C 0,0 km/h (0 Bft)
29.09.2019 07:06 6,8 °C 95 % 1013,7 hPa 0,0 mm 0,0 km/h (0 Bft) W 275 ° 0 min 0,000 mm 0,0 UV-I 0 W/m² 6,1 °C 6,8 °C 0,0 km/h (0 Bft)
29.09.2019 07:07 6,8 °C 95 % 1013,8 hPa 0,0 mm 0,0 km/h (0 Bft) W 275 ° 0 min 0,000 mm 0,0 UV-I 0 W/m² 6,1 °C 6,8 °C 0,0 km/h (0 Bft)
29.09.2019 07:08 6,7 °C 95 % 1013,8 hPa 0,0 mm 0,0 km/h (0 Bft) W 275 ° 0 min 0,000 mm 0,0 UV-I 0 W/m² 6,0 °C 6,7 °C 0,0 km/h (0 Bft)
29.09.2019 07:09 6,6 °C 95 % 1013,7 hPa 0,0 mm 0,0 km/h (0 Bft) W 275 ° 0 min 0,000 mm 0,0 UV-I 0 W/m² 5,9 °C 6,6 °C 0,0 km/h (0 Bft)
29.09.2019 07:10 6,6 °C 95 % 1013,8 hPa 0,0 mm 0,0 km/h (0 Bft) W 275 ° 0 min 0,000 mm 0,0 UV-I 0 W/m² 5,9 °C 6,6 °C 0,0 km/h (0 Bft)
29.09.2019 07:11 6,5 °C 95 % 1013,7 hPa 0,0 mm 0,0 km/h (0 Bft) W 275 ° 0 min 0,000 mm 0,0 UV-I 0 W/m² 5,8 °C 6,5 °C 0,0 km/h (0 Bft)
29.09.2019 07:12 6,5 °C 95 % 1013,8 hPa 0,0 mm 0,0 km/h (0 Bft) W 275 ° 0 min 0,000 mm 0,0 UV-I 0 W/m² 5,8 °C 6,5 °C 0,0 km/h (0 Bft)
29.09.2019 07:13 6,5 °C 95 % 1013,7 hPa 0,0 mm 0,0 km/h (0 Bft) W 275 ° 0 min 0,000 mm 0,0 UV-I 0 W/m² 5,8 °C 6,5 °C 0,0 km/h (0 Bft)
29.09.2019 07:14 6,6 °C 95 % 1013,7 hPa 0,0 mm 0,0 km/h (0 Bft) W 275 ° 0 min 0,000 mm 0,0 UV-I 0 W/m² 5,9 °C 6,6 °C 0,0 km/h (0 Bft)
29.09.2019 07:15 6,6 °C 95 % 1013,7 hPa 0,0 mm 0,0 km/h (0 Bft) W 275 ° 0 min 0,000 mm 0,0 UV-I 5 W/m² 5,9 °C 6,6 °C 0,0 km/h (0 Bft)
29.09.2019 07:16 6,6 °C 95 % 1013,7 hPa 0,0 mm 0,0 km/h (0 Bft) W 275 ° 0 min 0,000 mm 0,0 UV-I 5 W/m² 5,9 °C 6,6 °C 0,0 km/h (0 Bft)
29.09.2019 07:17 6,6 °C 95 % 1013,7 hPa 0,0 mm 0,6 km/h (0 Bft) W 275 ° 0 min 0,000 mm 0,0 UV-I 5 W/m² 5,9 °C 6,6 °C 1,6 km/h (1 Bft)
29.09.2019 07:18 6,6 °C 95 % 1013,7 hPa 0,0 mm 0,0 km/h (0 Bft) W 275 ° 0 min 0,000 mm 0,0 UV-I 5 W/m² 5,9 °C 6,6 °C 0,0 km/h (0 Bft)
29.09.2019 07:19 6,6 °C 95 % 1013,7 hPa 0,0 mm 0,0 km/h (0 Bft) W 275 ° 0 min 0,000 mm 0,0 UV-I 7 W/m² 5,9 °C 6,6 °C 0,0 km/h (0 Bft)
29.09.2019 07:20 6,6 °C 95 % 1013,7 hPa 0,0 mm 0,0 km/h (0 Bft) W 275 ° 0 min 0,000 mm 0,0 UV-I 7 W/m² 5,9 °C 6,6 °C 0,0 km/h (0 Bft)
29.09.2019 07:21 6,6 °C 95 % 1013,6 hPa 0,0 mm 0,0 km/h (0 Bft) W 275 ° 0 min 0,000 mm 0,0 UV-I 7 W/m² 5,9 °C 6,6 °C 0,0 km/h (0 Bft)
29.09.2019 07:22 6,6 °C 95 % 1013,6 hPa 0,0 mm 0,0 km/h (0 Bft) W 275 ° 0 min 0,000 mm 0,0 UV-I 7 W/m² 5,9 °C 6,6 °C 0,0 km/h (0 Bft)
29.09.2019 07:23 6,7 °C 95 % 1013,5 hPa 0,0 mm 0,0 km/h (0 Bft) W 275 ° 0 min 0,000 mm 0,0 UV-I 7 W/m² 6,0 °C 6,7 °C 0,0 km/h (0 Bft)
29.09.2019 07:24 6,7 °C 95 % 1013,5 hPa 0,0 mm 0,0 km/h (0 Bft) W 275 ° 0 min 0,000 mm 0,0 UV-I 9 W/m² 6,0 °C 6,7 °C 0,0 km/h (0 Bft)
29.09.2019 07:25 6,6 °C 95 % 1013,5 hPa 0,0 mm 0,0 km/h (0 Bft) W 275 ° 0 min 0,000 mm 0,0 UV-I 9 W/m² 5,9 °C 6,6 °C 0,0 km/h (0 Bft)
29.09.2019 07:26 6,7 °C 95 % 1013,4 hPa 0,0 mm 0,8 km/h (0 Bft) W 275 ° 0 min 0,000 mm 0,0 UV-I 9 W/m² 6,0 °C 6,7 °C 3,2 km/h (1 Bft)
29.09.2019 07:27 6,7 °C 95 % 1013,4 hPa 0,0 mm 0,0 km/h (0 Bft) W 275 ° 0 min 0,000 mm 0,0 UV-I 9 W/m² 6,0 °C 6,7 °C 0,0 km/h (0 Bft)
29.09.2019 07:28 6,7 °C 95 % 1013,4 hPa 0,0 mm 0,2 km/h (0 Bft) W 275 ° 0 min 0,000 mm 0,0 UV-I 9 W/m² 6,0 °C 6,7 °C 3,2 km/h (1 Bft)
29.09.2019 07:29 6,7 °C 95 % 1013,4 hPa 0,0 mm 2,6 km/h (1 Bft) W 275 ° 0 min 0,000 mm 0,0 UV-I 11 W/m² 6,0 °C 6,7 °C 4,8 km/h (1 Bft)
29.09.2019 07:30 6,7 °C 95 % 1013,4 hPa 0,0 mm 0,5 km/h (0 Bft) W 275 ° 0 min 0,000 mm 0,0 UV-I 11 W/m² 6,0 °C 6,7 °C 1,6 km/h (1 Bft)
29.09.2019 07:31 6,7 °C 95 % 1013,3 hPa 0,0 mm 0,2 km/h (0 Bft) W 275 ° 0 min 0,000 mm 0,0 UV-I 11 W/m² 6,0 °C 6,7 °C 1,6 km/h (1 Bft)
29.09.2019 07:32 6,8 °C 95 % 1013,3 hPa 0,0 mm 0,0 km/h (0 Bft) W 275 ° 0 min 0,000 mm 0,0 UV-I 11 W/m² 6,1 °C 6,8 °C 0,0 km/h (0 Bft)
29.09.2019 07:33 6,7 °C 95 % 1013,4 hPa 0,0 mm 0,0 km/h (0 Bft) W 275 ° 0 min 0,000 mm 0,0 UV-I 11 W/m² 6,0 °C 6,7 °C 0,0 km/h (0 Bft)
29.09.2019 07:34 6,7 °C 95 % 1013,4 hPa 0,0 mm 0,7 km/h (0 Bft) W 275 ° 0 min 0,000 mm 0,0 UV-I 11 W/m² 6,0 °C 6,7 °C 1,6 km/h (1 Bft)
29.09.2019 07:35 6,7 °C 95 % 1013,3 hPa 0,0 mm 0,0 km/h (0 Bft) W 275 ° 0 min 0,000 mm 0,0 UV-I 12 W/m² 6,0 °C 6,7 °C 0,0 km/h (0 Bft)
29.09.2019 07:36 6,7 °C 95 % 1013,4 hPa 0,0 mm 1,6 km/h (1 Bft) W 275 ° 0 min 0,000 mm 0,0 UV-I 12 W/m² 6,0 °C 6,7 °C 3,2 km/h (1 Bft)
29.09.2019 07:37 6,7 °C 95 % 1013,4 hPa 0,0 mm 0,0 km/h (0 Bft) W 275 ° 0 min 0,000 mm 0,0 UV-I 12 W/m² 6,0 °C 6,7 °C 0,0 km/h (0 Bft)
29.09.2019 07:38 6,7 °C 95 % 1013,4 hPa 0,0 mm 0,0 km/h (0 Bft) W 275 ° 0 min 0,000 mm 0,0 UV-I 12 W/m² 6,0 °C 6,7 °C 0,0 km/h (0 Bft)
29.09.2019 07:39 6,8 °C 95 % 1013,4 hPa 0,0 mm 0,0 km/h (0 Bft) W 275 ° 0 min 0,000 mm 0,0 UV-I 12 W/m² 6,1 °C 6,8 °C 0,0 km/h (0 Bft)
29.09.2019 07:40 6,8 °C 95 % 1013,5 hPa 0,0 mm 0,0 km/h (0 Bft) W 275 ° 0 min 0,000 mm 0,0 UV-I 12 W/m² 6,1 °C 6,8 °C 0,0 km/h (0 Bft)
29.09.2019 07:41 6,8 °C 95 % 1013,4 hPa 0,0 mm 0,0 km/h (0 Bft) W 275 ° 0 min 0,000 mm 0,0 UV-I 14 W/m² 6,1 °C 6,8 °C 0,0 km/h (0 Bft)
29.09.2019 07:42 6,9 °C 95 % 1013,4 hPa 0,0 mm 0,0 km/h (0 Bft) W 275 ° 0 min 0,000 mm 0,0 UV-I 14 W/m² 6,2 °C 6,9 °C 0,0 km/h (0 Bft)
29.09.2019 07:43 6,9 °C 95 % 1013,4 hPa 0,0 mm 0,0 km/h (0 Bft) W 275 ° 0 min 0,000 mm 0,0 UV-I 14 W/m² 6,2 °C 6,9 °C 0,0 km/h (0 Bft)
29.09.2019 07:44 6,9 °C 95 % 1013,4 hPa 0,0 mm 0,0 km/h (0 Bft) W 275 ° 0 min 0,000 mm 0,0 UV-I 14 W/m² 6,2 °C 6,9 °C 0,0 km/h (0 Bft)
29.09.2019 07:45 6,9 °C 95 % 1013,4 hPa 0,0 mm 0,0 km/h (0 Bft) W 275 ° 0 min 0,000 mm 0,0 UV-I 14 W/m² 6,2 °C 6,9 °C 0,0 km/h (0 Bft)
29.09.2019 07:46 7,0 °C 95 % 1013,4 hPa 0,0 mm 0,0 km/h (0 Bft) W 275 ° 0 min 0,000 mm 0,0 UV-I 14 W/m² 6,3 °C 7,0 °C 0,0 km/h (0 Bft)
29.09.2019 07:47 7,1 °C 95 % 1013,4 hPa 0,0 mm 0,0 km/h (0 Bft) W 275 ° 0 min 0,000 mm 0,0 UV-I 16 W/m² 6,4 °C 7,1 °C 0,0 km/h (0 Bft)
29.09.2019 07:48 7,1 °C 95 % 1013,4 hPa 0,0 mm 0,0 km/h (0 Bft) W 275 ° 0 min 0,000 mm 0,0 UV-I 16 W/m² 6,4 °C 7,1 °C 0,0 km/h (0 Bft)
29.09.2019 07:49 7,1 °C 95 % 1013,4 hPa 0,0 mm 0,0 km/h (0 Bft) W 275 ° 0 min 0,000 mm 0,0 UV-I 16 W/m² 6,4 °C 7,1 °C 0,0 km/h (0 Bft)
29.09.2019 07:50 7,1 °C 95 % 1013,4 hPa 0,0 mm 0,0 km/h (0 Bft) W 275 ° 0 min 0,000 mm 0,0 UV-I 16 W/m² 6,4 °C 7,1 °C 0,0 km/h (0 Bft)
29.09.2019 07:51 7,1 °C 95 % 1013,4 hPa 0,0 mm 0,0 km/h (0 Bft) W 275 ° 0 min 0,000 mm 0,0 UV-I 16 W/m² 6,4 °C 7,1 °C 0,0 km/h (0 Bft)
29.09.2019 07:52 7,1 °C 95 % 1013,4 hPa 0,0 mm 0,0 km/h (0 Bft) W 275 ° 0 min 0,000 mm 0,0 UV-I 16 W/m² 6,4 °C 7,1 °C 0,0 km/h (0 Bft)
29.09.2019 07:53 7,1 °C 95 % 1013,4 hPa 0,0 mm 0,0 km/h (0 Bft) W 275 ° 0 min 0,000 mm 0,0 UV-I 16 W/m² 6,4 °C 7,1 °C 0,0 km/h (0 Bft)
29.09.2019 07:54 7,1 °C 95 % 1013,4 hPa 0,0 mm 0,0 km/h (0 Bft) W 275 ° 0 min 0,000 mm 0,0 UV-I 18 W/m² 6,4 °C 7,1 °C 0,0 km/h (0 Bft)
29.09.2019 07:55 6,9 °C 95 % 1013,4 hPa 0,2 mm 0,0 km/h (0 Bft) W 275 ° 0 min 0,000 mm 0,0 UV-I 18 W/m² 6,2 °C 6,9 °C 0,0 km/h (0 Bft)
29.09.2019 07:56 6,9 °C 95 % 1013,4 hPa 0,0 mm 0,0 km/h (0 Bft) W 275 ° 0 min 0,000 mm 0,0 UV-I 18 W/m² 6,2 °C 6,9 °C 0,0 km/h (0 Bft)
29.09.2019 07:57 6,9 °C 95 % 1013,4 hPa 0,0 mm 0,0 km/h (0 Bft) W 275 ° 0 min 0,000 mm 0,0 UV-I 18 W/m² 6,2 °C 6,9 °C 0,0 km/h (0 Bft)
29.09.2019 07:58 6,9 °C 95 % 1013,4 hPa 0,0 mm 0,0 km/h (0 Bft) W 275 ° 0 min 0,000 mm 0,0 UV-I 18 W/m² 6,2 °C 6,9 °C 0,0 km/h (0 Bft)
29.09.2019 07:59 6,9 °C 95 % 1013,4 hPa 0,0 mm 0,0 km/h (0 Bft) W 275 ° 0 min 0,000 mm 0,0 UV-I 19 W/m² 6,2 °C 6,9 °C 0,0 km/h (0 Bft)
29.09.2019 08:00 6,9 °C 95 % 1013,4 hPa 0,0 mm 0,0 km/h (0 Bft) W 275 ° 0 min 0,000 mm 0,0 UV-I 19 W/m² 6,2 °C 6,9 °C 0,0 km/h (0 Bft)
29.09.2019 08:01 6,9 °C 95 % 1013,5 hPa 0,0 mm 0,0 km/h (0 Bft) W 275 ° 0 min 0,000 mm 0,0 UV-I 21 W/m² 6,2 °C 6,9 °C 0,0 km/h (0 Bft)
29.09.2019 08:02 6,9 °C 95 % 1013,5 hPa 0,0 mm 0,0 km/h (0 Bft) W 275 ° 0 min 0,000 mm 0,0 UV-I 23 W/m² 6,2 °C 6,9 °C 0,0 km/h (0 Bft)
29.09.2019 08:03 6,9 °C 95 % 1013,5 hPa 0,0 mm 0,0 km/h (0 Bft) W 275 ° 0 min 0,000 mm 0,0 UV-I 26 W/m² 6,2 °C 6,9 °C 0,0 km/h (0 Bft)
29.09.2019 08:04 6,9 °C 95 % 1013,5 hPa 0,0 mm 0,0 km/h (0 Bft) W 275 ° 0 min 0,000 mm 0,0 UV-I 33 W/m² 6,2 °C 6,9 °C 0,0 km/h (0 Bft)
29.09.2019 08:05 6,9 °C 95 % 1013,5 hPa 0,0 mm 0,0 km/h (0 Bft) W 275 ° 0 min 0,000 mm 0,0 UV-I 37 W/m² 6,2 °C 6,9 °C 0,0 km/h (0 Bft)
29.09.2019 08:06 7,1 °C 95 % 1013,5 hPa 0,0 mm 0,0 km/h (0 Bft) W 275 ° 0 min 0,000 mm 0,0 UV-I 40 W/m² 6,4 °C 7,1 °C 0,0 km/h (0 Bft)
29.09.2019 08:07 7,0 °C 95 % 1013,4 hPa 0,0 mm 0,0 km/h (0 Bft) W 275 ° 0 min 0,000 mm 0,0 UV-I 47 W/m² 6,3 °C 7,0 °C 0,0 km/h (0 Bft)
29.09.2019 08:08 7,1 °C 95 % 1013,4 hPa 0,0 mm 0,0 km/h (0 Bft) W 275 ° 0 min 0,000 mm 0,0 UV-I 53 W/m² 6,4 °C 7,1 °C 0,0 km/h (0 Bft)
29.09.2019 08:09 7,1 °C 95 % 1013,4 hPa 0,0 mm 0,0 km/h (0 Bft) W 275 ° 0 min 0,000 mm 0,0 UV-I 60 W/m² 6,4 °C 7,1 °C 0,0 km/h (0 Bft)
29.09.2019 08:10 7,1 °C 95 % 1013,4 hPa 0,0 mm 0,0 km/h (0 Bft) W 275 ° 0 min 0,000 mm 0,0 UV-I 67 W/m² 6,4 °C 7,1 °C 0,0 km/h (0 Bft)
29.09.2019 08:11 7,1 °C 95 % 1013,4 hPa 0,0 mm 0,0 km/h (0 Bft) W 275 ° 0 min 0,000 mm 0,0 UV-I 65 W/m² 6,4 °C 7,1 °C 0,0 km/h (0 Bft)
29.09.2019 08:12 7,2 °C 95 % 1013,4 hPa 0,0 mm 0,0 km/h (0 Bft) W 275 ° 0 min 0,000 mm 0,0 UV-I 65 W/m² 6,5 °C 7,2 °C 0,0 km/h (0 Bft)
29.09.2019 08:13 7,2 °C 95 % 1013,3 hPa 0,0 mm 0,0 km/h (0 Bft) W 275 ° 0 min 0,000 mm 0,0 UV-I 63 W/m² 6,5 °C 7,2 °C 0,0 km/h (0 Bft)
29.09.2019 08:14 7,3 °C 95 % 1013,3 hPa 0,0 mm 0,0 km/h (0 Bft) W 275 ° 0 min 0,000 mm 0,0 UV-I 63 W/m² 6,6 °C 7,3 °C 0,0 km/h (0 Bft)
29.09.2019 08:15 7,3 °C 95 % 1013,3 hPa 0,0 mm 0,0 km/h (0 Bft) W 275 ° 0 min 0,000 mm 0,0 UV-I 63 W/m² 6,6 °C 7,3 °C 0,0 km/h (0 Bft)
29.09.2019 08:16 7,4 °C 95 % 1013,3 hPa 0,0 mm 0,0 km/h (0 Bft) W 275 ° 0 min 0,000 mm 0,0 UV-I 67 W/m² 6,7 °C 7,4 °C 0,0 km/h (0 Bft)
29.09.2019 08:17 7,5 °C 95 % 1013,3 hPa 0,0 mm 0,0 km/h (0 Bft) W 275 ° 0 min 0,000 mm 0,0 UV-I 69 W/m² 6,8 °C 7,5 °C 0,0 km/h (0 Bft)
29.09.2019 08:18 7,6 °C 95 % 1013,3 hPa 0,0 mm 0,0 km/h (0 Bft) W 275 ° 0 min 0,000 mm 0,0 UV-I 72 W/m² 6,9 °C 7,6 °C 0,0 km/h (0 Bft)
29.09.2019 08:19 7,7 °C 95 % 1013,3 hPa 0,0 mm 0,0 km/h (0 Bft) W 275 ° 0 min 0,000 mm 0,0 UV-I 74 W/m² 7,0 °C 7,7 °C 0,0 km/h (0 Bft)
29.09.2019 08:20 7,8 °C 95 % 1013,3 hPa 0,0 mm 0,0 km/h (0 Bft) W 275 ° 0 min 0,000 mm 0,0 UV-I 76 W/m² 7,0 °C 7,8 °C 0,0 km/h (0 Bft)
29.09.2019 08:21 7,9 °C 95 % 1013,3 hPa 0,0 mm 0,0 km/h (0 Bft) W 275 ° 0 min 0,000 mm 0,0 UV-I 76 W/m² 7,1 °C 7,9 °C 0,0 km/h (0 Bft)
29.09.2019 08:22 8,1 °C 95 % 1013,3 hPa 0,0 mm 0,0 km/h (0 Bft) W 275 ° 0 min 0,000 mm 0,0 UV-I 72 W/m² 7,3 °C 8,1 °C 0,0 km/h (0 Bft)
29.09.2019 08:23 8,2 °C 95 % 1013,2 hPa 0,0 mm 0,0 km/h (0 Bft) W 275 ° 0 min 0,000 mm 0,0 UV-I 69 W/m² 7,4 °C 8,2 °C 0,0 km/h (0 Bft)
29.09.2019 08:24 8,3 °C 95 % 1013,2 hPa 0,0 mm 0,0 km/h (0 Bft) W 275 ° 0 min 0,000 mm 0,0 UV-I 69 W/m² 7,5 °C 8,3 °C 0,0 km/h (0 Bft)
29.09.2019 08:25 8,4 °C 95 % 1013,3 hPa 0,0 mm 0,0 km/h (0 Bft) W 275 ° 0 min 0,000 mm 0,0 UV-I 67 W/m² 7,6 °C 8,4 °C 0,0 km/h (0 Bft)
29.09.2019 08:26 8,5 °C 95 % 1013,2 hPa 0,0 mm 0,0 km/h (0 Bft) W 275 ° 0 min 0,000 mm 0,0 UV-I 67 W/m² 7,7 °C 8,5 °C 0,0 km/h (0 Bft)
29.09.2019 08:27 8,6 °C 95 % 1013,2 hPa 0,0 mm 0,0 km/h (0 Bft) W 275 ° 0 min 0,000 mm 0,0 UV-I 67 W/m² 7,8 °C 8,6 °C 0,0 km/h (0 Bft)
29.09.2019 08:28 8,6 °C 95 % 1013,2 hPa 0,0 mm 0,0 km/h (0 Bft) W 275 ° 0 min 0,000 mm 0,5 UV-I 65 W/m² 7,8 °C 8,6 °C 0,0 km/h (0 Bft)
29.09.2019 08:29 8,7 °C 95 % 1013,2 hPa 0,0 mm 0,0 km/h (0 Bft) W 275 ° 0 min 0,000 mm 0,5 UV-I 63 W/m² 7,9 °C 8,7 °C 0,0 km/h (0 Bft)
29.09.2019 08:30 8,7 °C 95 % 1013,2 hPa 0,0 mm 0,0 km/h (0 Bft) W 275 ° 0 min 0,000 mm 0,5 UV-I 62 W/m² 7,9 °C 8,7 °C 0,0 km/h (0 Bft)
29.09.2019 08:31 8,8 °C 95 % 1013,2 hPa 0,0 mm 0,0 km/h (0 Bft) W 275 ° 0 min 0,000 mm 0,5 UV-I 58 W/m² 8,0 °C 8,8 °C 0,0 km/h (0 Bft)
29.09.2019 08:32 8,8 °C 95 % 1013,1 hPa 0,0 mm 0,0 km/h (0 Bft) W 275 ° 0 min 0,000 mm 0,0 UV-I 54 W/m² 8,0 °C 8,8 °C 0,0 km/h (0 Bft)
29.09.2019 08:33 8,8 °C 95 % 1013,1 hPa 0,0 mm 0,0 km/h (0 Bft) W 275 ° 0 min 0,000 mm 0,0 UV-I 49 W/m² 8,0 °C 8,8 °C 0,0 km/h (0 Bft)
29.09.2019 08:34 8,8 °C 95 % 1013,1 hPa 0,0 mm 0,0 km/h (0 Bft) W 275 ° 0 min 0,000 mm 0,0 UV-I 44 W/m² 8,0 °C 8,8 °C 0,0 km/h (0 Bft)
29.09.2019 08:35 8,8 °C 95 % 1013,1 hPa 0,0 mm 0,0 km/h (0 Bft) W 275 ° 0 min 0,000 mm 0,0 UV-I 42 W/m² 8,0 °C 8,8 °C 0,0 km/h (0 Bft)
29.09.2019 08:36 8,8 °C 95 % 1013,1 hPa 0,0 mm 0,0 km/h (0 Bft) W 275 ° 0 min 0,000 mm 0,0 UV-I 42 W/m² 8,0 °C 8,8 °C 0,0 km/h (0 Bft)
29.09.2019 08:37 8,8 °C 94 % 1013,1 hPa 0,0 mm 0,0 km/h (0 Bft) W 275 ° 0 min 0,000 mm 0,0 UV-I 42 W/m² 7,9 °C 8,8 °C 0,0 km/h (0 Bft)
29.09.2019 08:38 8,8 °C 94 % 1013,1 hPa 0,0 mm 0,0 km/h (0 Bft) W 275 ° 0 min 0,000 mm 0,0 UV-I 44 W/m² 7,9 °C 8,8 °C 0,0 km/h (0 Bft)
29.09.2019 08:39 8,8 °C 94 % 1013,1 hPa 0,0 mm 0,0 km/h (0 Bft) W 275 ° 0 min 0,000 mm 0,0 UV-I 46 W/m² 7,9 °C 8,8 °C 0,0 km/h (0 Bft)
29.09.2019 08:40 8,8 °C 94 % 1013,1 hPa 0,0 mm 0,0 km/h (0 Bft) W 275 ° 0 min 0,000 mm 0,0 UV-I 42 W/m² 7,9 °C 8,8 °C 0,0 km/h (0 Bft)
29.09.2019 08:41 8,8 °C 94 % 1013,0 hPa 0,0 mm 0,0 km/h (0 Bft) W 275 ° 0 min 0,000 mm 0,0 UV-I 42 W/m² 7,9 °C 8,8 °C 0,0 km/h (0 Bft)
29.09.2019 08:42 8,8 °C 94 % 1013,1 hPa 0,0 mm 0,0 km/h (0 Bft) W 275 ° 0 min 0,000 mm 0,0 UV-I 42 W/m² 7,9 °C 8,8 °C 0,0 km/h (0 Bft)
29.09.2019 08:43 8,8 °C 94 % 1013,0 hPa 0,0 mm 1,3 km/h (1 Bft) N 5 ° 0 min 0,000 mm 0,0 UV-I 42 W/m² 7,9 °C 8,8 °C 3,2 km/h (1 Bft)
29.09.2019 08:44 8,8 °C 94 % 1013,0 hPa 0,0 mm 0,2 km/h (0 Bft) N 5 ° 0 min 0,000 mm 0,0 UV-I 44 W/m² 7,9 °C 8,8 °C 1,6 km/h (1 Bft)
29.09.2019 08:45 8,8 °C 94 % 1013,0 hPa 0,0 mm 0,0 km/h (0 Bft) N 5 ° 0 min 0,000 mm 0,0 UV-I 42 W/m² 7,9 °C 8,8 °C 0,0 km/h (0 Bft)
29.09.2019 08:46 8,8 °C 94 % 1013,0 hPa 0,0 mm 0,0 km/h (0 Bft) N 5 ° 0 min 0,000 mm 0,0 UV-I 40 W/m² 7,9 °C 8,8 °C 0,0 km/h (0 Bft)
29.09.2019 08:47 8,8 °C 94 % 1013,0 hPa 0,0 mm 0,0 km/h (0 Bft) N 5 ° 0 min 0,000 mm 0,0 UV-I 37 W/m² 7,9 °C 8,8 °C 0,0 km/h (0 Bft)
29.09.2019 08:48 8,9 °C 94 % 1013,0 hPa 0,0 mm 0,0 km/h (0 Bft) N 5 ° 0 min 0,000 mm 0,0 UV-I 35 W/m² 8,0 °C 8,9 °C 0,0 km/h (0 Bft)
29.09.2019 08:49 8,9 °C 94 % 1013,0 hPa 0,0 mm 0,0 km/h (0 Bft) N 5 ° 0 min 0,000 mm 0,0 UV-I 33 W/m² 8,0 °C 8,9 °C 0,0 km/h (0 Bft)
29.09.2019 08:50 8,9 °C 94 % 1013,0 hPa 0,0 mm 0,0 km/h (0 Bft) N 5 ° 0 min 0,000 mm 0,0 UV-I 33 W/m² 8,0 °C 8,9 °C 0,0 km/h (0 Bft)
29.09.2019 08:51 8,9 °C 94 % 1012,9 hPa 0,0 mm 0,0 km/h (0 Bft) N 5 ° 0 min 0,000 mm 0,0 UV-I 30 W/m² 8,0 °C 8,9 °C 0,0 km/h (0 Bft)
29.09.2019 08:52 8,9 °C 94 % 1012,9 hPa 0,0 mm 0,0 km/h (0 Bft) N 5 ° 0 min 0,000 mm 0,0 UV-I 30 W/m² 8,0 °C 8,9 °C 0,0 km/h (0 Bft)
29.09.2019 08:53 9,0 °C 94 % 1012,9 hPa 0,0 mm 0,0 km/h (0 Bft) N 5 ° 0 min 0,000 mm 0,0 UV-I 30 W/m² 8,1 °C 9,0 °C 0,0 km/h (0 Bft)
29.09.2019 08:54 9,0 °C 94 % 1012,9 hPa 0,0 mm 0,0 km/h (0 Bft) N 5 ° 0 min 0,000 mm 0,0 UV-I 30 W/m² 8,1 °C 9,0 °C 0,0 km/h (0 Bft)
29.09.2019 08:55 9,0 °C 94 % 1012,9 hPa 0,0 mm 0,0 km/h (0 Bft) N 5 ° 0 min 0,000 mm 0,0 UV-I 30 W/m² 8,1 °C 9,0 °C 0,0 km/h (0 Bft)
29.09.2019 08:56 9,0 °C 94 % 1012,9 hPa 0,0 mm 0,0 km/h (0 Bft) N 5 ° 0 min 0,000 mm 0,0 UV-I 30 W/m² 8,1 °C 9,0 °C 0,0 km/h (0 Bft)
29.09.2019 08:57 9,0 °C 94 % 1012,9 hPa 0,0 mm 0,0 km/h (0 Bft) N 5 ° 0 min 0,000 mm 0,0 UV-I 32 W/m² 8,1 °C 9,0 °C 0,0 km/h (0 Bft)
29.09.2019 08:58 9,0 °C 94 % 1012,8 hPa 0,0 mm 0,0 km/h (0 Bft) N 5 ° 0 min 0,000 mm 0,0 UV-I 32 W/m² 8,1 °C 9,0 °C 0,0 km/h (0 Bft)
29.09.2019 08:59 9,1 °C 94 % 1012,8 hPa 0,0 mm 0,0 km/h (0 Bft) N 5 ° 0 min 0,000 mm 0,0 UV-I 32 W/m² 8,2 °C 9,1 °C 0,0 km/h (0 Bft)
29.09.2019 09:00 9,1 °C 94 % 1012,8 hPa 0,0 mm 0,0 km/h (0 Bft) N 5 ° 0 min 0,000 mm 0,0 UV-I 32 W/m² 8,2 °C 9,1 °C 0,0 km/h (0 Bft)
29.09.2019 09:01 9,2 °C 94 % 1012,8 hPa 0,0 mm 0,0 km/h (0 Bft) N 5 ° 0 min 0,025 mm 0,0 UV-I 32 W/m² 8,3 °C 9,2 °C 0,0 km/h (0 Bft)
29.09.2019 09:02 9,2 °C 94 % 1012,8 hPa 0,0 mm 0,0 km/h (0 Bft) N 5 ° 0 min 0,000 mm 0,0 UV-I 28 W/m² 8,3 °C 9,2 °C 0,0 km/h (0 Bft)
29.09.2019 09:03 9,2 °C 94 % 1012,8 hPa 0,0 mm 0,0 km/h (0 Bft) N 5 ° 0 min 0,000 mm 0,0 UV-I 32 W/m² 8,3 °C 9,2 °C 0,0 km/h (0 Bft)
29.09.2019 09:04 9,2 °C 93 % 1012,7 hPa 0,0 mm 0,0 km/h (0 Bft) N 5 ° 0 min 0,000 mm 0,0 UV-I 32 W/m² 8,1 °C 9,2 °C 0,0 km/h (0 Bft)
29.09.2019 09:05 9,2 °C 93 % 1012,7 hPa 0,0 mm 0,0 km/h (0 Bft) N 5 ° 0 min 0,000 mm 0,0 UV-I 32 W/m² 8,1 °C 9,2 °C 0,0 km/h (0 Bft)
29.09.2019 09:06 9,3 °C 94 % 1012,7 hPa 0,0 mm 0,0 km/h (0 Bft) N 5 ° 0 min 0,000 mm 0,0 UV-I 32 W/m² 8,4 °C 9,3 °C 0,0 km/h (0 Bft)
29.09.2019 09:07 9,3 °C 94 % 1012,7 hPa 0,0 mm 0,0 km/h (0 Bft) N 5 ° 0 min 0,000 mm 0,0 UV-I 32 W/m² 8,4 °C 9,3 °C 0,0 km/h (0 Bft)
29.09.2019 09:08 9,4 °C 93 % 1012,7 hPa 0,0 mm 0,0 km/h (0 Bft) N 5 ° 0 min 0,000 mm 0,0 UV-I 32 W/m² 8,3 °C 9,4 °C 0,0 km/h (0 Bft)
29.09.2019 09:09 9,4 °C 93 % 1012,7 hPa 0,0 mm 0,0 km/h (0 Bft) N 5 ° 0 min 0,000 mm 0,0 UV-I 33 W/m² 8,3 °C 9,4 °C 0,0 km/h (0 Bft)
29.09.2019 09:10 9,4 °C 93 % 1012,7 hPa 0,0 mm 0,0 km/h (0 Bft) N 5 ° 0 min 0,000 mm 0,0 UV-I 35 W/m² 8,3 °C 9,4 °C 0,0 km/h (0 Bft)
29.09.2019 09:11 9,4 °C 93 % 1012,7 hPa 0,0 mm 0,0 km/h (0 Bft) N 360 ° 0 min 0,000 mm 0,0 UV-I 33 W/m² 8,3 °C 9,4 °C 0,0 km/h (0 Bft)
29.09.2019 09:12 9,6 °C 93 % 1012,7 hPa 0,0 mm 0,9 km/h (0 Bft) S-SW 213 ° 0 min 0,000 mm 0,0 UV-I 32 W/m² 8,5 °C 9,6 °C 4,8 km/h (1 Bft)
29.09.2019 09:13 9,6 °C 93 % 1012,7 hPa 0,0 mm 0,0 km/h (0 Bft) S-SW 213 ° 0 min 0,000 mm 0,0 UV-I 32 W/m² 8,5 °C 9,6 °C 0,0 km/h (0 Bft)
29.09.2019 09:14 9,7 °C 93 % 1012,6 hPa 0,0 mm 0,0 km/h (0 Bft) S-SW 213 ° 0 min 0,000 mm 0,0 UV-I 32 W/m² 8,6 °C 9,7 °C 0,0 km/h (0 Bft)
29.09.2019 09:15 9,7 °C 93 % 1012,7 hPa 0,0 mm 0,0 km/h (0 Bft) S-SW 213 ° 0 min 0,000 mm 0,0 UV-I 32 W/m² 8,6 °C 9,7 °C 0,0 km/h (0 Bft)
29.09.2019 09:16 9,7 °C 93 % 1012,6 hPa 0,0 mm 0,0 km/h (0 Bft) S-SW 213 ° 0 min 0,000 mm 0,0 UV-I 32 W/m² 8,6 °C 9,7 °C 0,0 km/h (0 Bft)
29.09.2019 09:17 9,7 °C 93 % 1012,6 hPa 0,0 mm 0,0 km/h (0 Bft) S-SW 213 ° 0 min 0,000 mm 0,0 UV-I 32 W/m² 8,6 °C 9,7 °C 0,0 km/h (0 Bft)
29.09.2019 09:18 9,7 °C 93 % 1012,6 hPa 0,2 mm 0,0 km/h (0 Bft) S-SW 213 ° 0 min 0,000 mm 0,0 UV-I 32 W/m² 8,6 °C 9,7 °C 0,0 km/h (0 Bft)
29.09.2019 09:19 9,7 °C 93 % 1012,5 hPa 0,0 mm 0,5 km/h (0 Bft) W-NW 286 ° 0 min 0,000 mm 0,0 UV-I 32 W/m² 8,6 °C 9,7 °C 4,8 km/h (1 Bft)
29.09.2019 09:20 9,8 °C 93 % 1012,5 hPa 0,0 mm 1,4 km/h (1 Bft) W 280 ° 0 min 0,000 mm 0,0 UV-I 33 W/m² 8,7 °C 9,8 °C 4,8 km/h (1 Bft)
29.09.2019 09:21 9,8 °C 93 % 1012,5 hPa 0,0 mm 0,0 km/h (0 Bft) W 280 ° 0 min 0,000 mm 0,0 UV-I 35 W/m² 8,7 °C 9,8 °C 0,0 km/h (0 Bft)
29.09.2019 09:22 9,9 °C 92 % 1012,5 hPa 0,0 mm 0,0 km/h (0 Bft) W 280 ° 0 min 0,000 mm 0,0 UV-I 37 W/m² 8,7 °C 9,9 °C 0,0 km/h (0 Bft)
29.09.2019 09:23 9,9 °C 93 % 1012,5 hPa 0,0 mm 0,0 km/h (0 Bft) W 280 ° 0 min 0,000 mm 0,0 UV-I 35 W/m² 8,8 °C 9,9 °C 0,0 km/h (0 Bft)
29.09.2019 09:24 10,1 °C 92 % 1012,5 hPa 0,0 mm 0,0 km/h (0 Bft) W 280 ° 0 min 0,000 mm 0,0 UV-I 33 W/m² 8,9 °C 10,1 °C 0,0 km/h (0 Bft)
29.09.2019 09:25 10,1 °C 92 % 1012,5 hPa 0,0 mm 0,0 km/h (0 Bft) W 280 ° 0 min 0,000 mm 0,0 UV-I 33 W/m² 8,9 °C 10,1 °C 0,0 km/h (0 Bft)
29.09.2019 09:26 10,2 °C 92 % 1012,5 hPa 0,0 mm 0,0 km/h (0 Bft) W 280 ° 0 min 0,000 mm 0,0 UV-I 33 W/m² 9,0 °C 10,2 °C 0,0 km/h (0 Bft)
29.09.2019 09:27 10,2 °C 92 % 1012,5 hPa 0,0 mm 0,0 km/h (0 Bft) W 280 ° 0 min 0,000 mm 0,0 UV-I 35 W/m² 9,0 °C 10,2 °C 0,0 km/h (0 Bft)
29.09.2019 09:28 10,3 °C 92 % 1012,5 hPa 0,0 mm 0,0 km/h (0 Bft) W 280 ° 0 min 0,000 mm 0,0 UV-I 44 W/m² 9,1 °C 10,3 °C 0,0 km/h (0 Bft)
29.09.2019 09:29 10,3 °C 92 % 1012,5 hPa 0,0 mm 0,0 km/h (0 Bft) W 280 ° 0 min 0,000 mm 0,0 UV-I 54 W/m² 9,1 °C 10,3 °C 0,0 km/h (0 Bft)
29.09.2019 09:30 10,4 °C 91 % 1012,5 hPa 0,0 mm 0,0 km/h (0 Bft) W 280 ° 0 min 0,000 mm 0,0 UV-I 53 W/m² 9,0 °C 10,4 °C 0,0 km/h (0 Bft)
29.09.2019 09:31 10,5 °C 91 % 1012,5 hPa 0,0 mm 0,0 km/h (0 Bft) W 280 ° 0 min 0,000 mm 0,0 UV-I 42 W/m² 9,1 °C 10,5 °C 0,0 km/h (0 Bft)
29.09.2019 09:32 10,6 °C 91 % 1012,5 hPa 0,0 mm 0,0 km/h (0 Bft) W 280 ° 0 min 0,000 mm 0,0 UV-I 35 W/m² 9,2 °C 10,6 °C 0,0 km/h (0 Bft)
29.09.2019 09:33 10,6 °C 91 % 1012,5 hPa 0,0 mm 0,0 km/h (0 Bft) W 280 ° 0 min 0,000 mm 0,0 UV-I 37 W/m² 9,2 °C 10,6 °C 0,0 km/h (0 Bft)
29.09.2019 09:34 10,6 °C 91 % 1012,5 hPa 0,0 mm 0,0 km/h (0 Bft) W 280 ° 0 min 0,000 mm 0,0 UV-I 35 W/m² 9,2 °C 10,6 °C 0,0 km/h (0 Bft)
29.09.2019 09:35 10,6 °C 91 % 1012,5 hPa 0,0 mm 0,0 km/h (0 Bft) W 280 ° 0 min 0,000 mm 0,0 UV-I 35 W/m² 9,2 °C 10,6 °C 0,0 km/h (0 Bft)
29.09.2019 09:36 10,7 °C 91 % 1012,5 hPa 0,0 mm 0,0 km/h (0 Bft) W 280 ° 0 min 0,000 mm 0,0 UV-I 35 W/m² 9,3 °C 10,7 °C 0,0 km/h (0 Bft)
29.09.2019 09:37 10,8 °C 90 % 1012,5 hPa 0,0 mm 0,0 km/h (0 Bft) W 280 ° 0 min 0,000 mm 0,0 UV-I 37 W/m² 9,2 °C 10,8 °C 0,0 km/h (0 Bft)
29.09.2019 09:38 10,8 °C 90 % 1012,5 hPa 0,0 mm 0,0 km/h (0 Bft) W 280 ° 0 min 0,000 mm 0,0 UV-I 40 W/m² 9,2 °C 10,8 °C 0,0 km/h (0 Bft)
29.09.2019 09:39 10,9 °C 90 % 1012,5 hPa 0,0 mm 0,0 km/h (0 Bft) W 280 ° 0 min 0,000 mm 1,1 UV-I 65 W/m² 9,3 °C 10,9 °C 0,0 km/h (0 Bft)
29.09.2019 09:40 11,1 °C 90 % 1012,5 hPa 0,0 mm 0,1 km/h (0 Bft) W 281 ° 0 min 0,000 mm 1,1 UV-I 60 W/m² 9,5 °C 11,1 °C 1,6 km/h (1 Bft)
29.09.2019 09:41 11,3 °C 90 % 1012,5 hPa 0,0 mm 0,0 km/h (0 Bft) W 281 ° 0 min 0,000 mm 0,0 UV-I 46 W/m² 9,7 °C 11,3 °C 0,0 km/h (0 Bft)
29.09.2019 09:42 11,4 °C 89 % 1012,5 hPa 0,0 mm 0,0 km/h (0 Bft) W 281 ° 0 min 0,000 mm 0,0 UV-I 46 W/m² 9,7 °C 11,4 °C 0,0 km/h (0 Bft)
29.09.2019 09:43 11,6 °C 89 % 1012,5 hPa 0,0 mm 0,0 km/h (0 Bft) W 281 ° 0 min 0,000 mm 1,1 UV-I 63 W/m² 9,8 °C 11,6 °C 0,0 km/h (0 Bft)
29.09.2019 09:44 11,7 °C 88 % 1012,5 hPa 0,0 mm 0,0 km/h (0 Bft) W 281 ° 0 min 0,000 mm 1,2 UV-I 218 W/m² 9,8 °C 11,7 °C 0,0 km/h (0 Bft)
29.09.2019 09:45 11,7 °C 88 % 1012,5 hPa 0,0 mm 0,0 km/h (0 Bft) W 281 ° 0 min 0,000 mm 1,5 UV-I 260 W/m² 9,8 °C 11,7 °C 0,0 km/h (0 Bft)
29.09.2019 09:46 11,7 °C 87 % 1012,4 hPa 0,0 mm 0,0 km/h (0 Bft) W 281 ° 0 min 0,000 mm 1,5 UV-I 246 W/m² 9,6 °C 11,7 °C 0,0 km/h (0 Bft)
29.09.2019 09:47 11,8 °C 87 % 1012,4 hPa 0,0 mm 0,0 km/h (0 Bft) W 281 ° 0 min 0,000 mm 1,5 UV-I 255 W/m² 9,7 °C 11,8 °C 0,0 km/h (0 Bft)
29.09.2019 09:48 11,9 °C 86 % 1012,4 hPa 0,0 mm 0,0 km/h (0 Bft) W 281 ° 0 min 0,000 mm 1,5 UV-I 214 W/m² 9,6 °C 11,9 °C 0,0 km/h (0 Bft)
29.09.2019 09:49 11,9 °C 85 % 1012,4 hPa 0,0 mm 0,0 km/h (0 Bft) W 281 ° 0 min 0,000 mm 1,4 UV-I 199 W/m² 9,5 °C 11,9 °C 0,0 km/h (0 Bft)
29.09.2019 09:50 12,0 °C 85 % 1012,4 hPa 0,0 mm 0,0 km/h (0 Bft) W 281 ° 0 min 0,000 mm 1,5 UV-I 288 W/m² 9,6 °C 12,0 °C 0,0 km/h (0 Bft)
29.09.2019 09:51 12,1 °C 85 % 1012,4 hPa 0,0 mm 0,0 km/h (0 Bft) W 281 ° 0 min 0,000 mm 1,6 UV-I 288 W/m² 9,7 °C 12,1 °C 0,0 km/h (0 Bft)
29.09.2019 09:52 12,1 °C 85 % 1012,4 hPa 0,0 mm 0,0 km/h (0 Bft) W 281 ° 0 min 0,000 mm 1,5 UV-I 213 W/m² 9,7 °C 12,1 °C 0,0 km/h (0 Bft)
29.09.2019 09:53 12,1 °C 85 % 1012,3 hPa 0,0 mm 0,0 km/h (0 Bft) W 281 ° 0 min 0,000 mm 1,5 UV-I 181 W/m² 9,7 °C 12,1 °C 0,0 km/h (0 Bft)
29.09.2019 09:54 12,1 °C 85 % 1012,3 hPa 0,0 mm 0,0 km/h (0 Bft) W 281 ° 0 min 0,000 mm 1,5 UV-I 146 W/m² 9,7 °C 12,1 °C 0,0 km/h (0 Bft)
29.09.2019 09:55 12,1 °C 85 % 1012,3 hPa 0,0 mm 0,0 km/h (0 Bft) W 281 ° 0 min 0,000 mm 1,3 UV-I 86 W/m² 9,7 °C 12,1 °C 0,0 km/h (0 Bft)
29.09.2019 09:56 12,1 °C 85 % 1012,3 hPa 0,0 mm 0,0 km/h (0 Bft) W 281 ° 0 min 0,000 mm 1,2 UV-I 79 W/m² 9,7 °C 12,1 °C 0,0 km/h (0 Bft)
29.09.2019 09:57 12,1 °C 85 % 1012,3 hPa 0,0 mm 0,0 km/h (0 Bft) W 281 ° 0 min 0,000 mm 1,2 UV-I 88 W/m² 9,7 °C 12,1 °C 0,0 km/h (0 Bft)
29.09.2019 09:58 12,1 °C 85 % 1012,3 hPa 0,0 mm 0,0 km/h (0 Bft) W 281 ° 0 min 0,000 mm 1,3 UV-I 97 W/m² 9,7 °C 12,1 °C 0,0 km/h (0 Bft)
29.09.2019 09:59 12,2 °C 85 % 1012,3 hPa 0,0 mm 0,0 km/h (0 Bft) W 281 ° 0 min 0,000 mm 1,3 UV-I 90 W/m² 9,8 °C 12,2 °C 0,0 km/h (0 Bft)
29.09.2019 10:00 12,2 °C 85 % 1012,3 hPa 0,0 mm 0,0 km/h (0 Bft) W 281 ° 0 min 0,000 mm 1,3 UV-I 65 W/m² 9,8 °C 12,2 °C 0,0 km/h (0 Bft)
29.09.2019 10:01 12,2 °C 85 % 1012,3 hPa 0,0 mm 0,0 km/h (0 Bft) W 281 ° 0 min 0,026 mm 1,2 UV-I 58 W/m² 9,8 °C 12,2 °C 0,0 km/h (0 Bft)
29.09.2019 10:02 12,3 °C 85 % 1012,2 hPa 0,0 mm 0,0 km/h (0 Bft) W 281 ° 0 min 0,000 mm 0,0 UV-I 53 W/m² 9,9 °C 12,3 °C 0,0 km/h (0 Bft)
29.09.2019 10:03 12,4 °C 85 % 1012,2 hPa 0,0 mm 0,0 km/h (0 Bft) W 281 ° 0 min 0,000 mm 1,2 UV-I 69 W/m² 9,9 °C 12,4 °C 0,0 km/h (0 Bft)
29.09.2019 10:04 12,4 °C 85 % 1012,2 hPa 0,0 mm 0,0 km/h (0 Bft) W 281 ° 0 min 0,000 mm 1,3 UV-I 72 W/m² 9,9 °C 12,4 °C 0,0 km/h (0 Bft)
29.09.2019 10:05 12,5 °C 84 % 1012,2 hPa 0,0 mm 0,0 km/h (0 Bft) W 281 ° 0 min 0,000 mm 0,0 UV-I 54 W/m² 9,9 °C 12,5 °C 0,0 km/h (0 Bft)
29.09.2019 10:06 12,6 °C 84 % 1012,2 hPa 0,0 mm 0,0 km/h (0 Bft) W 281 ° 0 min 0,000 mm 1,2 UV-I 60 W/m² 10,0 °C 12,6 °C 0,0 km/h (0 Bft)
29.09.2019 10:07 12,7 °C 83 % 1012,2 hPa 0,0 mm 0,0 km/h (0 Bft) W 281 ° 0 min 0,000 mm 1,3 UV-I 146 W/m² 9,9 °C 12,7 °C 0,0 km/h (0 Bft)
29.09.2019 10:08 12,7 °C 84 % 1012,2 hPa 0,0 mm 0,0 km/h (0 Bft) W 281 ° 0 min 0,000 mm 1,3 UV-I 241 W/m² 10,1 °C 12,7 °C 0,0 km/h (0 Bft)
29.09.2019 10:09 12,6 °C 84 % 1012,2 hPa 0,0 mm 0,0 km/h (0 Bft) W 281 ° 0 min 0,000 mm 1,8 UV-I 322 W/m² 10,0 °C 12,6 °C 0,0 km/h (0 Bft)
29.09.2019 10:10 12,7 °C 84 % 1012,2 hPa 0,0 mm 0,0 km/h (0 Bft) W 281 ° 0 min 0,000 mm 2,0 UV-I 367 W/m² 10,1 °C 12,7 °C 0,0 km/h (0 Bft)
29.09.2019 10:11 12,8 °C 84 % 1012,2 hPa 0,0 mm 0,0 km/h (0 Bft) W 281 ° 0 min 0,000 mm 2,1 UV-I 387 W/m² 10,2 °C 12,8 °C 0,0 km/h (0 Bft)
29.09.2019 10:12 12,9 °C 84 % 1012,2 hPa 0,0 mm 0,0 km/h (0 Bft) W 281 ° 0 min 0,000 mm 2,1 UV-I 373 W/m² 10,3 °C 12,9 °C 0,0 km/h (0 Bft)
29.09.2019 10:13 12,9 °C 83 % 1012,3 hPa 0,0 mm 0,0 km/h (0 Bft) W 281 ° 0 min 0,000 mm 2,1 UV-I 392 W/m² 10,1 °C 12,9 °C 0,0 km/h (0 Bft)
29.09.2019 10:14 13,1 °C 83 % 1012,2 hPa 0,0 mm 0,0 km/h (0 Bft) W 281 ° 0 min 0,000 mm 2,1 UV-I 408 W/m² 10,3 °C 13,1 °C 0,0 km/h (0 Bft)
29.09.2019 10:15 13,1 °C 83 % 1012,2 hPa 0,0 mm 0,0 km/h (0 Bft) W 281 ° 0 min 0,000 mm 2,1 UV-I 380 W/m² 10,3 °C 13,1 °C 0,0 km/h (0 Bft)
29.09.2019 10:16 13,1 °C 83 % 1012,2 hPa 0,0 mm 0,0 km/h (0 Bft) W 281 ° 0 min 0,000 mm 2,0 UV-I 380 W/m² 10,3 °C 13,1 °C 0,0 km/h (0 Bft)
29.09.2019 10:17 13,0 °C 83 % 1012,1 hPa 0,0 mm 0,0 km/h (0 Bft) W 281 ° 0 min 0,000 mm 1,5 UV-I 380 W/m² 10,2 °C 13,0 °C 0,0 km/h (0 Bft)
29.09.2019 10:18 13,1 °C 82 % 1012,2 hPa 0,0 mm 0,0 km/h (0 Bft) W 281 ° 0 min 0,000 mm 1,4 UV-I 86 W/m² 10,1 °C 13,1 °C 0,0 km/h (0 Bft)
29.09.2019 10:19 13,1 °C 82 % 1012,2 hPa 0,0 mm 0,0 km/h (0 Bft) W 281 ° 0 min 0,000 mm 1,4 UV-I 91 W/m² 10,1 °C 13,1 °C 0,0 km/h (0 Bft)
29.09.2019 10:20 13,1 °C 82 % 1012,1 hPa 0,0 mm 0,0 km/h (0 Bft) W 281 ° 0 min 0,000 mm 1,6 UV-I 171 W/m² 10,1 °C 13,1 °C 0,0 km/h (0 Bft)
29.09.2019 10:21 13,2 °C 82 % 1012,1 hPa 0,0 mm 0,0 km/h (0 Bft) W 281 ° 0 min 0,000 mm 1,7 UV-I 213 W/m² 10,2 °C 13,2 °C 0,0 km/h (0 Bft)
29.09.2019 10:22 13,2 °C 82 % 1012,1 hPa 0,0 mm 0,0 km/h (0 Bft) W 281 ° 0 min 0,000 mm 1,7 UV-I 172 W/m² 10,2 °C 13,2 °C 0,0 km/h (0 Bft)
29.09.2019 10:23 13,2 °C 81 % 1012,2 hPa 0,0 mm 0,0 km/h (0 Bft) W 281 ° 0 min 0,000 mm 1,6 UV-I 120 W/m² 10,0 °C 13,2 °C 0,0 km/h (0 Bft)
29.09.2019 10:24 13,3 °C 81 % 1012,1 hPa 0,0 mm 0,0 km/h (0 Bft) W 281 ° 0 min 0,000 mm 1,5 UV-I 111 W/m² 10,1 °C 13,3 °C 0,0 km/h (0 Bft)
29.09.2019 10:25 13,3 °C 81 % 1012,1 hPa 0,0 mm 0,0 km/h (0 Bft) W 281 ° 0 min 0,000 mm 1,6 UV-I 121 W/m² 10,1 °C 13,3 °C 0,0 km/h (0 Bft)
29.09.2019 10:26 13,4 °C 81 % 1012,1 hPa 0,0 mm 0,0 km/h (0 Bft) W 281 ° 0 min 0,000 mm 1,6 UV-I 105 W/m² 10,2 °C 13,4 °C 0,0 km/h (0 Bft)
29.09.2019 10:27 13,4 °C 80 % 1012,1 hPa 0,0 mm 0,0 km/h (0 Bft) W 281 ° 0 min 0,000 mm 1,5 UV-I 95 W/m² 10,0 °C 13,4 °C 0,0 km/h (0 Bft)
29.09.2019 10:28 13,4 °C 80 % 1012,1 hPa 0,0 mm 0,0 km/h (0 Bft) W 281 ° 0 min 0,000 mm 1,5 UV-I 88 W/m² 10,0 °C 13,4 °C 0,0 km/h (0 Bft)
29.09.2019 10:29 13,5 °C 79 % 1012,1 hPa 0,0 mm 0,0 km/h (0 Bft) W 281 ° 0 min 0,000 mm 1,5 UV-I 86 W/m² 9,9 °C 13,5 °C 0,0 km/h (0 Bft)
29.09.2019 10:30 13,4 °C 79 % 1012,1 hPa 0,0 mm 0,0 km/h (0 Bft) W 281 ° 0 min 0,000 mm 1,5 UV-I 74 W/m² 9,8 °C 13,4 °C 0,0 km/h (0 Bft)
29.09.2019 10:31 13,5 °C 79 % 1012,1 hPa 0,0 mm 0,0 km/h (0 Bft) W 281 ° 0 min 0,000 mm 1,5 UV-I 62 W/m² 9,9 °C 13,5 °C 0,0 km/h (0 Bft)
29.09.2019 10:32 13,4 °C 79 % 1012,1 hPa 0,2 mm 0,0 km/h (0 Bft) W 281 ° 0 min 0,000 mm 1,5 UV-I 104 W/m² 9,8 °C 13,4 °C 0,0 km/h (0 Bft)
29.09.2019 10:33 13,4 °C 79 % 1012,1 hPa 0,0 mm 0,0 km/h (0 Bft) W 281 ° 0 min 0,000 mm 1,6 UV-I 156 W/m² 9,8 °C 13,4 °C 0,0 km/h (0 Bft)
29.09.2019 10:34 13,4 °C 79 % 1012,1 hPa 0,0 mm 0,0 km/h (0 Bft) W 281 ° 0 min 0,000 mm 1,6 UV-I 132 W/m² 9,8 °C 13,4 °C 0,0 km/h (0 Bft)
29.09.2019 10:35 13,4 °C 79 % 1012,1 hPa 0,0 mm 0,0 km/h (0 Bft) W 281 ° 0 min 0,000 mm 1,8 UV-I 218 W/m² 9,8 °C 13,4 °C 0,0 km/h (0 Bft)
29.09.2019 10:36 13,5 °C 78 % 1012,1 hPa 0,0 mm 0,0 km/h (0 Bft) W 281 ° 0 min 0,000 mm 1,9 UV-I 257 W/m² 9,7 °C 13,5 °C 0,0 km/h (0 Bft)
29.09.2019 10:37 13,7 °C 78 % 1012,2 hPa 0,0 mm 0,0 km/h (0 Bft) W 281 ° 0 min 0,000 mm 2,1 UV-I 322 W/m² 9,9 °C 13,7 °C 0,0 km/h (0 Bft)
29.09.2019 10:38 13,7 °C 78 % 1012,2 hPa 0,0 mm 0,0 km/h (0 Bft) W 281 ° 0 min 0,000 mm 2,1 UV-I 357 W/m² 9,9 °C 13,7 °C 0,0 km/h (0 Bft)
29.09.2019 10:39 13,7 °C 78 % 1012,1 hPa 0,0 mm 0,0 km/h (0 Bft) W 281 ° 0 min 0,000 mm 2,3 UV-I 406 W/m² 9,9 °C 13,7 °C 0,0 km/h (0 Bft)
29.09.2019 10:40 13,7 °C 78 % 1012,1 hPa 0,0 mm 0,0 km/h (0 Bft) W 281 ° 0 min 0,000 mm 2,5 UV-I 469 W/m² 9,9 °C 13,7 °C 0,0 km/h (0 Bft)
29.09.2019 10:41 13,8 °C 78 % 1012,1 hPa 0,0 mm 0,0 km/h (0 Bft) W 281 ° 0 min 0,000 mm 2,7 UV-I 492 W/m² 10,0 °C 13,8 °C 0,0 km/h (0 Bft)
29.09.2019 10:42 13,7 °C 78 % 1012,1 hPa 0,0 mm 0,0 km/h (0 Bft) W 281 ° 0 min 0,000 mm 2,7 UV-I 497 W/m² 9,9 °C 13,7 °C 0,0 km/h (0 Bft)
29.09.2019 10:43 13,8 °C 78 % 1012,1 hPa 0,0 mm 0,0 km/h (0 Bft) W 281 ° 0 min 0,000 mm 2,7 UV-I 499 W/m² 10,0 °C 13,8 °C 0,0 km/h (0 Bft)
29.09.2019 10:44 13,8 °C 77 % 1012,0 hPa 0,0 mm 0,0 km/h (0 Bft) W 281 ° 0 min 0,000 mm 2,8 UV-I 499 W/m² 9,8 °C 13,8 °C 0,0 km/h (0 Bft)
29.09.2019 10:45 13,8 °C 78 % 1012,0 hPa 0,0 mm 0,0 km/h (0 Bft) W 281 ° 0 min 0,000 mm 2,8 UV-I 503 W/m² 10,0 °C 13,8 °C 0,0 km/h (0 Bft)
29.09.2019 10:46 13,8 °C 78 % 1012,0 hPa 0,0 mm 0,0 km/h (0 Bft) W 281 ° 0 min 0,000 mm 2,8 UV-I 503 W/m² 10,0 °C 13,8 °C 0,0 km/h (0 Bft)
29.09.2019 10:47 13,8 °C 79 % 1012,0 hPa 0,0 mm 0,0 km/h (0 Bft) W 281 ° 0 min 0,000 mm 2,8 UV-I 504 W/m² 10,2 °C 13,8 °C 0,0 km/h (0 Bft)
29.09.2019 10:48 13,8 °C 78 % 1012,0 hPa 0,0 mm 0,0 km/h (0 Bft) W 281 ° 0 min 0,000 mm 2,9 UV-I 506 W/m² 10,0 °C 13,8 °C 0,0 km/h (0 Bft)
29.09.2019 10:49 13,8 °C 78 % 1012,0 hPa 0,0 mm 0,0 km/h (0 Bft) W 281 ° 0 min 0,000 mm 2,9 UV-I 512 W/m² 10,0 °C 13,8 °C 0,0 km/h (0 Bft)
29.09.2019 10:50 13,8 °C 78 % 1011,9 hPa 0,0 mm 0,0 km/h (0 Bft) W 281 ° 0 min 0,000 mm 3,0 UV-I 513 W/m² 10,0 °C 13,8 °C 0,0 km/h (0 Bft)
29.09.2019 10:51 13,8 °C 78 % 1011,9 hPa 0,0 mm 0,0 km/h (0 Bft) W 281 ° 0 min 0,000 mm 3,0 UV-I 515 W/m² 10,0 °C 13,8 °C 0,0 km/h (0 Bft)
29.09.2019 10:52 13,8 °C 77 % 1011,9 hPa 0,0 mm 0,0 km/h (0 Bft) W 281 ° 0 min 0,000 mm 3,0 UV-I 517 W/m² 9,8 °C 13,8 °C 0,0 km/h (0 Bft)
29.09.2019 10:53 14,1 °C 76 % 1011,9 hPa 0,0 mm 0,0 km/h (0 Bft) W 281 ° 0 min 0,000 mm 3,1 UV-I 517 W/m² 9,9 °C 14,1 °C 0,0 km/h (0 Bft)
29.09.2019 10:54 14,2 °C 75 % 1011,8 hPa 0,0 mm 0,0 km/h (0 Bft) W 281 ° 0 min 0,000 mm 3,1 UV-I 522 W/m² 9,8 °C 14,2 °C 0,0 km/h (0 Bft)
29.09.2019 10:55 14,3 °C 75 % 1011,8 hPa 0,0 mm 0,0 km/h (0 Bft) W 281 ° 0 min 0,000 mm 3,1 UV-I 522 W/m² 9,9 °C 14,3 °C 0,0 km/h (0 Bft)
29.09.2019 10:56 14,3 °C 76 % 1011,8 hPa 0,0 mm 0,0 km/h (0 Bft) W 281 ° 0 min 0,000 mm 3,1 UV-I 526 W/m² 10,1 °C 14,3 °C 0,0 km/h (0 Bft)
29.09.2019 10:57 14,3 °C 75 % 1011,8 hPa 0,0 mm 0,0 km/h (0 Bft) W 281 ° 0 min 0,000 mm 3,1 UV-I 526 W/m² 9,9 °C 14,3 °C 0,0 km/h (0 Bft)
29.09.2019 10:58 14,4 °C 74 % 1011,7 hPa 0,0 mm 0,0 km/h (0 Bft) W 281 ° 0 min 0,000 mm 3,1 UV-I 527 W/m² 9,8 °C 14,4 °C 0,0 km/h (0 Bft)
29.09.2019 10:59 14,4 °C 74 % 1011,7 hPa 0,0 mm 0,0 km/h (0 Bft) W 281 ° 0 min 0,000 mm 3,2 UV-I 529 W/m² 9,8 °C 14,4 °C 0,0 km/h (0 Bft)
29.09.2019 11:00 14,4 °C 75 % 1011,7 hPa 0,0 mm 0,0 km/h (0 Bft) W 281 ° 0 min 0,000 mm 3,2 UV-I 533 W/m² 10,0 °C 14,4 °C 0,0 km/h (0 Bft)
29.09.2019 11:01 14,4 °C 75 % 1011,7 hPa 0,0 mm 0,0 km/h (0 Bft) W 281 ° 0 min 0,152 mm 3,2 UV-I 534 W/m² 10,0 °C 14,4 °C 0,0 km/h (0 Bft)
29.09.2019 11:02 14,4 °C 75 % 1011,6 hPa 0,0 mm 0,0 km/h (0 Bft) W 281 ° 0 min 0,000 mm 3,2 UV-I 536 W/m² 10,0 °C 14,4 °C 0,0 km/h (0 Bft)
29.09.2019 11:03 14,4 °C 74 % 1011,6 hPa 0,0 mm 0,0 km/h (0 Bft) W 281 ° 0 min 0,000 mm 3,2 UV-I 536 W/m² 9,8 °C 14,4 °C 0,0 km/h (0 Bft)
29.09.2019 11:04 14,5 °C 76 % 1011,6 hPa 0,0 mm 0,0 km/h (0 Bft) W 281 ° 0 min 0,000 mm 3,3 UV-I 538 W/m² 10,3 °C 14,5 °C 0,0 km/h (0 Bft)
29.09.2019 11:05 14,6 °C 75 % 1011,6 hPa 0,0 mm 0,0 km/h (0 Bft) W 281 ° 0 min 0,000 mm 3,3 UV-I 540 W/m² 10,2 °C 14,6 °C 0,0 km/h (0 Bft)
29.09.2019 11:06 14,7 °C 75 % 1011,6 hPa 0,0 mm 0,0 km/h (0 Bft) W 281 ° 0 min 0,000 mm 3,3 UV-I 541 W/m² 10,3 °C 14,7 °C 0,0 km/h (0 Bft)
29.09.2019 11:07 14,7 °C 74 % 1011,6 hPa 0,0 mm 0,0 km/h (0 Bft) W 281 ° 0 min 0,000 mm 3,3 UV-I 545 W/m² 10,1 °C 14,7 °C 0,0 km/h (0 Bft)
29.09.2019 11:08 14,6 °C 74 % 1011,6 hPa 0,0 mm 0,0 km/h (0 Bft) W 281 ° 0 min 0,000 mm 3,4 UV-I 547 W/m² 10,0 °C 14,6 °C 0,0 km/h (0 Bft)
29.09.2019 11:09 14,4 °C 75 % 1011,6 hPa 0,0 mm 0,0 km/h (0 Bft) W 281 ° 0 min 0,000 mm 3,4 UV-I 548 W/m² 10,0 °C 14,4 °C 0,0 km/h (0 Bft)
29.09.2019 11:10 14,4 °C 73 % 1011,5 hPa 0,0 mm 0,0 km/h (0 Bft) W 281 ° 0 min 0,000 mm 3,4 UV-I 550 W/m² 9,6 °C 14,4 °C 0,0 km/h (0 Bft)
29.09.2019 11:11 14,6 °C 74 % 1011,5 hPa 0,0 mm 0,0 km/h (0 Bft) W 281 ° 0 min 0,000 mm 3,4 UV-I 550 W/m² 10,0 °C 14,6 °C 0,0 km/h (0 Bft)
29.09.2019 11:12 14,7 °C 77 % 1011,6 hPa 0,0 mm 0,0 km/h (0 Bft) W 281 ° 0 min 0,000 mm 3,4 UV-I 554 W/m² 10,7 °C 14,7 °C 0,0 km/h (0 Bft)
29.09.2019 11:13 14,7 °C 74 % 1011,6 hPa 0,0 mm 0,0 km/h (0 Bft) W 281 ° 0 min 0,000 mm 3,4 UV-I 554 W/m² 10,1 °C 14,7 °C 0,0 km/h (0 Bft)
29.09.2019 11:14 14,8 °C 73 % 1011,5 hPa 0,0 mm 0,0 km/h (0 Bft) W 281 ° 0 min 0,000 mm 3,5 UV-I 555 W/m² 10,0 °C 14,8 °C 0,0 km/h (0 Bft)
29.09.2019 11:15 14,8 °C 74 % 1011,6 hPa 0,0 mm 0,0 km/h (0 Bft) W 281 ° 0 min 0,000 mm 3,5 UV-I 557 W/m² 10,2 °C 14,8 °C 0,0 km/h (0 Bft)
29.09.2019 11:16 14,8 °C 73 % 1011,6 hPa 0,0 mm 0,0 km/h (0 Bft) W 281 ° 0 min 0,000 mm 3,5 UV-I 557 W/m² 10,0 °C 14,8 °C 0,0 km/h (0 Bft)
29.09.2019 11:17 14,9 °C 73 % 1011,5 hPa 0,0 mm 0,0 km/h (0 Bft) W 281 ° 0 min 0,000 mm 3,5 UV-I 559 W/m² 10,1 °C 14,9 °C 0,0 km/h (0 Bft)
29.09.2019 11:18 15,1 °C 77 % 1011,5 hPa 0,0 mm 0,0 km/h (0 Bft) W 281 ° 0 min 0,000 mm 3,5 UV-I 563 W/m² 11,1 °C 15,1 °C 0,0 km/h (0 Bft)
29.09.2019 11:19 15,3 °C 74 % 1011,5 hPa 0,0 mm 5,5 km/h (1 Bft) N 9 ° 0 min 0,000 mm 3,5 UV-I 564 W/m² 10,7 °C 15,3 °C 8,0 km/h (2 Bft)
29.09.2019 11:20 15,5 °C 72 % 1011,5 hPa 0,0 mm 2,4 km/h (1 Bft) N 9 ° 0 min 0,000 mm 3,6 UV-I 564 W/m² 10,5 °C 15,5 °C 3,2 km/h (1 Bft)
29.09.2019 11:21 15,5 °C 74 % 1011,4 hPa 0,0 mm 1,3 km/h (1 Bft) N-NO 18 ° 0 min 0,000 mm 3,6 UV-I 568 W/m² 10,9 °C 15,5 °C 3,2 km/h (1 Bft)
29.09.2019 11:22 15,4 °C 73 % 1011,4 hPa 0,0 mm 2,2 km/h (1 Bft) N 5 ° 0 min 0,000 mm 3,6 UV-I 568 W/m² 10,6 °C 15,4 °C 4,8 km/h (1 Bft)
29.09.2019 11:23 15,3 °C 73 % 1011,4 hPa 0,0 mm 4,3 km/h (1 Bft) N 5 ° 0 min 0,000 mm 3,6 UV-I 570 W/m² 10,5 °C 15,3 °C 6,4 km/h (2 Bft)
29.09.2019 11:24 15,2 °C 73 % 1011,4 hPa 0,0 mm 4,0 km/h (1 Bft) N 10 ° 0 min 0,000 mm 3,6 UV-I 573 W/m² 10,4 °C 15,2 °C 4,8 km/h (1 Bft)
29.09.2019 11:25 15,3 °C 73 % 1011,3 hPa 0,0 mm 1,7 km/h (1 Bft) N 10 ° 0 min 0,000 mm 3,6 UV-I 573 W/m² 10,5 °C 15,3 °C 4,8 km/h (1 Bft)
29.09.2019 11:26 15,2 °C 72 % 1011,3 hPa 0,0 mm 1,0 km/h (0 Bft) N 10 ° 0 min 0,000 mm 3,6 UV-I 575 W/m² 10,2 °C 15,2 °C 3,2 km/h (1 Bft)
29.09.2019 11:27 15,2 °C 73 % 1011,2 hPa 0,0 mm 0,1 km/h (0 Bft) N 10 ° 0 min 0,000 mm 3,7 UV-I 577 W/m² 10,4 °C 15,2 °C 1,6 km/h (1 Bft)
29.09.2019 11:28 15,2 °C 76 % 1011,2 hPa 0,0 mm 1,4 km/h (1 Bft) N 10 ° 0 min 0,000 mm 3,7 UV-I 578 W/m² 11,0 °C 15,2 °C 3,2 km/h (1 Bft)
29.09.2019 11:29 15,3 °C 73 % 1011,2 hPa 0,0 mm 2,9 km/h (1 Bft) N 10 ° 0 min 0,000 mm 3,7 UV-I 578 W/m² 10,5 °C 15,3 °C 3,2 km/h (1 Bft)
29.09.2019 11:30 15,6 °C 72 % 1011,2 hPa 0,0 mm 2,5 km/h (1 Bft) N 10 ° 0 min 0,000 mm 3,7 UV-I 582 W/m² 10,6 °C 15,6 °C 3,2 km/h (1 Bft)
29.09.2019 11:31 15,7 °C 70 % 1011,2 hPa 0,0 mm 1,5 km/h (1 Bft) N 10 ° 0 min 0,000 mm 3,7 UV-I 582 W/m² 10,2 °C 15,7 °C 3,2 km/h (1 Bft)
29.09.2019 11:32 15,9 °C 71 % 1011,2 hPa 0,0 mm 0,0 km/h (0 Bft) N 10 ° 0 min 0,000 mm 3,7 UV-I 582 W/m² 10,6 °C 15,9 °C 0,0 km/h (0 Bft)
29.09.2019 11:33 15,9 °C 69 % 1011,2 hPa 0,0 mm 0,0 km/h (0 Bft) N 10 ° 0 min 0,000 mm 3,7 UV-I 584 W/m² 10,2 °C 15,9 °C 0,0 km/h (0 Bft)
29.09.2019 11:34 16,1 °C 72 % 1011,1 hPa 0,0 mm 0,0 km/h (0 Bft) N 10 ° 0 min 0,000 mm 3,8 UV-I 584 W/m² 11,0 °C 16,1 °C 0,0 km/h (0 Bft)
29.09.2019 11:35 16,2 °C 71 % 1011,1 hPa 0,0 mm 0,0 km/h (0 Bft) N 10 ° 0 min 0,000 mm 3,8 UV-I 587 W/m² 10,9 °C 16,2 °C 0,0 km/h (0 Bft)
29.09.2019 11:36 16,2 °C 72 % 1011,1 hPa 0,0 mm 0,0 km/h (0 Bft) N 10 ° 0 min 0,000 mm 3,8 UV-I 589 W/m² 11,1 °C 16,2 °C 0,0 km/h (0 Bft)
29.09.2019 11:37 16,1 °C 70 % 1011,1 hPa 0,0 mm 0,0 km/h (0 Bft) N 10 ° 0 min 0,000 mm 3,8 UV-I 591 W/m² 10,6 °C 16,1 °C 0,0 km/h (0 Bft)
29.09.2019 11:38 15,8 °C 69 % 1011,0 hPa 0,0 mm 1,4 km/h (1 Bft) N 360 ° 0 min 0,000 mm 3,8 UV-I 592 W/m² 10,1 °C 15,8 °C 6,4 km/h (2 Bft)
29.09.2019 11:39 15,7 °C 72 % 1011,0 hPa 0,0 mm 1,1 km/h (1 Bft) N 360 ° 0 min 0,000 mm 3,8 UV-I 592 W/m² 10,7 °C 15,7 °C 4,8 km/h (1 Bft)
29.09.2019 11:40 15,8 °C 71 % 1011,0 hPa 0,0 mm 2,0 km/h (1 Bft) N 360 ° 0 min 0,000 mm 3,9 UV-I 594 W/m² 10,6 °C 15,8 °C 4,8 km/h (1 Bft)
29.09.2019 11:41 15,9 °C 72 % 1010,9 hPa 0,0 mm 3,6 km/h (1 Bft) N-NO 22 ° 0 min 0,000 mm 3,9 UV-I 596 W/m² 10,9 °C 15,9 °C 4,8 km/h (1 Bft)
29.09.2019 11:42 15,9 °C 72 % 1011,0 hPa 0,2 mm 5,1 km/h (1 Bft) O-NO 61 ° 0 min 0,000 mm 3,9 UV-I 598 W/m² 10,9 °C 15,9 °C 6,4 km/h (2 Bft)
29.09.2019 11:43 16,0 °C 71 % 1010,9 hPa 0,0 mm 4,1 km/h (1 Bft) O-NO 57 ° 0 min 0,000 mm 3,9 UV-I 598 W/m² 10,7 °C 16,0 °C 4,8 km/h (1 Bft)
29.09.2019 11:44 16,2 °C 70 % 1010,9 hPa 0,0 mm 2,7 km/h (1 Bft) NO 49 ° 0 min 0,000 mm 3,9 UV-I 599 W/m² 10,7 °C 16,2 °C 4,8 km/h (1 Bft)
29.09.2019 11:45 16,3 °C 71 % 1010,9 hPa 0,0 mm 2,8 km/h (1 Bft) NO 50 ° 1 min 0,000 mm 3,9 UV-I 601 W/m² 11,0 °C 16,3 °C 4,8 km/h (1 Bft)
29.09.2019 11:46 16,2 °C 73 % 1010,8 hPa 0,0 mm 1,2 km/h (1 Bft) NO 50 ° 1 min 0,000 mm 3,9 UV-I 601 W/m² 11,4 °C 16,2 °C 3,2 km/h (1 Bft)
29.09.2019 11:47 16,2 °C 72 % 1010,9 hPa 0,0 mm 1,7 km/h (1 Bft) NO 50 ° 1 min 0,000 mm 3,9 UV-I 605 W/m² 11,1 °C 16,2 °C 4,8 km/h (1 Bft)
29.09.2019 11:48 16,2 °C 72 % 1010,9 hPa 0,0 mm 4,6 km/h (1 Bft) NO 49 ° 1 min 0,000 mm 3,9 UV-I 605 W/m² 11,1 °C 16,2 °C 6,4 km/h (2 Bft)
29.09.2019 11:49 16,3 °C 70 % 1010,9 hPa 0,0 mm 3,3 km/h (1 Bft) O-NO 60 ° 1 min 0,000 mm 4,0 UV-I 605 W/m² 10,8 °C 16,3 °C 4,8 km/h (1 Bft)
29.09.2019 11:50 16,5 °C 69 % 1010,9 hPa 0,0 mm 0,1 km/h (0 Bft) O-NO 60 ° 1 min 0,000 mm 4,0 UV-I 606 W/m² 10,8 °C 16,5 °C 1,6 km/h (1 Bft)
29.09.2019 11:51 16,6 °C 69 % 1010,9 hPa 0,0 mm 3,4 km/h (1 Bft) N-NO 26 ° 1 min 0,000 mm 4,0 UV-I 608 W/m² 10,9 °C 16,6 °C 6,4 km/h (2 Bft)
29.09.2019 11:52 16,4 °C 69 % 1010,9 hPa 0,0 mm 0,5 km/h (0 Bft) N-NO 30 ° 1 min 0,000 mm 4,0 UV-I 610 W/m² 10,7 °C 16,4 °C 1,6 km/h (1 Bft)
29.09.2019 11:53 16,4 °C 73 % 1010,9 hPa 0,0 mm 2,8 km/h (1 Bft) N-NO 30 ° 1 min 0,000 mm 4,0 UV-I 610 W/m² 11,5 °C 16,4 °C 4,8 km/h (1 Bft)
29.09.2019 11:54 16,5 °C 74 % 1010,9 hPa 0,0 mm 0,2 km/h (0 Bft) N-NO 30 ° 1 min 0,000 mm 4,0 UV-I 612 W/m² 11,8 °C 16,5 °C 1,6 km/h (1 Bft)
29.09.2019 11:55 16,4 °C 69 % 1010,8 hPa 0,0 mm 0,7 km/h (0 Bft) N-NO 30 ° 1 min 0,000 mm 4,0 UV-I 613 W/m² 10,7 °C 16,4 °C 1,6 km/h (1 Bft)
29.09.2019 11:56 16,5 °C 71 % 1010,8 hPa 0,0 mm 1,7 km/h (1 Bft) N-NO 30 ° 1 min 0,000 mm 4,0 UV-I 615 W/m² 11,2 °C 16,5 °C 3,2 km/h (1 Bft)
29.09.2019 11:57 16,5 °C 72 % 1010,8 hPa 0,0 mm 2,0 km/h (1 Bft) N 9 ° 1 min 0,000 mm 4,0 UV-I 615 W/m² 11,4 °C 16,5 °C 3,2 km/h (1 Bft)
29.09.2019 11:58 16,7 °C 75 % 1010,9 hPa 0,0 mm 3,5 km/h (1 Bft) N 10 ° 1 min 0,000 mm 4,0 UV-I 615 W/m² 12,2 °C 16,7 °C 6,4 km/h (2 Bft)
29.09.2019 11:59 16,8 °C 73 % 1010,9 hPa 0,0 mm 3,0 km/h (1 Bft) N 10 ° 1 min 0,000 mm 4,0 UV-I 615 W/m² 11,9 °C 16,8 °C 4,8 km/h (1 Bft)
29.09.2019 12:00 16,9 °C 73 % 1010,8 hPa 0,0 mm 2,2 km/h (1 Bft) N 10 ° 1 min 0,000 mm 4,1 UV-I 617 W/m² 12,0 °C 16,9 °C 3,2 km/h (1 Bft)
29.09.2019 12:01 17,1 °C 74 % 1010,8 hPa 0,0 mm 0,0 km/h (0 Bft) N 10 ° 1 min 0,305 mm 4,1 UV-I 619 W/m² 12,4 °C 17,1 °C 0,0 km/h (0 Bft)
29.09.2019 12:02 16,9 °C 69 % 1010,8 hPa 0,0 mm 3,4 km/h (1 Bft) O 80 ° 1 min 0,000 mm 4,1 UV-I 619 W/m² 11,2 °C 16,9 °C 4,8 km/h (1 Bft)
29.09.2019 12:03 16,8 °C 69 % 1010,8 hPa 0,0 mm 1,4 km/h (1 Bft) O 80 ° 1 min 0,000 mm 4,1 UV-I 619 W/m² 11,1 °C 16,8 °C 3,2 km/h (1 Bft)
29.09.2019 12:04 16,8 °C 68 % 1010,7 hPa 0,0 mm 0,6 km/h (0 Bft) O 81 ° 1 min 0,000 mm 4,1 UV-I 621 W/m² 10,9 °C 16,8 °C 3,2 km/h (1 Bft)
29.09.2019 12:05 16,7 °C 72 % 1010,8 hPa 0,0 mm 3,6 km/h (1 Bft) O 82 ° 1 min 0,000 mm 4,1 UV-I 622 W/m² 11,6 °C 16,7 °C 6,4 km/h (2 Bft)
29.09.2019 12:06 16,7 °C 71 % 1010,7 hPa 0,0 mm 2,4 km/h (1 Bft) O 86 ° 1 min 0,000 mm 4,1 UV-I 622 W/m² 11,4 °C 16,7 °C 8,0 km/h (2 Bft)
29.09.2019 12:07 16,8 °C 71 % 1010,7 hPa 0,0 mm 4,5 km/h (1 Bft) O-NO 64 ° 1 min 0,000 mm 4,1 UV-I 624 W/m² 11,5 °C 16,8 °C 8,0 km/h (2 Bft)
29.09.2019 12:08 16,8 °C 70 % 1010,7 hPa 0,0 mm 0,4 km/h (0 Bft) O-NO 64 ° 1 min 0,000 mm 4,1 UV-I 626 W/m² 11,3 °C 16,8 °C 1,6 km/h (1 Bft)
29.09.2019 12:09 16,7 °C 71 % 1010,7 hPa 0,0 mm 1,2 km/h (1 Bft) O-NO 64 ° 1 min 0,000 mm 4,1 UV-I 626 W/m² 11,4 °C 16,7 °C 3,2 km/h (1 Bft)
29.09.2019 12:10 16,8 °C 73 % 1010,7 hPa 0,0 mm 0,0 km/h (0 Bft) O-NO 64 ° 1 min 0,000 mm 4,1 UV-I 628 W/m² 11,9 °C 16,8 °C 0,0 km/h (0 Bft)
29.09.2019 12:11 16,8 °C 70 % 1010,7 hPa 0,0 mm 0,0 km/h (0 Bft) O-NO 64 ° 1 min 0,000 mm 4,2 UV-I 628 W/m² 11,3 °C 16,8 °C 0,0 km/h (0 Bft)
29.09.2019 12:12 16,8 °C 70 % 1010,7 hPa 0,0 mm 0,0 km/h (0 Bft) O-NO 64 ° 1 min 0,000 mm 4,2 UV-I 629 W/m² 11,3 °C 16,8 °C 0,0 km/h (0 Bft)
29.09.2019 12:13 16,8 °C 72 % 1010,7 hPa 0,0 mm 0,0 km/h (0 Bft) O-NO 64 ° 1 min 0,000 mm 4,2 UV-I 629 W/m² 11,7 °C 16,8 °C 0,0 km/h (0 Bft)
29.09.2019 12:14 16,9 °C 75 % 1010,7 hPa 0,0 mm 0,0 km/h (0 Bft) O-NO 64 ° 1 min 0,000 mm 4,2 UV-I 629 W/m² 12,4 °C 16,9 °C 0,0 km/h (0 Bft)
29.09.2019 12:15 17,1 °C 75 % 1010,7 hPa 0,0 mm 0,0 km/h (0 Bft) O-NO 64 ° 1 min 0,000 mm 4,2 UV-I 631 W/m² 12,6 °C 17,1 °C 0,0 km/h (0 Bft)
29.09.2019 12:16 16,9 °C 75 % 1010,6 hPa 0,0 mm 0,0 km/h (0 Bft) O-NO 64 ° 1 min 0,000 mm 4,2 UV-I 631 W/m² 12,4 °C 16,9 °C 0,0 km/h (0 Bft)
29.09.2019 12:17 16,9 °C 74 % 1010,6 hPa 0,0 mm 0,0 km/h (0 Bft) O-NO 64 ° 1 min 0,000 mm 4,2 UV-I 633 W/m² 12,2 °C 16,9 °C 0,0 km/h (0 Bft)
29.09.2019 12:18 17,1 °C 76 % 1010,6 hPa 0,0 mm 0,0 km/h (0 Bft) O 81 ° 1 min 0,000 mm 4,3 UV-I 636 W/m² 12,8 °C 17,1 °C 0,0 km/h (0 Bft)
29.09.2019 12:19 17,1 °C 72 % 1010,6 hPa 0,0 mm 0,0 km/h (0 Bft) O 81 ° 1 min 0,000 mm 4,3 UV-I 642 W/m² 12,0 °C 17,1 °C 0,0 km/h (0 Bft)
29.09.2019 12:20 17,1 °C 73 % 1010,6 hPa 0,0 mm 0,0 km/h (0 Bft) O 81 ° 1 min 0,000 mm 4,3 UV-I 643 W/m² 12,2 °C 17,1 °C 0,0 km/h (0 Bft)
29.09.2019 12:21 17,0 °C 72 % 1010,5 hPa 0,0 mm 0,0 km/h (0 Bft) O 80 ° 1 min 0,000 mm 4,3 UV-I 643 W/m² 11,9 °C 17,0 °C 0,0 km/h (0 Bft)
29.09.2019 12:22 17,0 °C 72 % 1010,5 hPa 0,2 mm 0,0 km/h (0 Bft) O 80 ° 1 min 0,000 mm 4,3 UV-I 643 W/m² 11,9 °C 17,0 °C 0,0 km/h (0 Bft)
29.09.2019 12:23 17,1 °C 72 % 1010,5 hPa 0,0 mm 0,0 km/h (0 Bft) O 80 ° 1 min 0,000 mm 4,3 UV-I 642 W/m² 12,0 °C 17,1 °C 0,0 km/h (0 Bft)
29.09.2019 12:24 17,3 °C 74 % 1010,5 hPa 0,0 mm 2,3 km/h (1 Bft) NO 34 ° 1 min 0,000 mm 4,3 UV-I 638 W/m² 12,6 °C 17,3 °C 6,4 km/h (2 Bft)
29.09.2019 12:25 17,5 °C 71 % 1010,5 hPa 0,0 mm 4,4 km/h (1 Bft) N-NO 24 ° 1 min 0,000 mm 4,3 UV-I 647 W/m² 12,2 °C 17,5 °C 6,4 km/h (2 Bft)
29.09.2019 12:26 17,6 °C 70 % 1010,5 hPa 0,0 mm 5,6 km/h (1 Bft) NO 36 ° 0 min 0,000 mm 4,1 UV-I 564 W/m² 12,1 °C 17,6 °C 8,0 km/h (2 Bft)
29.09.2019 12:27 17,6 °C 70 % 1010,5 hPa 0,0 mm 3,0 km/h (1 Bft) NO 36 ° 1 min 0,000 mm 4,3 UV-I 649 W/m² 12,1 °C 17,6 °C 3,2 km/h (1 Bft)
29.09.2019 12:28 17,7 °C 72 % 1010,4 hPa 0,0 mm 0,0 km/h (0 Bft) NO 36 ° 1 min 0,000 mm 4,3 UV-I 645 W/m² 12,6 °C 17,7 °C 0,0 km/h (0 Bft)
29.09.2019 12:29 17,7 °C 72 % 1010,4 hPa 0,0 mm 0,0 km/h (0 Bft) NO 36 ° 1 min 0,000 mm 4,3 UV-I 642 W/m² 12,6 °C 17,7 °C 0,0 km/h (0 Bft)
29.09.2019 12:30 17,6 °C 71 % 1010,4 hPa 0,0 mm 0,0 km/h (0 Bft) NO 36 ° 1 min 0,000 mm 4,3 UV-I 608 W/m² 12,3 °C 17,6 °C 0,0 km/h (0 Bft)
29.09.2019 12:31 17,4 °C 70 % 1010,4 hPa 0,0 mm 1,0 km/h (0 Bft) NO 36 ° 1 min 0,000 mm 4,4 UV-I 650 W/m² 11,9 °C 17,4 °C 3,2 km/h (1 Bft)
29.09.2019 12:32 17,4 °C 70 % 1010,4 hPa 0,0 mm 0,3 km/h (0 Bft) NO 36 ° 1 min 0,000 mm 4,4 UV-I 652 W/m² 11,9 °C 17,4 °C 1,6 km/h (1 Bft)
29.09.2019 12:33 17,4 °C 70 % 1010,4 hPa 0,0 mm 0,3 km/h (0 Bft) NO 36 ° 1 min 0,000 mm 4,4 UV-I 650 W/m² 11,9 °C 17,4 °C 1,6 km/h (1 Bft)
29.09.2019 12:34 17,6 °C 70 % 1010,4 hPa 0,0 mm 1,0 km/h (0 Bft) NO 36 ° 1 min 0,000 mm 4,4 UV-I 645 W/m² 12,1 °C 17,6 °C 3,2 km/h (1 Bft)
29.09.2019 12:35 17,5 °C 72 % 1010,3 hPa 0,0 mm 3,8 km/h (1 Bft) O-NO 74 ° 1 min 0,000 mm 4,3 UV-I 645 W/m² 12,4 °C 17,5 °C 6,4 km/h (2 Bft)
29.09.2019 12:36 17,3 °C 74 % 1010,3 hPa 0,0 mm 0,0 km/h (0 Bft) O-NO 74 ° 1 min 0,000 mm 4,4 UV-I 647 W/m² 12,6 °C 17,3 °C 0,0 km/h (0 Bft)
29.09.2019 12:37 17,3 °C 72 % 1010,3 hPa 0,0 mm 0,0 km/h (0 Bft) O-NO 74 ° 1 min 0,000 mm 4,4 UV-I 645 W/m² 12,2 °C 17,3 °C 0,0 km/h (0 Bft)
29.09.2019 12:38 17,5 °C 70 % 1010,3 hPa 0,0 mm 1,3 km/h (1 Bft) NO 54 ° 1 min 0,000 mm 4,4 UV-I 645 W/m² 12,0 °C 17,5 °C 3,2 km/h (1 Bft)
29.09.2019 12:39 17,6 °C 71 % 1010,3 hPa 0,0 mm 1,2 km/h (1 Bft) NO 54 ° 1 min 0,000 mm 4,4 UV-I 645 W/m² 12,3 °C 17,6 °C 3,2 km/h (1 Bft)
29.09.2019 12:40 17,7 °C 69 % 1010,3 hPa 0,0 mm 0,5 km/h (0 Bft) O-NO 57 ° 1 min 0,000 mm 4,4 UV-I 647 W/m² 11,9 °C 17,7 °C 1,6 km/h (1 Bft)
29.09.2019 12:41 17,8 °C 73 % 1010,3 hPa 0,0 mm 1,5 km/h (1 Bft) O-NO 57 ° 1 min 0,000 mm 4,4 UV-I 649 W/m² 12,9 °C 17,8 °C 4,8 km/h (1 Bft)
29.09.2019 12:42 17,6 °C 71 % 1010,2 hPa 0,0 mm 1,7 km/h (1 Bft) O-NO 57 ° 1 min 0,000 mm 4,4 UV-I 649 W/m² 12,3 °C 17,6 °C 4,8 km/h (1 Bft)
29.09.2019 12:43 17,6 °C 72 % 1010,2 hPa 0,0 mm 0,8 km/h (0 Bft) O-NO 57 ° 1 min 0,000 mm 4,4 UV-I 647 W/m² 12,5 °C 17,6 °C 1,6 km/h (1 Bft)
29.09.2019 12:44 17,4 °C 71 % 1010,2 hPa 0,0 mm 1,0 km/h (0 Bft) O-NO 59 ° 1 min 0,000 mm 4,4 UV-I 649 W/m² 12,1 °C 17,4 °C 4,8 km/h (1 Bft)
29.09.2019 12:45 17,2 °C 72 % 1010,2 hPa 0,0 mm 2,9 km/h (1 Bft) O-NO 60 ° 1 min 0,000 mm 4,4 UV-I 649 W/m² 12,1 °C 17,2 °C 6,4 km/h (2 Bft)
29.09.2019 12:46 17,1 °C 73 % 1010,2 hPa 0,0 mm 0,7 km/h (0 Bft) O-NO 60 ° 1 min 0,000 mm 4,4 UV-I 650 W/m² 12,2 °C 17,1 °C 1,6 km/h (1 Bft)
29.09.2019 12:47 17,1 °C 72 % 1010,2 hPa 0,0 mm 0,0 km/h (0 Bft) O-NO 60 ° 1 min 0,000 mm 4,4 UV-I 649 W/m² 12,0 °C 17,1 °C 0,0 km/h (0 Bft)
29.09.2019 12:48 17,2 °C 77 % 1010,2 hPa 0,0 mm 0,0 km/h (0 Bft) O-NO 60 ° 1 min 0,000 mm 4,4 UV-I 649 W/m² 13,1 °C 17,2 °C 0,0 km/h (0 Bft)
29.09.2019 12:49 17,3 °C 74 % 1010,1 hPa 0,0 mm 0,0 km/h (0 Bft) O-NO 60 ° 1 min 0,000 mm 4,4 UV-I 650 W/m² 12,6 °C 17,3 °C 0,0 km/h (0 Bft)
29.09.2019 12:50 17,4 °C 72 % 1010,0 hPa 0,0 mm 0,0 km/h (0 Bft) O-NO 60 ° 1 min 0,000 mm 4,4 UV-I 650 W/m² 12,3 °C 17,4 °C 0,0 km/h (0 Bft)
29.09.2019 12:51 17,6 °C 71 % 1010,0 hPa 0,0 mm 0,0 km/h (0 Bft) O-NO 60 ° 1 min 0,000 mm 4,4 UV-I 650 W/m² 12,3 °C 17,6 °C 0,0 km/h (0 Bft)
29.09.2019 12:52 17,7 °C 71 % 1010,0 hPa 0,0 mm 0,0 km/h (0 Bft) O-NO 60 ° 1 min 0,000 mm 4,4 UV-I 650 W/m² 12,4 °C 17,7 °C 0,0 km/h (0 Bft)
29.09.2019 12:53 17,6 °C 72 % 1010,0 hPa 0,0 mm 0,0 km/h (0 Bft) O-NO 60 ° 1 min 0,000 mm 4,4 UV-I 650 W/m² 12,5 °C 17,6 °C 0,0 km/h (0 Bft)
29.09.2019 12:54 17,6 °C 75 % 1010,0 hPa 0,0 mm 0,0 km/h (0 Bft) O-NO 60 ° 1 min 0,000 mm 4,4 UV-I 650 W/m² 13,1 °C 17,6 °C 0,0 km/h (0 Bft)
29.09.2019 12:55 17,6 °C 75 % 1010,0 hPa 0,0 mm 2,1 km/h (1 Bft) O-NO 60 ° 1 min 0,000 mm 4,4 UV-I 650 W/m² 13,1 °C 17,6 °C 4,8 km/h (1 Bft)
29.09.2019 12:56 17,6 °C 74 % 1010,0 hPa 0,0 mm 1,2 km/h (1 Bft) O-NO 60 ° 1 min 0,000 mm 4,4 UV-I 652 W/m² 12,9 °C 17,6 °C 3,2 km/h (1 Bft)
29.09.2019 12:57 17,6 °C 70 % 1010,0 hPa 0,0 mm 0,2 km/h (0 Bft) O-NO 60 ° 1 min 0,000 mm 4,4 UV-I 652 W/m² 12,1 °C 17,6 °C 1,6 km/h (1 Bft)
29.09.2019 12:58 17,6 °C 70 % 1010,0 hPa 0,0 mm 0,1 km/h (0 Bft) O-NO 60 ° 1 min 0,000 mm 4,4 UV-I 652 W/m² 12,1 °C 17,6 °C 1,6 km/h (1 Bft)
29.09.2019 12:59 17,7 °C 71 % 1010,0 hPa 0,0 mm 2,4 km/h (1 Bft) O-NO 60 ° 1 min 0,000 mm 4,4 UV-I 652 W/m² 12,4 °C 17,7 °C 3,2 km/h (1 Bft)
29.09.2019 13:00 17,8 °C 73 % 1010,0 hPa 0,0 mm 2,0 km/h (1 Bft) O-NO 60 ° 1 min 0,356 mm 4,4 UV-I 652 W/m² 12,9 °C 17,8 °C 3,2 km/h (1 Bft)
29.09.2019 13:01 17,9 °C 70 % 1010,0 hPa 0,0 mm 2,5 km/h (1 Bft) N-NW 343 ° 1 min 0,000 mm 4,4 UV-I 652 W/m² 12,3 °C 17,9 °C 4,8 km/h (1 Bft)
29.09.2019 13:02 18,1 °C 68 % 1010,0 hPa 0,0 mm 2,4 km/h (1 Bft) N-NW 343 ° 1 min 0,000 mm 4,4 UV-I 652 W/m² 12,1 °C 18,1 °C 3,2 km/h (1 Bft)
29.09.2019 13:03 18,2 °C 68 % 1009,9 hPa 0,0 mm 2,1 km/h (1 Bft) N-NW 343 ° 1 min 0,000 mm 4,4 UV-I 652 W/m² 12,2 °C 18,2 °C 3,2 km/h (1 Bft)
29.09.2019 13:04 18,3 °C 68 % 1009,9 hPa 0,0 mm 1,5 km/h (1 Bft) N-NW 343 ° 1 min 0,000 mm 4,4 UV-I 652 W/m² 12,3 °C 18,3 °C 3,2 km/h (1 Bft)
29.09.2019 13:05 18,5 °C 73 % 1009,9 hPa 0,0 mm 2,4 km/h (1 Bft) N-NW 343 ° 1 min 0,000 mm 4,4 UV-I 652 W/m² 13,6 °C 18,5 °C 3,2 km/h (1 Bft)
29.09.2019 13:06 18,4 °C 71 % 1009,9 hPa 0,0 mm 0,2 km/h (0 Bft) N-NW 343 ° 1 min 0,000 mm 4,5 UV-I 654 W/m² 13,0 °C 18,4 °C 1,6 km/h (1 Bft)
29.09.2019 13:07 18,4 °C 69 % 1009,9 hPa 0,0 mm 0,0 km/h (0 Bft) N-NW 343 ° 1 min 0,000 mm 4,5 UV-I 654 W/m² 12,6 °C 18,4 °C 0,0 km/h (0 Bft)
29.09.2019 13:08 18,3 °C 67 % 1009,8 hPa 0,0 mm 0,0 km/h (0 Bft) N-NW 343 ° 1 min 0,000 mm 4,5 UV-I 654 W/m² 12,1 °C 18,3 °C 0,0 km/h (0 Bft)
29.09.2019 13:09 18,3 °C 71 % 1009,8 hPa 0,0 mm 2,5 km/h (1 Bft) N-NW 343 ° 1 min 0,000 mm 4,5 UV-I 652 W/m² 12,9 °C 18,3 °C 4,8 km/h (1 Bft)
29.09.2019 13:10 18,3 °C 68 % 1009,8 hPa 0,0 mm 2,0 km/h (1 Bft) N-NW 343 ° 1 min 0,000 mm 4,5 UV-I 652 W/m² 12,3 °C 18,3 °C 3,2 km/h (1 Bft)
29.09.2019 13:11 18,2 °C 69 % 1009,7 hPa 0,2 mm 1,7 km/h (1 Bft) N-NW 343 ° 1 min 0,000 mm 4,5 UV-I 652 W/m² 12,4 °C 18,2 °C 4,8 km/h (1 Bft)
29.09.2019 13:12 18,2 °C 71 % 1009,7 hPa 0,0 mm 2,8 km/h (1 Bft) N-NW 343 ° 1 min 0,000 mm 4,5 UV-I 654 W/m² 12,9 °C 18,2 °C 6,4 km/h (2 Bft)
29.09.2019 13:13 18,2 °C 67 % 1009,7 hPa 0,0 mm 2,9 km/h (1 Bft) N-NW 343 ° 1 min 0,000 mm 4,5 UV-I 654 W/m² 12,0 °C 18,2 °C 4,8 km/h (1 Bft)
29.09.2019 13:14 18,4 °C 67 % 1009,7 hPa 0,0 mm 2,4 km/h (1 Bft) N-NW 343 ° 1 min 0,000 mm 4,5 UV-I 652 W/m² 12,2 °C 18,4 °C 3,2 km/h (1 Bft)
29.09.2019 13:15 18,5 °C 65 % 1009,7 hPa 0,0 mm 0,3 km/h (0 Bft) N-NW 343 ° 1 min 0,000 mm 4,5 UV-I 652 W/m² 11,8 °C 18,5 °C 1,6 km/h (1 Bft)
29.09.2019 13:16 18,6 °C 65 % 1009,7 hPa 0,0 mm 1,4 km/h (1 Bft) N-NW 343 ° 1 min 0,000 mm 4,5 UV-I 652 W/m² 11,9 °C 18,6 °C 3,2 km/h (1 Bft)
29.09.2019 13:17 18,5 °C 65 % 1009,7 hPa 0,0 mm 1,3 km/h (1 Bft) N-NW 343 ° 1 min 0,000 mm 4,5 UV-I 654 W/m² 11,8 °C 18,5 °C 4,8 km/h (1 Bft)
29.09.2019 13:18 18,4 °C 66 % 1009,6 hPa 0,0 mm 0,0 km/h (0 Bft) N-NW 343 ° 1 min 0,000 mm 4,5 UV-I 652 W/m² 11,9 °C 18,4 °C 0,0 km/h (0 Bft)
29.09.2019 13:19 18,3 °C 68 % 1009,5 hPa 0,0 mm 0,0 km/h (0 Bft) N-NW 343 ° 1 min 0,000 mm 4,4 UV-I 652 W/m² 12,3 °C 18,3 °C 0,0 km/h (0 Bft)
29.09.2019 13:20 18,1 °C 67 % 1009,5 hPa 0,0 mm 0,6 km/h (0 Bft) N-NW 343 ° 1 min 0,000 mm 4,4 UV-I 652 W/m² 11,9 °C 18,1 °C 1,6 km/h (1 Bft)
29.09.2019 13:21 18,0 °C 67 % 1009,4 hPa 0,0 mm 0,0 km/h (0 Bft) N-NW 343 ° 1 min 0,000 mm 4,4 UV-I 652 W/m² 11,8 °C 18,0 °C 0,0 km/h (0 Bft)
29.09.2019 13:22 18,1 °C 74 % 1009,5 hPa 0,0 mm 0,0 km/h (0 Bft) N-NW 343 ° 1 min 0,000 mm 4,4 UV-I 654 W/m² 13,4 °C 18,1 °C 0,0 km/h (0 Bft)
29.09.2019 13:23 18,0 °C 72 % 1009,4 hPa 0,0 mm 0,0 km/h (0 Bft) N-NW 343 ° 1 min 0,000 mm 4,4 UV-I 652 W/m² 12,9 °C 18,0 °C 0,0 km/h (0 Bft)
29.09.2019 13:24 18,0 °C 71 % 1009,4 hPa 0,0 mm 0,2 km/h (0 Bft) N-NW 343 ° 1 min 0,000 mm 4,4 UV-I 654 W/m² 12,7 °C 18,0 °C 1,6 km/h (1 Bft)
29.09.2019 13:25 18,1 °C 72 % 1009,3 hPa 0,0 mm 1,0 km/h (0 Bft) N-NW 343 ° 1 min 0,000 mm 4,4 UV-I 652 W/m² 13,0 °C 18,1 °C 1,6 km/h (1 Bft)
29.09.2019 13:26 18,1 °C 71 % 1009,3 hPa 0,0 mm 0,0 km/h (0 Bft) N-NW 343 ° 1 min 0,000 mm 4,4 UV-I 652 W/m² 12,8 °C 18,1 °C 0,0 km/h (0 Bft)
29.09.2019 13:27 18,2 °C 69 % 1009,2 hPa 0,0 mm 1,7 km/h (1 Bft) NO 51 ° 1 min 0,000 mm 4,4 UV-I 650 W/m² 12,4 °C 18,2 °C 4,8 km/h (1 Bft)
29.09.2019 13:28 18,1 °C 68 % 1009,2 hPa 0,0 mm 4,5 km/h (1 Bft) O-SO 114 ° 1 min 0,000 mm 4,4 UV-I 650 W/m² 12,1 °C 18,1 °C 6,4 km/h (2 Bft)
29.09.2019 13:29 18,2 °C 70 % 1009,2 hPa 0,0 mm 4,8 km/h (1 Bft) SO 127 ° 1 min 0,000 mm 4,4 UV-I 650 W/m² 12,6 °C 18,2 °C 6,4 km/h (2 Bft)
29.09.2019 13:30 18,2 °C 67 % 1009,1 hPa 0,0 mm 3,2 km/h (1 Bft) SO 127 ° 1 min 0,000 mm 4,4 UV-I 652 W/m² 12,0 °C 18,2 °C 4,8 km/h (1 Bft)
29.09.2019 13:31 18,3 °C 69 % 1009,1 hPa 0,0 mm 2,2 km/h (1 Bft) SO 127 ° 1 min 0,000 mm 4,4 UV-I 649 W/m² 12,5 °C 18,3 °C 4,8 km/h (1 Bft)
29.09.2019 13:32 18,3 °C 68 % 1009,0 hPa 0,0 mm 0,1 km/h (0 Bft) SO 127 ° 1 min 0,000 mm 4,4 UV-I 652 W/m² 12,3 °C 18,3 °C 1,6 km/h (1 Bft)
29.09.2019 13:33 18,5 °C 69 % 1009,1 hPa 0,0 mm 0,0 km/h (0 Bft) SO 127 ° 1 min 0,000 mm 4,4 UV-I 652 W/m² 12,7 °C 18,5 °C 0,0 km/h (0 Bft)
29.09.2019 13:34 18,6 °C 69 % 1009,0 hPa 0,0 mm 2,0 km/h (1 Bft) O 91 ° 1 min 0,000 mm 4,4 UV-I 654 W/m² 12,8 °C 18,6 °C 3,2 km/h (1 Bft)
29.09.2019 13:35 18,7 °C 70 % 1009,0 hPa 0,0 mm 1,5 km/h (1 Bft) O-NO 77 ° 1 min 0,000 mm 4,4 UV-I 652 W/m² 13,1 °C 18,7 °C 3,2 km/h (1 Bft)
29.09.2019 13:36 18,6 °C 70 % 1008,9 hPa 0,0 mm 1,8 km/h (1 Bft) O 83 ° 1 min 0,000 mm 4,4 UV-I 652 W/m² 13,0 °C 18,6 °C 3,2 km/h (1 Bft)
29.09.2019 13:37 18,6 °C 69 % 1009,0 hPa 0,0 mm 0,3 km/h (0 Bft) O 83 ° 1 min 0,000 mm 4,4 UV-I 650 W/m² 12,8 °C 18,6 °C 1,6 km/h (1 Bft)
29.09.2019 13:38 18,6 °C 71 % 1009,0 hPa 0,0 mm 3,2 km/h (1 Bft) O-NO 57 ° 1 min 0,000 mm 4,4 UV-I 647 W/m² 13,2 °C 18,6 °C 4,8 km/h (1 Bft)
29.09.2019 13:39 18,6 °C 69 % 1008,9 hPa 0,0 mm 2,1 km/h (1 Bft) O-NO 57 ° 1 min 0,000 mm 4,4 UV-I 647 W/m² 12,8 °C 18,6 °C 3,2 km/h (1 Bft)
29.09.2019 13:40 18,6 °C 67 % 1008,8 hPa 0,0 mm 0,2 km/h (0 Bft) O-NO 57 ° 1 min 0,000 mm 4,4 UV-I 647 W/m² 12,3 °C 18,6 °C 1,6 km/h (1 Bft)
29.09.2019 13:41 18,5 °C 67 % 1008,8 hPa 0,0 mm 1,2 km/h (1 Bft) O-NO 57 ° 1 min 0,000 mm 4,4 UV-I 647 W/m² 12,3 °C 18,5 °C 3,2 km/h (1 Bft)
29.09.2019 13:42 18,6 °C 68 % 1008,8 hPa 0,0 mm 1,2 km/h (1 Bft) O-NO 57 ° 1 min 0,000 mm 4,4 UV-I 645 W/m² 12,6 °C 18,6 °C 1,6 km/h (1 Bft)
29.09.2019 13:43 18,6 °C 66 % 1008,8 hPa 0,0 mm 1,3 km/h (1 Bft) O-NO 57 ° 1 min 0,000 mm 4,3 UV-I 645 W/m² 12,1 °C 18,6 °C 3,2 km/h (1 Bft)
29.09.2019 13:44 18,8 °C 66 % 1008,8 hPa 0,0 mm 0,9 km/h (0 Bft) O-NO 57 ° 1 min 0,000 mm 4,3 UV-I 645 W/m² 12,3 °C 18,8 °C 3,2 km/h (1 Bft)
29.09.2019 13:45 19,1 °C 71 % 1008,7 hPa 0,0 mm 2,3 km/h (1 Bft) O-NO 57 ° 1 min 0,000 mm 4,3 UV-I 642 W/m² 13,7 °C 19,1 °C 4,8 km/h (1 Bft)
29.09.2019 13:46 19,2 °C 67 % 1008,7 hPa 0,0 mm 3,0 km/h (1 Bft) NO 34 ° 1 min 0,000 mm 4,3 UV-I 643 W/m² 12,9 °C 19,2 °C 6,4 km/h (2 Bft)
29.09.2019 13:47 19,2 °C 67 % 1008,7 hPa 0,0 mm 0,1 km/h (0 Bft) NO 44 ° 1 min 0,000 mm 4,3 UV-I 642 W/m² 12,9 °C 19,2 °C 1,6 km/h (1 Bft)
29.09.2019 13:48 19,1 °C 67 % 1008,7 hPa 0,2 mm 0,8 km/h (0 Bft) NO 44 ° 1 min 0,000 mm 4,3 UV-I 643 W/m² 12,8 °C 19,1 °C 3,2 km/h (1 Bft)
29.09.2019 13:49 18,9 °C 68 % 1008,6 hPa 0,0 mm 0,2 km/h (0 Bft) NO 44 ° 1 min 0,000 mm 4,3 UV-I 643 W/m² 12,9 °C 18,9 °C 1,6 km/h (1 Bft)
29.09.2019 13:50 18,9 °C 71 % 1008,7 hPa 0,0 mm 0,8 km/h (0 Bft) NO 44 ° 1 min 0,000 mm 4,3 UV-I 640 W/m² 13,5 °C 18,9 °C 3,2 km/h (1 Bft)
29.09.2019 13:51 19,1 °C 69 % 1008,6 hPa 0,0 mm 0,3 km/h (0 Bft) NO 44 ° 1 min 0,000 mm 4,3 UV-I 642 W/m² 13,3 °C 19,1 °C 1,6 km/h (1 Bft)
29.09.2019 13:52 18,9 °C 69 % 1008,6 hPa 0,0 mm 0,0 km/h (0 Bft) NO 44 ° 1 min 0,000 mm 4,3 UV-I 642 W/m² 13,1 °C 18,9 °C 0,0 km/h (0 Bft)
29.09.2019 13:53 18,8 °C 69 % 1008,5 hPa 0,0 mm 0,0 km/h (0 Bft) NO 44 ° 1 min 0,000 mm 4,3 UV-I 642 W/m² 13,0 °C 18,8 °C 0,0 km/h (0 Bft)
29.09.2019 13:54 18,7 °C 69 % 1008,6 hPa 0,0 mm 0,0 km/h (0 Bft) NO 44 ° 1 min 0,000 mm 4,3 UV-I 640 W/m² 12,9 °C 18,7 °C 0,0 km/h (0 Bft)
29.09.2019 13:55 18,7 °C 69 % 1008,5 hPa 0,0 mm 1,9 km/h (1 Bft) NO 44 ° 1 min 0,000 mm 4,3 UV-I 640 W/m² 12,9 °C 18,7 °C 4,8 km/h (1 Bft)
29.09.2019 13:56 18,8 °C 70 % 1008,5 hPa 0,0 mm 1,7 km/h (1 Bft) NO 44 ° 1 min 0,000 mm 4,3 UV-I 638 W/m² 13,2 °C 18,8 °C 4,8 km/h (1 Bft)
29.09.2019 13:57 19,0 °C 69 % 1008,5 hPa 0,0 mm 4,9 km/h (1 Bft) O 101 ° 1 min 0,000 mm 4,3 UV-I 638 W/m² 13,2 °C 19,0 °C 6,4 km/h (2 Bft)
29.09.2019 13:58 19,1 °C 69 % 1008,5 hPa 0,0 mm 2,9 km/h (1 Bft) O 101 ° 1 min 0,000 mm 4,3 UV-I 636 W/m² 13,3 °C 19,1 °C 6,4 km/h (2 Bft)
29.09.2019 13:59 19,1 °C 69 % 1008,5 hPa 0,0 mm 1,9 km/h (1 Bft) NO 34 ° 1 min 0,000 mm 4,3 UV-I 635 W/m² 13,3 °C 19,1 °C 4,8 km/h (1 Bft)
29.09.2019 14:00 19,3 °C 68 % 1008,5 hPa 0,0 mm 2,2 km/h (1 Bft) NO 52 ° 1 min 0,000 mm 4,3 UV-I 636 W/m² 13,2 °C 19,3 °C 6,4 km/h (2 Bft)
29.09.2019 14:01 19,4 °C 66 % 1008,5 hPa 0,0 mm 1,5 km/h (1 Bft) NO 42 ° 1 min 0,381 mm 4,2 UV-I 635 W/m² 12,9 °C 19,4 °C 3,2 km/h (1 Bft)
29.09.2019 14:02 19,4 °C 68 % 1008,5 hPa 0,0 mm 0,0 km/h (0 Bft) NO 42 ° 1 min 0,000 mm 4,3 UV-I 636 W/m² 13,3 °C 19,4 °C 0,0 km/h (0 Bft)
29.09.2019 14:03 19,3 °C 67 % 1008,5 hPa 0,0 mm 0,8 km/h (0 Bft) O 84 ° 1 min 0,000 mm 4,3 UV-I 638 W/m² 13,0 °C 19,3 °C 3,2 km/h (1 Bft)
29.09.2019 14:04 19,2 °C 68 % 1008,4 hPa 0,0 mm 4,1 km/h (1 Bft) O 80 ° 1 min 0,000 mm 4,3 UV-I 636 W/m² 13,1 °C 19,2 °C 6,4 km/h (2 Bft)
29.09.2019 14:05 19,2 °C 71 % 1008,4 hPa 0,0 mm 2,3 km/h (1 Bft) O 80 ° 1 min 0,000 mm 4,3 UV-I 638 W/m² 13,8 °C 19,2 °C 3,2 km/h (1 Bft)
29.09.2019 14:06 19,2 °C 70 % 1008,5 hPa 0,0 mm 3,6 km/h (1 Bft) O-SO 105 ° 1 min 0,000 mm 4,3 UV-I 636 W/m² 13,6 °C 19,2 °C 6,4 km/h (2 Bft)
29.09.2019 14:07 19,0 °C 69 % 1008,4 hPa 0,0 mm 3,5 km/h (1 Bft) O-SO 105 ° 1 min 0,000 mm 4,3 UV-I 635 W/m² 13,2 °C 19,0 °C 4,8 km/h (1 Bft)
29.09.2019 14:08 18,9 °C 69 % 1008,4 hPa 0,0 mm 1,7 km/h (1 Bft) O-SO 105 ° 1 min 0,000 mm 4,2 UV-I 638 W/m² 13,1 °C 18,9 °C 4,8 km/h (1 Bft)
29.09.2019 14:09 19,1 °C 68 % 1008,3 hPa 0,0 mm 1,7 km/h (1 Bft) O-SO 105 ° 1 min 0,000 mm 4,2 UV-I 635 W/m² 13,1 °C 19,1 °C 3,2 km/h (1 Bft)
29.09.2019 14:10 19,2 °C 70 % 1008,4 hPa 0,0 mm 0,3 km/h (0 Bft) O-SO 105 ° 1 min 0,000 mm 4,2 UV-I 638 W/m² 13,6 °C 19,2 °C 1,6 km/h (1 Bft)
29.09.2019 14:11 19,3 °C 69 % 1008,4 hPa 0,0 mm 0,1 km/h (0 Bft) O-SO 105 ° 1 min 0,000 mm 4,2 UV-I 636 W/m² 13,5 °C 19,3 °C 1,6 km/h (1 Bft)
29.09.2019 14:12 19,4 °C 67 % 1008,3 hPa 0,0 mm 0,0 km/h (0 Bft) O-SO 105 ° 1 min 0,000 mm 4,2 UV-I 635 W/m² 13,1 °C 19,4 °C 0,0 km/h (0 Bft)
29.09.2019 14:13 19,6 °C 71 % 1008,3 hPa 0,0 mm 1,7 km/h (1 Bft) O-SO 105 ° 1 min 0,000 mm 4,2 UV-I 633 W/m² 14,2 °C 19,6 °C 3,2 km/h (1 Bft)
29.09.2019 14:14 19,6 °C 71 % 1008,3 hPa 0,0 mm 3,6 km/h (1 Bft) N 5 ° 1 min 0,000 mm 4,2 UV-I 633 W/m² 14,2 °C 19,6 °C 6,4 km/h (2 Bft)
29.09.2019 14:15 19,6 °C 72 % 1008,3 hPa 0,0 mm 1,8 km/h (1 Bft) N 5 ° 1 min 0,000 mm 4,2 UV-I 631 W/m² 14,4 °C 19,6 °C 3,2 km/h (1 Bft)
29.09.2019 14:16 19,7 °C 71 % 1008,3 hPa 0,0 mm 3,1 km/h (1 Bft) N 360 ° 1 min 0,000 mm 4,2 UV-I 631 W/m² 14,3 °C 19,7 °C 4,8 km/h (1 Bft)
29.09.2019 14:17 19,8 °C 69 % 1008,3 hPa 0,0 mm 2,2 km/h (1 Bft) N 5 ° 1 min 0,000 mm 4,2 UV-I 629 W/m² 13,9 °C 19,8 °C 3,2 km/h (1 Bft)
29.09.2019 14:18 19,9 °C 68 % 1008,3 hPa 0,0 mm 1,7 km/h (1 Bft) N 360 ° 1 min 0,000 mm 4,2 UV-I 629 W/m² 13,8 °C 19,9 °C 4,8 km/h (1 Bft)
29.09.2019 14:19 19,9 °C 65 % 1008,3 hPa 0,0 mm 0,0 km/h (0 Bft) N 360 ° 1 min 0,000 mm 4,2 UV-I 629 W/m² 13,1 °C 19,9 °C 0,0 km/h (0 Bft)
29.09.2019 14:20 20,0 °C 66 % 1008,3 hPa 0,0 mm 0,3 km/h (0 Bft) N 360 ° 1 min 0,000 mm 4,1 UV-I 628 W/m² 13,4 °C 20,0 °C 1,6 km/h (1 Bft)
29.09.2019 14:21 20,1 °C 67 % 1008,3 hPa 0,0 mm 1,5 km/h (1 Bft) N 360 ° 1 min 0,000 mm 4,1 UV-I 626 W/m² 13,8 °C 20,1 °C 3,2 km/h (1 Bft)
29.09.2019 14:22 19,9 °C 67 % 1008,3 hPa 0,0 mm 1,5 km/h (1 Bft) N 360 ° 1 min 0,000 mm 4,1 UV-I 619 W/m² 13,6 °C 19,9 °C 3,2 km/h (1 Bft)
29.09.2019 14:23 19,7 °C 68 % 1008,2 hPa 0,0 mm 2,7 km/h (1 Bft) N-NO 13 ° 1 min 0,000 mm 4,1 UV-I 629 W/m² 13,6 °C 19,7 °C 3,2 km/h (1 Bft)
29.09.2019 14:24 19,4 °C 67 % 1008,2 hPa 0,0 mm 2,5 km/h (1 Bft) O-SO 106 ° 1 min 0,000 mm 4,1 UV-I 622 W/m² 13,1 °C 19,4 °C 4,8 km/h (1 Bft)
29.09.2019 14:25 19,4 °C 67 % 1008,3 hPa 0,0 mm 0,3 km/h (0 Bft) O-SO 106 ° 1 min 0,000 mm 4,1 UV-I 631 W/m² 13,1 °C 19,4 °C 1,6 km/h (1 Bft)
29.09.2019 14:26 19,4 °C 70 % 1008,2 hPa 0,0 mm 0,0 km/h (0 Bft) O-SO 106 ° 1 min 0,000 mm 4,1 UV-I 605 W/m² 13,8 °C 19,4 °C 0,0 km/h (0 Bft)
29.09.2019 14:27 19,4 °C 67 % 1008,3 hPa 0,0 mm 0,1 km/h (0 Bft) O-SO 106 ° 1 min 0,000 mm 4,0 UV-I 622 W/m² 13,1 °C 19,4 °C 1,6 km/h (1 Bft)
29.09.2019 14:28 19,6 °C 71 % 1008,3 hPa 0,0 mm 0,0 km/h (0 Bft) O-SO 106 ° 1 min 0,000 mm 4,0 UV-I 617 W/m² 14,2 °C 19,6 °C 0,0 km/h (0 Bft)
29.09.2019 14:29 19,7 °C 69 % 1008,2 hPa 0,0 mm 0,0 km/h (0 Bft) O-SO 106 ° 1 min 0,000 mm 4,0 UV-I 622 W/m² 13,8 °C 19,7 °C 0,0 km/h (0 Bft)
29.09.2019 14:30 19,6 °C 67 % 1008,2 hPa 0,0 mm 0,0 km/h (0 Bft) O-SO 106 ° 1 min 0,000 mm 4,0 UV-I 628 W/m² 13,3 °C 19,6 °C 0,0 km/h (0 Bft)
29.09.2019 14:31 19,5 °C 69 % 1008,2 hPa 0,0 mm 0,0 km/h (0 Bft) O-SO 106 ° 1 min 0,000 mm 4,0 UV-I 605 W/m² 13,7 °C 19,5 °C 0,0 km/h (0 Bft)
29.09.2019 14:32 19,6 °C 71 % 1008,1 hPa 0,0 mm 0,0 km/h (0 Bft) O-SO 106 ° 1 min 0,000 mm 4,0 UV-I 617 W/m² 14,2 °C 19,6 °C 0,0 km/h (0 Bft)
29.09.2019 14:33 19,7 °C 68 % 1008,2 hPa 0,2 mm 0,0 km/h (0 Bft) O-SO 106 ° 1 min 0,000 mm 4,0 UV-I 608 W/m² 13,6 °C 19,7 °C 0,0 km/h (0 Bft)
29.09.2019 14:34 19,8 °C 67 % 1008,1 hPa 0,0 mm 0,0 km/h (0 Bft) O-SO 106 ° 1 min 0,000 mm 4,1 UV-I 628 W/m² 13,5 °C 19,8 °C 0,0 km/h (0 Bft)
29.09.2019 14:35 19,8 °C 66 % 1008,2 hPa 0,0 mm 0,0 km/h (0 Bft) O-SO 106 ° 1 min 0,000 mm 4,0 UV-I 633 W/m² 13,3 °C 19,8 °C 0,0 km/h (0 Bft)
29.09.2019 14:36 19,9 °C 65 % 1008,1 hPa 0,0 mm 0,0 km/h (0 Bft) O-SO 106 ° 1 min 0,000 mm 4,0 UV-I 626 W/m² 13,1 °C 19,9 °C 0,0 km/h (0 Bft)
29.09.2019 14:37 20,2 °C 67 % 1008,2 hPa 0,0 mm 0,0 km/h (0 Bft) O-SO 106 ° 1 min 0,000 mm 4,0 UV-I 619 W/m² 13,9 °C 20,2 °C 0,0 km/h (0 Bft)
29.09.2019 14:38 20,3 °C 69 % 1008,1 hPa 0,0 mm 0,0 km/h (0 Bft) O-SO 106 ° 1 min 0,000 mm 4,0 UV-I 624 W/m² 14,4 °C 20,3 °C 0,0 km/h (0 Bft)
29.09.2019 14:39 20,4 °C 68 % 1008,1 hPa 0,0 mm 0,0 km/h (0 Bft) O-SO 106 ° 1 min 0,000 mm 4,1 UV-I 624 W/m² 14,3 °C 20,4 °C 0,0 km/h (0 Bft)
29.09.2019 14:40 20,5 °C 65 % 1008,1 hPa 0,0 mm 0,0 km/h (0 Bft) O-SO 106 ° 1 min 0,000 mm 4,0 UV-I 631 W/m² 13,7 °C 20,5 °C 0,0 km/h (0 Bft)
29.09.2019 14:41 20,5 °C 68 % 1008,1 hPa 0,0 mm 0,0 km/h (0 Bft) O-SO 106 ° 1 min 0,000 mm 3,9 UV-I 601 W/m² 14,4 °C 20,5 °C 0,0 km/h (0 Bft)
29.09.2019 14:42 20,4 °C 65 % 1008,2 hPa 0,0 mm 0,8 km/h (0 Bft) W-SW 252 ° 0 min 0,000 mm 3,9 UV-I 580 W/m² 13,6 °C 20,4 °C 6,4 km/h (2 Bft)
29.09.2019 14:43 20,4 °C 63 % 1008,2 hPa 0,0 mm 5,5 km/h (1 Bft) W-SW 257 ° 0 min 0,000 mm 3,8 UV-I 568 W/m² 13,1 °C 20,4 °C 8,0 km/h (2 Bft)
29.09.2019 14:44 20,3 °C 64 % 1008,1 hPa 0,0 mm 3,2 km/h (1 Bft) W-SW 257 ° 0 min 0,000 mm 3,7 UV-I 541 W/m² 13,3 °C 20,3 °C 4,8 km/h (1 Bft)
29.09.2019 14:45 20,4 °C 66 % 1008,1 hPa 0,0 mm 0,1 km/h (0 Bft) W-SW 257 ° 0 min 0,000 mm 3,5 UV-I 522 W/m² 13,8 °C 20,4 °C 1,6 km/h (1 Bft)
29.09.2019 14:46 20,4 °C 65 % 1008,1 hPa 0,0 mm 0,0 km/h (0 Bft) W-SW 257 ° 0 min 0,000 mm 3,7 UV-I 578 W/m² 13,6 °C 20,4 °C 0,0 km/h (0 Bft)
29.09.2019 14:47 20,4 °C 65 % 1008,1 hPa 0,0 mm 0,0 km/h (0 Bft) W 263 ° 0 min 0,000 mm 3,7 UV-I 582 W/m² 13,6 °C 20,4 °C 0,0 km/h (0 Bft)
29.09.2019 14:48 20,5 °C 65 % 1008,1 hPa 0,0 mm 0,0 km/h (0 Bft) W 263 ° 0 min 0,000 mm 3,7 UV-I 587 W/m² 13,7 °C 20,5 °C 0,0 km/h (0 Bft)
29.09.2019 14:49 20,5 °C 63 % 1008,1 hPa 0,0 mm 1,1 km/h (1 Bft) W 263 ° 0 min 0,000 mm 3,6 UV-I 497 W/m² 13,2 °C 20,5 °C 3,2 km/h (1 Bft)
29.09.2019 14:50 20,5 °C 67 % 1008,1 hPa 0,0 mm 0,0 km/h (0 Bft) W 263 ° 0 min 0,000 mm 3,6 UV-I 529 W/m² 14,2 °C 20,5 °C 0,0 km/h (0 Bft)
29.09.2019 14:51 20,5 °C 66 % 1008,0 hPa 0,0 mm 0,3 km/h (0 Bft) NW 306 ° 0 min 0,000 mm 3,5 UV-I 547 W/m² 13,9 °C 20,5 °C 4,8 km/h (1 Bft)
29.09.2019 14:52 20,6 °C 64 % 1008,0 hPa 0,0 mm 3,5 km/h (1 Bft) NW 306 ° 0 min 0,000 mm 3,3 UV-I 499 W/m² 13,5 °C 20,6 °C 4,8 km/h (1 Bft)
29.09.2019 14:53 20,7 °C 62 % 1008,0 hPa 0,0 mm 3,1 km/h (1 Bft) NW 314 ° 0 min 0,000 mm 3,0 UV-I 499 W/m² 13,2 °C 20,7 °C 4,8 km/h (1 Bft)
29.09.2019 14:54 20,7 °C 67 % 1008,0 hPa 0,0 mm 4,1 km/h (1 Bft) W-NW 299 ° 0 min 0,000 mm 3,0 UV-I 403 W/m² 14,3 °C 20,7 °C 6,4 km/h (2 Bft)
29.09.2019 14:55 20,6 °C 64 % 1008,0 hPa 0,0 mm 2,3 km/h (1 Bft) W-NW 300 ° 0 min 0,000 mm 2,9 UV-I 380 W/m² 13,5 °C 20,6 °C 4,8 km/h (1 Bft)
29.09.2019 14:56 20,6 °C 64 % 1008,0 hPa 0,0 mm 0,0 km/h (0 Bft) W-NW 300 ° 0 min 0,000 mm 3,0 UV-I 431 W/m² 13,5 °C 20,6 °C 0,0 km/h (0 Bft)
29.09.2019 14:57 20,5 °C 62 % 1007,9 hPa 0,0 mm 0,0 km/h (0 Bft) W-NW 300 ° 0 min 0,000 mm 2,8 UV-I 371 W/m² 13,0 °C 20,5 °C 0,0 km/h (0 Bft)
29.09.2019 14:58 20,4 °C 63 % 1007,9 hPa 0,0 mm 0,0 km/h (0 Bft) W-NW 300 ° 0 min 0,000 mm 2,8 UV-I 364 W/m² 13,1 °C 20,4 °C 0,0 km/h (0 Bft)
29.09.2019 14:59 20,4 °C 66 % 1007,9 hPa 0,0 mm 0,0 km/h (0 Bft) W-NW 300 ° 0 min 0,000 mm 3,1 UV-I 422 W/m² 13,8 °C 20,4 °C 0,0 km/h (0 Bft)
29.09.2019 15:00 20,5 °C 65 % 1008,0 hPa 0,0 mm 0,9 km/h (0 Bft) W-NW 300 ° 0 min 0,000 mm 3,2 UV-I 480 W/m² 13,7 °C 20,5 °C 3,2 km/h (1 Bft)
29.09.2019 15:01 20,5 °C 68 % 1007,9 hPa 0,0 mm 0,8 km/h (0 Bft) W-NW 300 ° 0 min 0,330 mm 3,0 UV-I 457 W/m² 14,4 °C 20,5 °C 3,2 km/h (1 Bft)
29.09.2019 15:02 20,6 °C 63 % 1007,9 hPa 0,0 mm 0,0 km/h (0 Bft) W-NW 300 ° 0 min 0,000 mm 2,9 UV-I 406 W/m² 13,3 °C 20,6 °C 0,0 km/h (0 Bft)
29.09.2019 15:03 20,6 °C 62 % 1007,9 hPa 0,0 mm 0,0 km/h (0 Bft) W-NW 300 ° 0 min 0,000 mm 3,0 UV-I 425 W/m² 13,1 °C 20,6 °C 0,0 km/h (0 Bft)
29.09.2019 15:04 20,6 °C 62 % 1007,9 hPa 0,0 mm 0,9 km/h (0 Bft) W-NW 300 ° 0 min 0,000 mm 2,7 UV-I 413 W/m² 13,1 °C 20,6 °C 3,2 km/h (1 Bft)
29.09.2019 15:05 20,6 °C 66 % 1007,9 hPa 0,0 mm 2,5 km/h (1 Bft) NW 321 ° 0 min 0,000 mm 2,7 UV-I 381 W/m² 14,0 °C 20,6 °C 4,8 km/h (1 Bft)
29.09.2019 15:06 20,7 °C 64 % 1007,9 hPa 0,0 mm 2,4 km/h (1 Bft) NW 321 ° 0 min 0,000 mm 2,7 UV-I 343 W/m² 13,6 °C 20,7 °C 3,2 km/h (1 Bft)
29.09.2019 15:07 20,7 °C 64 % 1007,9 hPa 0,0 mm 0,2 km/h (0 Bft) NW 321 ° 0 min 0,000 mm 2,7 UV-I 334 W/m² 13,6 °C 20,7 °C 1,6 km/h (1 Bft)
29.09.2019 15:08 20,7 °C 64 % 1007,9 hPa 0,0 mm 0,0 km/h (0 Bft) NW 321 ° 0 min 0,000 mm 2,9 UV-I 334 W/m² 13,6 °C 20,7 °C 0,0 km/h (0 Bft)
29.09.2019 15:09 20,7 °C 66 % 1007,9 hPa 0,0 mm 0,0 km/h (0 Bft) NW 321 ° 0 min 0,000 mm 2,7 UV-I 411 W/m² 14,1 °C 20,7 °C 0,0 km/h (0 Bft)
29.09.2019 15:10 20,7 °C 66 % 1007,9 hPa 0,0 mm 0,0 km/h (0 Bft) NW 321 ° 0 min 0,000 mm 2,4 UV-I 411 W/m² 14,1 °C 20,7 °C 0,0 km/h (0 Bft)
29.09.2019 15:11 20,6 °C 65 % 1007,8 hPa 0,0 mm 0,0 km/h (0 Bft) NW 321 ° 0 min 0,000 mm 2,4 UV-I 302 W/m² 13,8 °C 20,6 °C 0,0 km/h (0 Bft)
29.09.2019 15:12 20,6 °C 66 % 1007,8 hPa 0,0 mm 0,0 km/h (0 Bft) NW 321 ° 0 min 0,000 mm 2,5 UV-I 316 W/m² 14,0 °C 20,6 °C 0,0 km/h (0 Bft)
29.09.2019 15:13 20,5 °C 68 % 1007,9 hPa 0,2 mm 2,8 km/h (1 Bft) NW 321 ° 0 min 0,000 mm 2,5 UV-I 327 W/m² 14,4 °C 20,5 °C 6,4 km/h (2 Bft)
29.09.2019 15:14 20,6 °C 68 % 1007,9 hPa 0,0 mm 4,3 km/h (1 Bft) N-NW 327 ° 0 min 0,000 mm 2,3 UV-I 297 W/m² 14,5 °C 20,6 °C 6,4 km/h (2 Bft)
29.09.2019 15:15 20,5 °C 68 % 1007,8 hPa 0,0 mm 1,7 km/h (1 Bft) NW 325 ° 0 min 0,000 mm 2,2 UV-I 265 W/m² 14,4 °C 20,5 °C 3,2 km/h (1 Bft)
29.09.2019 15:16 20,4 °C 66 % 1007,9 hPa 0,0 mm 3,6 km/h (1 Bft) NW 326 ° 0 min 0,000 mm 2,2 UV-I 267 W/m² 13,8 °C 20,4 °C 4,8 km/h (1 Bft)
29.09.2019 15:17 20,4 °C 68 % 1007,9 hPa 0,0 mm 3,8 km/h (1 Bft) NW 305 ° 0 min 0,000 mm 2,4 UV-I 301 W/m² 14,3 °C 20,4 °C 4,8 km/h (1 Bft)
29.09.2019 15:18 20,4 °C 65 % 1007,9 hPa 0,0 mm 1,5 km/h (1 Bft) NW 321 ° 0 min 0,000 mm 2,4 UV-I 292 W/m² 13,6 °C 20,4 °C 3,2 km/h (1 Bft)
29.09.2019 15:19 20,4 °C 66 % 1007,9 hPa 0,0 mm 2,0 km/h (1 Bft) N-NW 338 ° 0 min 0,000 mm 2,3 UV-I 290 W/m² 13,8 °C 20,4 °C 4,8 km/h (1 Bft)
29.09.2019 15:20 20,4 °C 66 % 1007,8 hPa 0,0 mm 6,6 km/h (2 Bft) NW 321 ° 0 min 0,000 mm 2,2 UV-I 251 W/m² 13,8 °C 20,4 °C 9,7 km/h (2 Bft)
29.09.2019 15:21 20,4 °C 67 % 1007,9 hPa 0,0 mm 5,6 km/h (1 Bft) NW 316 ° 0 min 0,000 mm 2,2 UV-I 258 W/m² 14,1 °C 20,4 °C 6,4 km/h (2 Bft)
29.09.2019 15:22 20,4 °C 68 % 1007,9 hPa 0,0 mm 5,2 km/h (1 Bft) NW 322 ° 0 min 0,000 mm 2,1 UV-I 236 W/m² 14,3 °C 20,4 °C 8,0 km/h (2 Bft)
29.09.2019 15:23 20,3 °C 67 % 1007,9 hPa 0,0 mm 3,9 km/h (1 Bft) NW 317 ° 0 min 0,000 mm 2,2 UV-I 251 W/m² 14,0 °C 20,3 °C 6,4 km/h (2 Bft)
29.09.2019 15:24 20,3 °C 65 % 1007,9 hPa 0,0 mm 2,5 km/h (1 Bft) NW 317 ° 0 min 0,000 mm 2,2 UV-I 299 W/m² 13,5 °C 20,3 °C 4,8 km/h (1 Bft)
29.09.2019 15:25 20,3 °C 65 % 1007,9 hPa 0,0 mm 1,7 km/h (1 Bft) NW 317 ° 0 min 0,000 mm 2,4 UV-I 313 W/m² 13,5 °C 20,3 °C 3,2 km/h (1 Bft)
29.09.2019 15:26 20,3 °C 65 % 1007,9 hPa 0,0 mm 0,0 km/h (0 Bft) W-NW 291 ° 0 min 0,000 mm 2,4 UV-I 353 W/m² 13,5 °C 20,3 °C 0,0 km/h (0 Bft)
29.09.2019 15:27 20,3 °C 66 % 1007,9 hPa 0,0 mm 4,8 km/h (1 Bft) W-NW 288 ° 0 min 0,000 mm 2,5 UV-I 341 W/m² 13,7 °C 20,3 °C 6,4 km/h (2 Bft)
29.09.2019 15:28 20,3 °C 64 % 1008,0 hPa 0,0 mm 3,9 km/h (1 Bft) W-NW 290 ° 0 min 0,000 mm 3,0 UV-I 341 W/m² 13,3 °C 20,3 °C 6,4 km/h (2 Bft)
29.09.2019 15:29 20,4 °C 65 % 1008,0 hPa 0,0 mm 4,4 km/h (1 Bft) W-NW 292 ° 0 min 0,000 mm 2,7 UV-I 431 W/m² 13,6 °C 20,4 °C 6,4 km/h (2 Bft)
29.09.2019 15:30 20,4 °C 64 % 1007,9 hPa 0,0 mm 3,3 km/h (1 Bft) W 271 ° 0 min 0,000 mm 2,9 UV-I 459 W/m² 13,4 °C 20,4 °C 6,4 km/h (2 Bft)
29.09.2019 15:31 20,4 °C 64 % 1007,9 hPa 0,0 mm 2,6 km/h (1 Bft) W 271 ° 0 min 0,000 mm 2,8 UV-I 448 W/m² 13,4 °C 20,4 °C 4,8 km/h (1 Bft)
29.09.2019 15:32 20,4 °C 63 % 1007,9 hPa 0,0 mm 4,8 km/h (1 Bft) W-NW 292 ° 0 min 0,000 mm 2,6 UV-I 397 W/m² 13,1 °C 20,4 °C 6,4 km/h (2 Bft)
29.09.2019 15:33 20,4 °C 63 % 1007,9 hPa 0,0 mm 2,5 km/h (1 Bft) W-NW 292 ° 0 min 0,000 mm 2,3 UV-I 336 W/m² 13,1 °C 20,4 °C 4,8 km/h (1 Bft)
29.09.2019 15:34 20,4 °C 63 % 1007,8 hPa 0,0 mm 2,0 km/h (1 Bft) W-NW 292 ° 0 min 0,000 mm 2,3 UV-I 330 W/m² 13,1 °C 20,4 °C 3,2 km/h (1 Bft)
29.09.2019 15:35 20,4 °C 62 % 1007,9 hPa 0,0 mm 1,8 km/h (1 Bft) W-NW 292 ° 0 min 0,000 mm 2,4 UV-I 322 W/m² 12,9 °C 20,4 °C 3,2 km/h (1 Bft)
29.09.2019 15:36 20,4 °C 62 % 1007,8 hPa 0,0 mm 1,0 km/h (0 Bft) W-NW 292 ° 0 min 0,000 mm 2,3 UV-I 352 W/m² 12,9 °C 20,4 °C 3,2 km/h (1 Bft)
29.09.2019 15:37 20,4 °C 62 % 1007,8 hPa 0,0 mm 0,0 km/h (0 Bft) W-NW 292 ° 0 min 0,000 mm 2,6 UV-I 424 W/m² 12,9 °C 20,4 °C 0,0 km/h (0 Bft)
29.09.2019 15:38 20,4 °C 61 % 1007,8 hPa 0,0 mm 0,0 km/h (0 Bft) W-NW 292 ° 0 min 0,000 mm 2,4 UV-I 385 W/m² 12,6 °C 20,4 °C 0,0 km/h (0 Bft)
29.09.2019 15:39 20,2 °C 69 % 1007,7 hPa 0,0 mm 0,0 km/h (0 Bft) W-NW 292 ° 0 min 0,000 mm 2,6 UV-I 480 W/m² 14,3 °C 20,2 °C 0,0 km/h (0 Bft)
29.09.2019 15:40 20,1 °C 66 % 1007,7 hPa 0,0 mm 0,0 km/h (0 Bft) W-NW 292 ° 0 min 0,000 mm 2,8 UV-I 499 W/m² 13,5 °C 20,1 °C 0,0 km/h (0 Bft)
29.09.2019 15:41 20,0 °C 72 % 1007,8 hPa 0,0 mm 0,0 km/h (0 Bft) W-NW 292 ° 0 min 0,000 mm 2,6 UV-I 438 W/m² 14,8 °C 20,0 °C 0,0 km/h (0 Bft)
29.09.2019 15:42 19,9 °C 72 % 1007,7 hPa 0,0 mm 0,0 km/h (0 Bft) W-NW 292 ° 0 min 0,000 mm 2,6 UV-I 438 W/m² 14,7 °C 19,9 °C 0,0 km/h (0 Bft)
29.09.2019 15:43 20,0 °C 66 % 1007,7 hPa 0,0 mm 0,0 km/h (0 Bft) W-NW 292 ° 0 min 0,000 mm 2,5 UV-I 399 W/m² 13,4 °C 20,0 °C 0,0 km/h (0 Bft)
29.09.2019 15:44 20,1 °C 69 % 1007,7 hPa 0,0 mm 0,0 km/h (0 Bft) W-NW 292 ° 0 min 0,000 mm 2,4 UV-I 346 W/m² 14,2 °C 20,1 °C 0,0 km/h (0 Bft)
29.09.2019 15:45 20,1 °C 69 % 1007,7 hPa 0,0 mm 0,0 km/h (0 Bft) W-NW 292 ° 0 min 0,000 mm 2,2 UV-I 325 W/m² 14,2 °C 20,1 °C 0,0 km/h (0 Bft)
29.09.2019 15:46 20,1 °C 68 % 1007,6 hPa 0,0 mm 0,0 km/h (0 Bft) W-NW 292 ° 0 min 0,000 mm 2,1 UV-I 287 W/m² 14,0 °C 20,1 °C 0,0 km/h (0 Bft)
29.09.2019 15:47 20,0 °C 68 % 1007,6 hPa 0,0 mm 0,0 km/h (0 Bft) W-NW 292 ° 0 min 0,000 mm 2,0 UV-I 258 W/m² 13,9 °C 20,0 °C 0,0 km/h (0 Bft)
29.09.2019 15:48 19,8 °C 71 % 1007,5 hPa 0,0 mm 0,0 km/h (0 Bft) W-NW 292 ° 0 min 0,000 mm 2,1 UV-I 272 W/m² 14,4 °C 19,8 °C 0,0 km/h (0 Bft)
29.09.2019 15:49 19,8 °C 73 % 1007,5 hPa 0,0 mm 0,0 km/h (0 Bft) W-NW 292 ° 0 min 0,000 mm 2,1 UV-I 283 W/m² 14,8 °C 19,8 °C 0,0 km/h (0 Bft)
29.09.2019 15:50 19,6 °C 71 % 1007,5 hPa 0,0 mm 0,0 km/h (0 Bft) W-NW 292 ° 0 min 0,000 mm 2,1 UV-I 306 W/m² 14,2 °C 19,6 °C 0,0 km/h (0 Bft)
29.09.2019 15:51 19,4 °C 68 % 1007,5 hPa 0,0 mm 0,0 km/h (0 Bft) W-NW 292 ° 0 min 0,000 mm 2,2 UV-I 320 W/m² 13,3 °C 19,4 °C 0,0 km/h (0 Bft)
29.09.2019 15:52 19,4 °C 71 % 1007,5 hPa 0,0 mm 0,0 km/h (0 Bft) W-NW 292 ° 0 min 0,000 mm 2,1 UV-I 327 W/m² 14,0 °C 19,4 °C 0,0 km/h (0 Bft)
29.09.2019 15:53 19,3 °C 73 % 1007,5 hPa 0,0 mm 0,7 km/h (0 Bft) W-NW 290 ° 0 min 0,000 mm 1,9 UV-I 258 W/m² 14,3 °C 19,3 °C 3,2 km/h (1 Bft)
29.09.2019 15:54 19,4 °C 72 % 1007,5 hPa 0,0 mm 1,9 km/h (1 Bft) W-NW 290 ° 0 min 0,000 mm 2,0 UV-I 287 W/m² 14,2 °C 19,4 °C 3,2 km/h (1 Bft)
29.09.2019 15:55 19,4 °C 74 % 1007,5 hPa 0,0 mm 0,9 km/h (0 Bft) W-NW 290 ° 0 min 0,000 mm 2,0 UV-I 283 W/m² 14,6 °C 19,4 °C 1,6 km/h (1 Bft)
29.09.2019 15:56 19,4 °C 70 % 1007,6 hPa 0,0 mm 0,0 km/h (0 Bft) W-NW 290 ° 0 min 0,000 mm 2,1 UV-I 301 W/m² 13,8 °C 19,4 °C 0,0 km/h (0 Bft)
29.09.2019 15:57 19,5 °C 68 % 1007,5 hPa 0,0 mm 0,0 km/h (0 Bft) W-NW 290 ° 0 min 0,000 mm 2,0 UV-I 302 W/m² 13,4 °C 19,5 °C 0,0 km/h (0 Bft)
29.09.2019 15:58 19,6 °C 68 % 1007,5 hPa 0,0 mm 0,1 km/h (0 Bft) W-NW 290 ° 0 min 0,000 mm 2,0 UV-I 283 W/m² 13,5 °C 19,6 °C 1,6 km/h (1 Bft)
29.09.2019 15:59 19,7 °C 70 % 1007,5 hPa 0,0 mm 0,1 km/h (0 Bft) W-NW 290 ° 0 min 0,000 mm 2,1 UV-I 316 W/m² 14,1 °C 19,7 °C 1,6 km/h (1 Bft)
29.09.2019 16:00 19,7 °C 69 % 1007,5 hPa 0,0 mm 0,0 km/h (0 Bft) W-NW 290 ° 0 min 0,000 mm 2,0 UV-I 320 W/m² 13,8 °C 19,7 °C 0,0 km/h (0 Bft)
29.09.2019 16:01 19,7 °C 70 % 1007,5 hPa 0,0 mm 0,0 km/h (0 Bft) W-NW 290 ° 0 min 0,203 mm 1,9 UV-I 276 W/m² 14,1 °C 19,7 °C 0,0 km/h (0 Bft)
29.09.2019 16:02 19,7 °C 71 % 1007,4 hPa 0,0 mm 0,0 km/h (0 Bft) W-NW 290 ° 0 min 0,000 mm 1,8 UV-I 237 W/m² 14,3 °C 19,7 °C 0,0 km/h (0 Bft)
29.09.2019 16:03 19,7 °C 69 % 1007,4 hPa 0,0 mm 0,0 km/h (0 Bft) W-NW 290 ° 0 min 0,000 mm 1,8 UV-I 262 W/m² 13,8 °C 19,7 °C 0,0 km/h (0 Bft)
29.09.2019 16:04 19,4 °C 70 % 1007,4 hPa 0,0 mm 0,0 km/h (0 Bft) W-NW 290 ° 0 min 0,000 mm 2,1 UV-I 262 W/m² 13,8 °C 19,4 °C 0,0 km/h (0 Bft)
29.09.2019 16:05 19,3 °C 69 % 1007,4 hPa 0,0 mm 0,0 km/h (0 Bft) W-NW 290 ° 0 min 0,000 mm 1,8 UV-I 202 W/m² 13,5 °C 19,3 °C 0,0 km/h (0 Bft)
29.09.2019 16:06 19,2 °C 69 % 1007,4 hPa 0,0 mm 0,0 km/h (0 Bft) W-NW 290 ° 0 min 0,000 mm 1,7 UV-I 236 W/m² 13,4 °C 19,2 °C 0,0 km/h (0 Bft)
29.09.2019 16:07 19,1 °C 73 % 1007,4 hPa 0,0 mm 0,0 km/h (0 Bft) W-NW 290 ° 0 min 0,000 mm 1,9 UV-I 330 W/m² 14,1 °C 19,1 °C 0,0 km/h (0 Bft)
29.09.2019 16:08 19,1 °C 74 % 1007,4 hPa 0,0 mm 0,0 km/h (0 Bft) W-NW 290 ° 0 min 0,000 mm 2,1 UV-I 406 W/m² 14,4 °C 19,1 °C 0,0 km/h (0 Bft)
29.09.2019 16:09 19,2 °C 74 % 1007,3 hPa 0,0 mm 0,0 km/h (0 Bft) W-NW 290 ° 0 min 0,000 mm 2,1 UV-I 450 W/m² 14,4 °C 19,2 °C 0,0 km/h (0 Bft)
29.09.2019 16:10 19,3 °C 70 % 1007,4 hPa 0,0 mm 0,0 km/h (0 Bft) W-NW 290 ° 0 min 0,000 mm 2,1 UV-I 434 W/m² 13,7 °C 19,3 °C 0,0 km/h (0 Bft)
29.09.2019 16:11 19,4 °C 74 % 1007,4 hPa 0,0 mm 0,0 km/h (0 Bft) W-NW 290 ° 0 min 0,000 mm 2,1 UV-I 424 W/m² 14,6 °C 19,4 °C 0,0 km/h (0 Bft)
29.09.2019 16:12 19,4 °C 70 % 1007,3 hPa 0,0 mm 0,0 km/h (0 Bft) W-NW 290 ° 0 min 0,000 mm 2,0 UV-I 404 W/m² 13,8 °C 19,4 °C 0,0 km/h (0 Bft)
29.09.2019 16:13 19,4 °C 69 % 1007,3 hPa 0,0 mm 0,0 km/h (0 Bft) W-NW 290 ° 0 min 0,000 mm 1,9 UV-I 350 W/m² 13,6 °C 19,4 °C 0,0 km/h (0 Bft)
29.09.2019 16:14 19,4 °C 72 % 1007,3 hPa 0,2 mm 0,0 km/h (0 Bft) W-NW 290 ° 0 min 0,000 mm 1,7 UV-I 292 W/m² 14,2 °C 19,4 °C 0,0 km/h (0 Bft)
29.09.2019 16:15 19,5 °C 75 % 1007,3 hPa 0,0 mm 0,0 km/h (0 Bft) W-NW 290 ° 0 min 0,000 mm 1,6 UV-I 209 W/m² 14,9 °C 19,5 °C 0,0 km/h (0 Bft)
29.09.2019 16:16 19,5 °C 72 % 1007,3 hPa 0,0 mm 0,0 km/h (0 Bft) W-NW 290 ° 0 min 0,000 mm 1,5 UV-I 149 W/m² 14,3 °C 19,5 °C 0,0 km/h (0 Bft)
29.09.2019 16:17 19,4 °C 74 % 1007,3 hPa 0,0 mm 0,0 km/h (0 Bft) W-NW 290 ° 0 min 0,000 mm 1,4 UV-I 107 W/m² 14,6 °C 19,4 °C 0,0 km/h (0 Bft)
29.09.2019 16:18 19,3 °C 72 % 1007,3 hPa 0,0 mm 0,0 km/h (0 Bft) W-NW 290 ° 0 min 0,000 mm 1,3 UV-I 104 W/m² 14,1 °C 19,3 °C 0,0 km/h (0 Bft)
29.09.2019 16:19 19,5 °C 69 % 1007,3 hPa 0,0 mm 0,0 km/h (0 Bft) W-NW 290 ° 0 min 0,000 mm 1,3 UV-I 90 W/m² 13,7 °C 19,5 °C 0,0 km/h (0 Bft)
29.09.2019 16:20 19,6 °C 67 % 1007,3 hPa 0,0 mm 0,0 km/h (0 Bft) W-NW 290 ° 0 min 0,000 mm 1,3 UV-I 77 W/m² 13,3 °C 19,6 °C 0,0 km/h (0 Bft)
29.09.2019 16:21 19,7 °C 67 % 1007,3 hPa 0,0 mm 0,0 km/h (0 Bft) W-NW 290 ° 0 min 0,000 mm 0,0 UV-I 54 W/m² 13,4 °C 19,7 °C 0,0 km/h (0 Bft)
29.09.2019 16:22 19,8 °C 68 % 1007,3 hPa 0,0 mm 0,0 km/h (0 Bft) W-NW 290 ° 0 min 0,000 mm 0,0 UV-I 51 W/m² 13,7 °C 19,8 °C 0,0 km/h (0 Bft)
29.09.2019 16:23 19,8 °C 72 % 1007,2 hPa 0,0 mm 0,0 km/h (0 Bft) NW 313 ° 0 min 0,000 mm 1,3 UV-I 62 W/m² 14,6 °C 19,8 °C 0,0 km/h (0 Bft)
29.09.2019 16:24 19,8 °C 70 % 1007,2 hPa 0,0 mm 1,5 km/h (1 Bft) NW 317 ° 0 min 0,000 mm 1,4 UV-I 109 W/m² 14,2 °C 19,8 °C 4,8 km/h (1 Bft)
29.09.2019 16:25 19,7 °C 71 % 1007,3 hPa 0,0 mm 1,6 km/h (1 Bft) NW 317 ° 0 min 0,000 mm 1,4 UV-I 137 W/m² 14,3 °C 19,7 °C 3,2 km/h (1 Bft)
29.09.2019 16:26 19,6 °C 68 % 1007,4 hPa 0,0 mm 0,7 km/h (0 Bft) NW 317 ° 0 min 0,000 mm 1,4 UV-I 135 W/m² 13,5 °C 19,6 °C 3,2 km/h (1 Bft)
29.09.2019 16:27 19,6 °C 68 % 1007,3 hPa 0,0 mm 0,0 km/h (0 Bft) NW 317 ° 0 min 0,000 mm 1,3 UV-I 139 W/m² 13,5 °C 19,6 °C 0,0 km/h (0 Bft)
29.09.2019 16:28 19,6 °C 68 % 1007,4 hPa 0,0 mm 3,5 km/h (1 Bft) W-NW 296 ° 0 min 0,000 mm 1,5 UV-I 199 W/m² 13,5 °C 19,6 °C 6,4 km/h (2 Bft)
29.09.2019 16:29 19,7 °C 67 % 1007,3 hPa 0,0 mm 3,2 km/h (1 Bft) NW 313 ° 0 min 0,000 mm 1,7 UV-I 357 W/m² 13,4 °C 19,7 °C 4,8 km/h (1 Bft)
29.09.2019 16:30 19,8 °C 66 % 1007,3 hPa 0,0 mm 3,2 km/h (1 Bft) N-NW 339 ° 0 min 0,000 mm 1,6 UV-I 330 W/m² 13,3 °C 19,8 °C 4,8 km/h (1 Bft)
29.09.2019 16:31 19,8 °C 66 % 1007,3 hPa 0,0 mm 2,7 km/h (1 Bft) W-NW 284 ° 0 min 0,000 mm 1,6 UV-I 272 W/m² 13,3 °C 19,8 °C 6,4 km/h (2 Bft)
29.09.2019 16:32 19,9 °C 66 % 1007,3 hPa 0,0 mm 4,5 km/h (1 Bft) NW 322 ° 0 min 0,000 mm 1,4 UV-I 272 W/m² 13,4 °C 19,9 °C 6,4 km/h (2 Bft)
29.09.2019 16:33 20,0 °C 66 % 1007,3 hPa 0,0 mm 2,3 km/h (1 Bft) NW 320 ° 0 min 0,000 mm 1,3 UV-I 111 W/m² 13,4 °C 20,0 °C 6,4 km/h (2 Bft)
29.09.2019 16:34 20,1 °C 64 % 1007,3 hPa 0,0 mm 2,3 km/h (1 Bft) NW 321 ° 0 min 0,000 mm 1,3 UV-I 265 W/m² 13,1 °C 20,1 °C 3,2 km/h (1 Bft)
29.09.2019 16:35 20,1 °C 66 % 1007,3 hPa 0,0 mm 2,0 km/h (1 Bft) NW 319 ° 0 min 0,000 mm 1,5 UV-I 241 W/m² 13,5 °C 20,1 °C 4,8 km/h (1 Bft)
29.09.2019 16:36 20,1 °C 66 % 1007,2 hPa 0,0 mm 2,4 km/h (1 Bft) NW 319 ° 0 min 0,000 mm 1,3 UV-I 241 W/m² 13,5 °C 20,1 °C 3,2 km/h (1 Bft)
29.09.2019 16:37 20,1 °C 66 % 1007,2 hPa 0,0 mm 3,1 km/h (1 Bft) N-NW 336 ° 0 min 0,000 mm 0,0 UV-I 53 W/m² 13,5 °C 20,1 °C 4,8 km/h (1 Bft)
29.09.2019 16:38 20,1 °C 67 % 1007,2 hPa 0,0 mm 4,0 km/h (1 Bft) N-NW 336 ° 0 min 0,000 mm 1,1 UV-I 67 W/m² 13,8 °C 20,1 °C 4,8 km/h (1 Bft)
29.09.2019 16:39 20,1 °C 66 % 1007,3 hPa 0,0 mm 3,3 km/h (1 Bft) NW 319 ° 0 min 0,000 mm 1,1 UV-I 109 W/m² 13,5 °C 20,1 °C 4,8 km/h (1 Bft)
29.09.2019 16:40 20,1 °C 65 % 1007,3 hPa 0,0 mm 3,3 km/h (1 Bft) NW 315 ° 0 min 0,000 mm 1,1 UV-I 70 W/m² 13,3 °C 20,1 °C 4,8 km/h (1 Bft)
29.09.2019 16:41 20,2 °C 65 % 1007,1 hPa 0,0 mm 2,2 km/h (1 Bft) NW 315 ° 0 min 0,000 mm 1,2 UV-I 86 W/m² 13,4 °C 20,2 °C 3,2 km/h (1 Bft)
29.09.2019 16:42 20,1 °C 67 % 1007,1 hPa 0,0 mm 2,5 km/h (1 Bft) NW 315 ° 0 min 0,000 mm 1,2 UV-I 63 W/m² 13,8 °C 20,1 °C 3,2 km/h (1 Bft)
29.09.2019 16:43 20,1 °C 66 % 1007,1 hPa 0,0 mm 4,0 km/h (1 Bft) W-NW 297 ° 0 min 0,000 mm 1,1 UV-I 58 W/m² 13,5 °C 20,1 °C 4,8 km/h (1 Bft)
29.09.2019 16:44 20,1 °C 65 % 1007,1 hPa 0,0 mm 1,8 km/h (1 Bft) W-NW 298 ° 0 min 0,000 mm 1,1 UV-I 56 W/m² 13,3 °C 20,1 °C 4,8 km/h (1 Bft)
29.09.2019 16:45 20,1 °C 65 % 1007,1 hPa 0,0 mm 2,6 km/h (1 Bft) NW 304 ° 0 min 0,000 mm 0,0 UV-I 53 W/m² 13,3 °C 20,1 °C 6,4 km/h (2 Bft)
29.09.2019 16:46 20,1 °C 66 % 1007,1 hPa 0,0 mm 5,1 km/h (1 Bft) W-NW 298 ° 0 min 0,000 mm 0,0 UV-I 42 W/m² 13,5 °C 20,1 °C 6,4 km/h (2 Bft)
29.09.2019 16:47 20,0 °C 68 % 1007,2 hPa 0,0 mm 1,0 km/h (0 Bft) W-NW 298 ° 0 min 0,000 mm 0,0 UV-I 42 W/m² 13,9 °C 20,0 °C 4,8 km/h (1 Bft)
29.09.2019 16:48 19,8 °C 69 % 1007,1 hPa 0,0 mm 0,0 km/h (0 Bft) W-NW 298 ° 0 min 0,000 mm 0,0 UV-I 37 W/m² 13,9 °C 19,8 °C 0,0 km/h (0 Bft)
29.09.2019 16:49 19,7 °C 69 % 1007,1 hPa 0,0 mm 0,0 km/h (0 Bft) W-NW 298 ° 0 min 0,000 mm 0,0 UV-I 47 W/m² 13,8 °C 19,7 °C 0,0 km/h (0 Bft)
29.09.2019 16:50 19,6 °C 72 % 1007,1 hPa 0,0 mm 0,5 km/h (0 Bft) W-NW 298 ° 0 min 0,000 mm 1,0 UV-I 111 W/m² 14,4 °C 19,6 °C 3,2 km/h (1 Bft)
29.09.2019 16:51 19,4 °C 72 % 1007,0 hPa 0,0 mm 2,6 km/h (1 Bft) W-NW 298 ° 0 min 0,000 mm 1,1 UV-I 188 W/m² 14,2 °C 19,4 °C 4,8 km/h (1 Bft)
29.09.2019 16:52 19,2 °C 74 % 1007,0 hPa 0,0 mm 0,8 km/h (0 Bft) W-NW 298 ° 0 min 0,000 mm 1,2 UV-I 149 W/m² 14,4 °C 19,2 °C 3,2 km/h (1 Bft)
29.09.2019 16:53 19,1 °C 73 % 1007,0 hPa 0,0 mm 0,1 km/h (0 Bft) W-NW 298 ° 0 min 0,000 mm 1,0 UV-I 93 W/m² 14,1 °C 19,1 °C 1,6 km/h (1 Bft)
29.09.2019 16:54 19,0 °C 72 % 1007,0 hPa 0,0 mm 0,0 km/h (0 Bft) W-NW 298 ° 0 min 0,000 mm 1,0 UV-I 104 W/m² 13,8 °C 19,0 °C 0,0 km/h (0 Bft)
29.09.2019 16:55 19,0 °C 72 % 1007,0 hPa 0,0 mm 0,0 km/h (0 Bft) W-NW 298 ° 0 min 0,000 mm 1,0 UV-I 118 W/m² 13,8 °C 19,0 °C 0,0 km/h (0 Bft)
29.09.2019 16:56 19,0 °C 72 % 1007,0 hPa 0,0 mm 0,1 km/h (0 Bft) W-NW 298 ° 0 min 0,000 mm 1,0 UV-I 90 W/m² 13,8 °C 19,0 °C 1,6 km/h (1 Bft)
29.09.2019 16:57 19,1 °C 71 % 1007,0 hPa 0,0 mm 2,6 km/h (1 Bft) W 278 ° 0 min 0,000 mm 0,0 UV-I 35 W/m² 13,7 °C 19,1 °C 4,8 km/h (1 Bft)
29.09.2019 16:58 19,2 °C 70 % 1007,0 hPa 0,0 mm 0,9 km/h (0 Bft) NW 323 ° 0 min 0,000 mm 0,0 UV-I 35 W/m² 13,6 °C 19,2 °C 3,2 km/h (1 Bft)
29.09.2019 16:59 19,3 °C 70 % 1007,0 hPa 0,0 mm 1,9 km/h (1 Bft) W-NW 286 ° 0 min 0,000 mm 0,0 UV-I 35 W/m² 13,7 °C 19,3 °C 6,4 km/h (2 Bft)
29.09.2019 17:00 19,4 °C 71 % 1007,0 hPa 0,0 mm 2,4 km/h (1 Bft) W-NW 286 ° 0 min 0,102 mm 0,0 UV-I 37 W/m² 14,0 °C 19,4 °C 3,2 km/h (1 Bft)
29.09.2019 17:01 19,4 °C 71 % 1007,0 hPa 0,0 mm 2,7 km/h (1 Bft) W-NW 286 ° 0 min 0,000 mm 0,0 UV-I 35 W/m² 14,0 °C 19,4 °C 6,4 km/h (2 Bft)
29.09.2019 17:02 19,4 °C 71 % 1007,0 hPa 0,0 mm 2,0 km/h (1 Bft) W-NW 286 ° 0 min 0,000 mm 0,0 UV-I 35 W/m² 14,0 °C 19,4 °C 3,2 km/h (1 Bft)
29.09.2019 17:03 19,3 °C 70 % 1007,0 hPa 0,0 mm 1,4 km/h (1 Bft) W-NW 288 ° 0 min 0,000 mm 0,0 UV-I 37 W/m² 13,7 °C 19,3 °C 4,8 km/h (1 Bft)
29.09.2019 17:04 19,4 °C 69 % 1007,0 hPa 0,0 mm 5,3 km/h (1 Bft) W 279 ° 0 min 0,000 mm 0,0 UV-I 37 W/m² 13,6 °C 19,4 °C 6,4 km/h (2 Bft)
29.09.2019 17:05 19,4 °C 68 % 1007,0 hPa 0,0 mm 5,1 km/h (1 Bft) W-NW 295 ° 0 min 0,000 mm 0,0 UV-I 39 W/m² 13,3 °C 19,4 °C 6,4 km/h (2 Bft)
29.09.2019 17:06 19,6 °C 69 % 1007,1 hPa 0,0 mm 4,0 km/h (1 Bft) W-NW 290 ° 0 min 0,000 mm 0,0 UV-I 42 W/m² 13,8 °C 19,6 °C 6,4 km/h (2 Bft)
29.09.2019 17:07 19,6 °C 68 % 1007,1 hPa 0,0 mm 1,9 km/h (1 Bft) W 271 ° 0 min 0,000 mm 0,0 UV-I 46 W/m² 13,5 °C 19,6 °C 4,8 km/h (1 Bft)
29.09.2019 17:08 19,7 °C 69 % 1007,1 hPa 0,0 mm 2,9 km/h (1 Bft) W-NW 286 ° 0 min 0,000 mm 0,0 UV-I 40 W/m² 13,8 °C 19,7 °C 4,8 km/h (1 Bft)
29.09.2019 17:09 19,6 °C 69 % 1007,1 hPa 0,0 mm 1,8 km/h (1 Bft) W-NW 284 ° 0 min 0,000 mm 0,0 UV-I 30 W/m² 13,8 °C 19,6 °C 4,8 km/h (1 Bft)
29.09.2019 17:10 19,6 °C 69 % 1007,1 hPa 0,0 mm 4,3 km/h (1 Bft) W-NW 286 ° 0 min 0,000 mm 0,0 UV-I 30 W/m² 13,8 °C 19,6 °C 6,4 km/h (2 Bft)
29.09.2019 17:11 19,6 °C 69 % 1007,1 hPa 0,0 mm 4,9 km/h (1 Bft) W 259 ° 0 min 0,000 mm 0,0 UV-I 30 W/m² 13,8 °C 19,6 °C 6,4 km/h (2 Bft)
29.09.2019 17:12 19,5 °C 70 % 1007,1 hPa 0,0 mm 5,4 km/h (1 Bft) W 263 ° 0 min 0,000 mm 0,0 UV-I 30 W/m² 13,9 °C 19,5 °C 9,7 km/h (2 Bft)
29.09.2019 17:13 19,5 °C 69 % 1007,1 hPa 0,0 mm 5,9 km/h (2 Bft) W 271 ° 0 min 0,000 mm 0,0 UV-I 28 W/m² 13,7 °C 19,5 °C 9,7 km/h (2 Bft)
29.09.2019 17:14 19,4 °C 68 % 1007,0 hPa 0,0 mm 6,7 km/h (2 Bft) SW 227 ° 0 min 0,000 mm 0,0 UV-I 28 W/m² 13,3 °C 19,4 °C 9,7 km/h (2 Bft)
29.09.2019 17:15 19,4 °C 67 % 1007,1 hPa 0,0 mm 5,8 km/h (2 Bft) W-NW 289 ° 0 min 0,000 mm 0,0 UV-I 28 W/m² 13,1 °C 19,4 °C 8,0 km/h (2 Bft)
29.09.2019 17:16 19,4 °C 67 % 1007,0 hPa 0,0 mm 4,3 km/h (1 Bft) W 275 ° 0 min 0,000 mm 0,0 UV-I 28 W/m² 13,1 °C 19,4 °C 9,7 km/h (2 Bft)
29.09.2019 17:17 19,5 °C 68 % 1007,0 hPa 0,0 mm 8,7 km/h (2 Bft) W-NW 298 ° 0 min 0,000 mm 0,0 UV-I 28 W/m² 13,4 °C 19,5 °C 14,5 km/h (3 Bft)
29.09.2019 17:18 19,6 °C 65 % 1007,0 hPa 0,0 mm 10,0 km/h (2 Bft) W-NW 297 ° 0 min 0,000 mm 0,0 UV-I 28 W/m² 12,8 °C 19,6 °C 14,5 km/h (3 Bft)
29.09.2019 17:19 19,6 °C 66 % 1007,0 hPa 0,0 mm 8,7 km/h (2 Bft) NW 319 ° 0 min 0,000 mm 0,0 UV-I 28 W/m² 13,1 °C 19,6 °C 11,3 km/h (2 Bft)
29.09.2019 17:20 19,7 °C 66 % 1006,9 hPa 0,0 mm 4,6 km/h (1 Bft) NW 324 ° 0 min 0,000 mm 0,0 UV-I 28 W/m² 13,2 °C 19,7 °C 6,4 km/h (2 Bft)
29.09.2019 17:21 19,7 °C 66 % 1006,8 hPa 0,0 mm 3,0 km/h (1 Bft) NW 325 ° 0 min 0,000 mm 0,0 UV-I 28 W/m² 13,2 °C 19,7 °C 4,8 km/h (1 Bft)
29.09.2019 17:22 19,7 °C 67 % 1006,8 hPa 0,0 mm 5,4 km/h (1 Bft) W-SW 240 ° 0 min 0,000 mm 0,0 UV-I 26 W/m² 13,4 °C 19,7 °C 8,0 km/h (2 Bft)
29.09.2019 17:23 19,4 °C 68 % 1006,8 hPa 0,0 mm 7,5 km/h (2 Bft) W 262 ° 0 min 0,000 mm 0,0 UV-I 26 W/m² 13,3 °C 19,4 °C 11,3 km/h (2 Bft)
29.09.2019 17:24 19,4 °C 67 % 1006,8 hPa 0,0 mm 1,5 km/h (1 Bft) W 262 ° 0 min 0,000 mm 0,0 UV-I 26 W/m² 13,1 °C 19,4 °C 4,8 km/h (1 Bft)
29.09.2019 17:25 19,5 °C 67 % 1006,9 hPa 0,0 mm 0,6 km/h (0 Bft) W 262 ° 0 min 0,000 mm 0,0 UV-I 26 W/m² 13,2 °C 19,5 °C 1,6 km/h (1 Bft)
29.09.2019 17:26 19,4 °C 67 % 1006,8 hPa 0,0 mm 2,4 km/h (1 Bft) W 261 ° 0 min 0,000 mm 0,0 UV-I 26 W/m² 13,1 °C 19,4 °C 4,8 km/h (1 Bft)
29.09.2019 17:27 19,3 °C 68 % 1006,8 hPa 0,0 mm 2,3 km/h (1 Bft) W 259 ° 0 min 0,000 mm 0,0 UV-I 26 W/m² 13,2 °C 19,3 °C 4,8 km/h (1 Bft)
29.09.2019 17:28 19,2 °C 68 % 1006,8 hPa 0,0 mm 1,3 km/h (1 Bft) W 266 ° 0 min 0,000 mm 0,0 UV-I 26 W/m² 13,1 °C 19,2 °C 3,2 km/h (1 Bft)
29.09.2019 17:29 19,1 °C 69 % 1006,7 hPa 0,0 mm 6,5 km/h (2 Bft) W-NW 284 ° 0 min 0,000 mm 0,0 UV-I 26 W/m² 13,3 °C 19,1 °C 11,3 km/h (2 Bft)
29.09.2019 17:30 19,1 °C 69 % 1006,8 hPa 0,0 mm 7,0 km/h (2 Bft) W-NW 293 ° 0 min 0,000 mm 0,0 UV-I 26 W/m² 13,3 °C 19,1 °C 9,7 km/h (2 Bft)
29.09.2019 17:31 19,1 °C 69 % 1006,8 hPa 0,2 mm 2,6 km/h (1 Bft) W-NW 292 ° 0 min 0,000 mm 0,0 UV-I 26 W/m² 13,3 °C 19,1 °C 6,4 km/h (2 Bft)
29.09.2019 17:32 18,9 °C 70 % 1006,8 hPa 0,0 mm 2,7 km/h (1 Bft) W 274 ° 0 min 0,000 mm 0,0 UV-I 26 W/m² 13,3 °C 18,9 °C 4,8 km/h (1 Bft)
29.09.2019 17:33 18,8 °C 70 % 1006,7 hPa 0,0 mm 0,1 km/h (0 Bft) W 274 ° 0 min 0,000 mm 0,0 UV-I 26 W/m² 13,2 °C 18,8 °C 1,6 km/h (1 Bft)
29.09.2019 17:34 18,8 °C 70 % 1006,8 hPa 0,0 mm 0,0 km/h (0 Bft) W 274 ° 0 min 0,000 mm 0,0 UV-I 28 W/m² 13,2 °C 18,8 °C 0,0 km/h (0 Bft)
29.09.2019 17:35 18,8 °C 69 % 1006,8 hPa 0,0 mm 2,4 km/h (1 Bft) W 273 ° 0 min 0,000 mm 0,0 UV-I 26 W/m² 13,0 °C 18,8 °C 4,8 km/h (1 Bft)
29.09.2019 17:36 18,7 °C 70 % 1006,8 hPa 0,0 mm 0,2 km/h (0 Bft) W 273 ° 0 min 0,000 mm 0,0 UV-I 26 W/m² 13,1 °C 18,7 °C 1,6 km/h (1 Bft)
29.09.2019 17:37 18,7 °C 70 % 1006,8 hPa 0,0 mm 0,0 km/h (0 Bft) W 273 ° 0 min 0,000 mm 0,0 UV-I 26 W/m² 13,1 °C 18,7 °C 0,0 km/h (0 Bft)
29.09.2019 17:38 18,6 °C 70 % 1006,8 hPa 0,0 mm 0,0 km/h (0 Bft) W 273 ° 0 min 0,000 mm 0,0 UV-I 26 W/m² 13,0 °C 18,6 °C 0,0 km/h (0 Bft)
29.09.2019 17:39 18,5 °C 70 % 1006,8 hPa 0,0 mm 0,0 km/h (0 Bft) W 273 ° 0 min 0,000 mm 0,0 UV-I 26 W/m² 12,9 °C 18,5 °C 0,0 km/h (0 Bft)
29.09.2019 17:40 18,5 °C 70 % 1006,8 hPa 0,0 mm 0,0 km/h (0 Bft) W 273 ° 0 min 0,000 mm 0,0 UV-I 26 W/m² 12,9 °C 18,5 °C 0,0 km/h (0 Bft)
29.09.2019 17:41 18,5 °C 70 % 1006,8 hPa 0,0 mm 0,0 km/h (0 Bft) W 273 ° 0 min 0,000 mm 0,0 UV-I 26 W/m² 12,9 °C 18,5 °C 0,0 km/h (0 Bft)
29.09.2019 17:42 18,5 °C 71 % 1006,8 hPa 0,0 mm 0,1 km/h (0 Bft) W 273 ° 0 min 0,000 mm 0,0 UV-I 28 W/m² 13,1 °C 18,5 °C 1,6 km/h (1 Bft)
29.09.2019 17:43 18,4 °C 73 % 1006,8 hPa 0,0 mm 0,0 km/h (0 Bft) W 273 ° 0 min 0,000 mm 0,0 UV-I 28 W/m² 13,5 °C 18,4 °C 0,0 km/h (0 Bft)
29.09.2019 17:44 18,2 °C 72 % 1006,8 hPa 0,0 mm 0,0 km/h (0 Bft) W 273 ° 0 min 0,000 mm 0,0 UV-I 28 W/m² 13,1 °C 18,2 °C 0,0 km/h (0 Bft)
29.09.2019 17:45 18,2 °C 72 % 1006,8 hPa 0,0 mm 0,0 km/h (0 Bft) W 273 ° 0 min 0,000 mm 0,0 UV-I 28 W/m² 13,1 °C 18,2 °C 0,0 km/h (0 Bft)
29.09.2019 17:46 18,2 °C 72 % 1006,8 hPa 0,0 mm 0,0 km/h (0 Bft) W 273 ° 0 min 0,000 mm 0,0 UV-I 28 W/m² 13,1 °C 18,2 °C 0,0 km/h (0 Bft)
29.09.2019 17:47 17,9 °C 73 % 1006,8 hPa 0,0 mm 0,0 km/h (0 Bft) W 273 ° 0 min 0,000 mm 0,0 UV-I 28 W/m² 13,0 °C 17,9 °C 0,0 km/h (0 Bft)
29.09.2019 17:48 17,8 °C 75 % 1006,8 hPa 0,0 mm 0,0 km/h (0 Bft) W 273 ° 0 min 0,000 mm 0,0 UV-I 30 W/m² 13,3 °C 17,8 °C 0,0 km/h (0 Bft)
29.09.2019 17:49 17,6 °C 76 % 1006,8 hPa 0,0 mm 0,0 km/h (0 Bft) W 273 ° 0 min 0,000 mm 0,0 UV-I 28 W/m² 13,3 °C 17,6 °C 0,0 km/h (0 Bft)
29.09.2019 17:50 17,5 °C 76 % 1006,8 hPa 0,0 mm 0,0 km/h (0 Bft) W 273 ° 0 min 0,000 mm 0,0 UV-I 26 W/m² 13,2 °C 17,5 °C 0,0 km/h (0 Bft)
29.09.2019 17:51 17,4 °C 76 % 1006,8 hPa 0,0 mm 0,0 km/h (0 Bft) W 273 ° 0 min 0,000 mm 0,0 UV-I 26 W/m² 13,1 °C 17,4 °C 0,0 km/h (0 Bft)
29.09.2019 17:52 17,4 °C 76 % 1006,8 hPa 0,0 mm 0,0 km/h (0 Bft) W 273 ° 0 min 0,000 mm 0,0 UV-I 26 W/m² 13,1 °C 17,4 °C 0,0 km/h (0 Bft)
29.09.2019 17:53 17,5 °C 75 % 1006,8 hPa 0,0 mm 0,0 km/h (0 Bft) W 273 ° 0 min 0,000 mm 0,0 UV-I 25 W/m² 13,0 °C 17,5 °C 0,0 km/h (0 Bft)
29.09.2019 17:54 17,6 °C 75 % 1006,8 hPa 0,0 mm 0,0 km/h (0 Bft) W 273 ° 0 min 0,000 mm 0,0 UV-I 23 W/m² 13,1 °C 17,6 °C 0,0 km/h (0 Bft)
29.09.2019 17:55 17,7 °C 75 % 1006,8 hPa 0,0 mm 0,0 km/h (0 Bft) W 273 ° 0 min 0,000 mm 0,0 UV-I 23 W/m² 13,2 °C 17,7 °C 0,0 km/h (0 Bft)
29.09.2019 17:56 17,7 °C 75 % 1006,8 hPa 0,0 mm 0,0 km/h (0 Bft) W 273 ° 0 min 0,000 mm 0,0 UV-I 25 W/m² 13,2 °C 17,7 °C 0,0 km/h (0 Bft)
29.09.2019 17:57 17,7 °C 75 % 1006,8 hPa 0,0 mm 0,0 km/h (0 Bft) W 273 ° 0 min 0,000 mm 0,0 UV-I 26 W/m² 13,2 °C 17,7 °C 0,0 km/h (0 Bft)
29.09.2019 17:58 17,7 °C 74 % 1006,7 hPa 0,0 mm 0,0 km/h (0 Bft) W 273 ° 0 min 0,000 mm 0,0 UV-I 28 W/m² 13,0 °C 17,7 °C 0,0 km/h (0 Bft)
29.09.2019 17:59 17,7 °C 76 % 1006,7 hPa 0,0 mm 0,0 km/h (0 Bft) W 273 ° 0 min 0,000 mm 0,0 UV-I 28 W/m² 13,4 °C 17,7 °C 0,0 km/h (0 Bft)
29.09.2019 18:00 17,6 °C 76 % 1006,7 hPa 0,0 mm 0,0 km/h (0 Bft) S 178 ° 0 min 0,000 mm 0,0 UV-I 30 W/m² 13,3 °C 17,6 °C 0,0 km/h (0 Bft)
29.09.2019 18:01 17,6 °C 77 % 1006,7 hPa 0,0 mm 0,0 km/h (0 Bft) S 178 ° 0 min 0,025 mm 0,0 UV-I 30 W/m² 13,5 °C 17,6 °C 0,0 km/h (0 Bft)
29.09.2019 18:02 17,5 °C 77 % 1006,6 hPa 0,0 mm 0,0 km/h (0 Bft) S 178 ° 0 min 0,000 mm 0,0 UV-I 33 W/m² 13,4 °C 17,5 °C 0,0 km/h (0 Bft)
29.09.2019 18:03 17,4 °C 77 % 1006,7 hPa 0,0 mm 0,0 km/h (0 Bft) S 178 ° 0 min 0,000 mm 0,0 UV-I 35 W/m² 13,3 °C 17,4 °C 0,0 km/h (0 Bft)
29.09.2019 18:04 17,3 °C 77 % 1006,6 hPa 0,0 mm 0,0 km/h (0 Bft) S 178 ° 0 min 0,000 mm 0,0 UV-I 37 W/m² 13,2 °C 17,3 °C 0,0 km/h (0 Bft)
29.09.2019 18:05 17,3 °C 78 % 1006,6 hPa 0,0 mm 1,0 km/h (0 Bft) S 178 ° 0 min 0,000 mm 0,0 UV-I 37 W/m² 13,4 °C 17,3 °C 3,2 km/h (1 Bft)
29.09.2019 18:06 17,3 °C 79 % 1006,6 hPa 0,0 mm 0,0 km/h (0 Bft) S 178 ° 0 min 0,000 mm 0,0 UV-I 39 W/m² 13,6 °C 17,3 °C 0,0 km/h (0 Bft)
29.09.2019 18:07 17,2 °C 80 % 1006,6 hPa 0,0 mm 0,4 km/h (0 Bft) S 178 ° 0 min 0,000 mm 0,0 UV-I 39 W/m² 13,7 °C 17,2 °C 1,6 km/h (1 Bft)
29.09.2019 18:08 17,1 °C 80 % 1006,6 hPa 0,0 mm 1,9 km/h (1 Bft) S 178 ° 0 min 0,000 mm 0,0 UV-I 37 W/m² 13,6 °C 17,1 °C 3,2 km/h (1 Bft)
29.09.2019 18:09 17,1 °C 81 % 1006,6 hPa 0,0 mm 2,7 km/h (1 Bft) S 178 ° 0 min 0,000 mm 0,0 UV-I 39 W/m² 13,8 °C 17,1 °C 4,8 km/h (1 Bft)
29.09.2019 18:10 17,1 °C 81 % 1006,6 hPa 0,0 mm 2,0 km/h (1 Bft) S 178 ° 0 min 0,000 mm 0,0 UV-I 40 W/m² 13,8 °C 17,1 °C 4,8 km/h (1 Bft)
29.09.2019 18:11 17,0 °C 80 % 1006,6 hPa 0,0 mm 0,3 km/h (0 Bft) S 178 ° 0 min 0,000 mm 0,0 UV-I 39 W/m² 13,5 °C 17,0 °C 3,2 km/h (1 Bft)
29.09.2019 18:12 17,0 °C 80 % 1006,5 hPa 0,0 mm 0,0 km/h (0 Bft) S 178 ° 0 min 0,000 mm 0,0 UV-I 39 W/m² 13,5 °C 17,0 °C 0,0 km/h (0 Bft)
29.09.2019 18:13 17,0 °C 81 % 1006,6 hPa 0,0 mm 0,0 km/h (0 Bft) S 178 ° 0 min 0,000 mm 0,0 UV-I 39 W/m² 13,7 °C 17,0 °C 0,0 km/h (0 Bft)
29.09.2019 18:14 17,0 °C 81 % 1006,5 hPa 0,0 mm 0,0 km/h (0 Bft) S 178 ° 0 min 0,000 mm 0,0 UV-I 39 W/m² 13,7 °C 17,0 °C 0,0 km/h (0 Bft)
29.09.2019 18:15 17,0 °C 82 % 1006,5 hPa 0,0 mm 0,0 km/h (0 Bft) S 178 ° 0 min 0,000 mm 0,0 UV-I 40 W/m² 13,9 °C 17,0 °C 0,0 km/h (0 Bft)
29.09.2019 18:16 17,0 °C 82 % 1006,6 hPa 0,0 mm 0,0 km/h (0 Bft) S 178 ° 0 min 0,000 mm 0,0 UV-I 40 W/m² 13,9 °C 17,0 °C 0,0 km/h (0 Bft)
29.09.2019 18:17 16,9 °C 83 % 1006,6 hPa 0,0 mm 0,0 km/h (0 Bft) S 178 ° 0 min 0,000 mm 0,0 UV-I 40 W/m² 14,0 °C 16,9 °C 0,0 km/h (0 Bft)
29.09.2019 18:18 16,9 °C 83 % 1006,6 hPa 0,0 mm 1,6 km/h (1 Bft) S 178 ° 0 min 0,000 mm 0,0 UV-I 40 W/m² 14,0 °C 16,9 °C 4,8 km/h (1 Bft)
29.09.2019 18:19 16,9 °C 82 % 1006,5 hPa 0,0 mm 1,9 km/h (1 Bft) S 178 ° 0 min 0,000 mm 0,0 UV-I 37 W/m² 13,8 °C 16,9 °C 3,2 km/h (1 Bft)
29.09.2019 18:20 16,9 °C 82 % 1006,6 hPa 0,0 mm 1,5 km/h (1 Bft) S 178 ° 0 min 0,000 mm 0,0 UV-I 35 W/m² 13,8 °C 16,9 °C 4,8 km/h (1 Bft)
29.09.2019 18:21 17,0 °C 82 % 1006,5 hPa 0,0 mm 2,0 km/h (1 Bft) S 178 ° 0 min 0,000 mm 0,0 UV-I 35 W/m² 13,9 °C 17,0 °C 6,4 km/h (2 Bft)
29.09.2019 18:22 17,1 °C 81 % 1006,6 hPa 0,0 mm 0,0 km/h (0 Bft) S 178 ° 0 min 0,000 mm 0,0 UV-I 33 W/m² 13,8 °C 17,1 °C 0,0 km/h (0 Bft)
29.09.2019 18:23 17,1 °C 80 % 1006,5 hPa 0,0 mm 0,0 km/h (0 Bft) S 178 ° 0 min 0,000 mm 0,0 UV-I 32 W/m² 13,6 °C 17,1 °C 0,0 km/h (0 Bft)
29.09.2019 18:24 17,2 °C 80 % 1006,6 hPa 0,0 mm 0,0 km/h (0 Bft) S 178 ° 0 min 0,000 mm 0,0 UV-I 30 W/m² 13,7 °C 17,2 °C 0,0 km/h (0 Bft)
29.09.2019 18:25 17,2 °C 80 % 1006,5 hPa 0,0 mm 0,0 km/h (0 Bft) S 178 ° 0 min 0,000 mm 0,0 UV-I 28 W/m² 13,7 °C 17,2 °C 0,0 km/h (0 Bft)
29.09.2019 18:26 17,2 °C 80 % 1006,5 hPa 0,0 mm 0,0 km/h (0 Bft) S 178 ° 0 min 0,000 mm 0,0 UV-I 26 W/m² 13,7 °C 17,2 °C 0,0 km/h (0 Bft)
29.09.2019 18:27 17,2 °C 80 % 1006,5 hPa 0,0 mm 0,0 km/h (0 Bft) S 178 ° 0 min 0,000 mm 0,0 UV-I 25 W/m² 13,7 °C 17,2 °C 0,0 km/h (0 Bft)
29.09.2019 18:28 17,2 °C 80 % 1006,5 hPa 0,0 mm 0,0 km/h (0 Bft) S 178 ° 0 min 0,000 mm 0,0 UV-I 25 W/m² 13,7 °C 17,2 °C 0,0 km/h (0 Bft)
29.09.2019 18:29 17,2 °C 80 % 1006,4 hPa 0,0 mm 0,0 km/h (0 Bft) S 178 ° 0 min 0,000 mm 0,0 UV-I 25 W/m² 13,7 °C 17,2 °C 0,0 km/h (0 Bft)
29.09.2019 18:30 17,1 °C 80 % 1006,5 hPa 0,0 mm 0,0 km/h (0 Bft) S 178 ° 0 min 0,000 mm 0,0 UV-I 25 W/m² 13,6 °C 17,1 °C 0,0 km/h (0 Bft)
29.09.2019 18:31 17,0 °C 81 % 1006,4 hPa 0,0 mm 0,0 km/h (0 Bft) S 178 ° 0 min 0,000 mm 0,0 UV-I 21 W/m² 13,7 °C 17,0 °C 0,0 km/h (0 Bft)
29.09.2019 18:32 17,0 °C 81 % 1006,4 hPa 0,0 mm 0,0 km/h (0 Bft) S 178 ° 0 min 0,000 mm 0,0 UV-I 21 W/m² 13,7 °C 17,0 °C 0,0 km/h (0 Bft)
29.09.2019 18:33 16,9 °C 81 % 1006,4 hPa 0,0 mm 0,0 km/h (0 Bft) S 178 ° 0 min 0,000 mm 0,0 UV-I 21 W/m² 13,6 °C 16,9 °C 0,0 km/h (0 Bft)
29.09.2019 18:34 16,9 °C 81 % 1006,5 hPa 0,0 mm 0,0 km/h (0 Bft) S 178 ° 0 min 0,000 mm 0,0 UV-I 19 W/m² 13,6 °C 16,9 °C 0,0 km/h (0 Bft)
29.09.2019 18:35 16,8 °C 81 % 1006,5 hPa 0,0 mm 0,0 km/h (0 Bft) S 178 ° 0 min 0,000 mm 0,0 UV-I 19 W/m² 13,5 °C 16,8 °C 0,0 km/h (0 Bft)
29.09.2019 18:36 16,7 °C 81 % 1006,5 hPa 0,0 mm 0,0 km/h (0 Bft) S 178 ° 0 min 0,000 mm 0,0 UV-I 18 W/m² 13,4 °C 16,7 °C 0,0 km/h (0 Bft)
29.09.2019 18:37 16,7 °C 80 % 1006,5 hPa 0,0 mm 0,0 km/h (0 Bft) S 178 ° 0 min 0,000 mm 0,0 UV-I 16 W/m² 13,2 °C 16,7 °C 0,0 km/h (0 Bft)
29.09.2019 18:38 16,6 °C 80 % 1006,5 hPa 0,0 mm 0,0 km/h (0 Bft) S 178 ° 0 min 0,000 mm 0,0 UV-I 16 W/m² 13,1 °C 16,6 °C 0,0 km/h (0 Bft)
29.09.2019 18:39 16,6 °C 80 % 1006,5 hPa 0,0 mm 4,4 km/h (1 Bft) S 184 ° 0 min 0,000 mm 0,0 UV-I 14 W/m² 13,1 °C 16,6 °C 8,0 km/h (2 Bft)
29.09.2019 18:40 16,6 °C 80 % 1006,5 hPa 0,0 mm 3,3 km/h (1 Bft) S 185 ° 0 min 0,000 mm 0,0 UV-I 14 W/m² 13,1 °C 16,6 °C 6,4 km/h (2 Bft)
29.09.2019 18:41 16,7 °C 80 % 1006,4 hPa 0,0 mm 1,8 km/h (1 Bft) S 185 ° 0 min 0,000 mm 0,0 UV-I 12 W/m² 13,2 °C 16,7 °C 3,2 km/h (1 Bft)
29.09.2019 18:42 16,7 °C 79 % 1006,5 hPa 0,0 mm 1,0 km/h (0 Bft) S 185 ° 0 min 0,000 mm 0,0 UV-I 12 W/m² 13,0 °C 16,7 °C 4,8 km/h (1 Bft)
29.09.2019 18:43 16,6 °C 79 % 1006,4 hPa 0,0 mm 0,3 km/h (0 Bft) S 185 ° 0 min 0,000 mm 0,0 UV-I 11 W/m² 12,9 °C 16,6 °C 1,6 km/h (1 Bft)
29.09.2019 18:44 16,6 °C 79 % 1006,5 hPa 0,0 mm 3,5 km/h (1 Bft) S 184 ° 0 min 0,000 mm 0,0 UV-I 11 W/m² 12,9 °C 16,6 °C 6,4 km/h (2 Bft)
29.09.2019 18:45 16,5 °C 78 % 1006,4 hPa 0,0 mm 4,2 km/h (1 Bft) S 186 ° 0 min 0,000 mm 0,0 UV-I 9 W/m² 12,6 °C 16,5 °C 4,8 km/h (1 Bft)
29.09.2019 18:46 16,4 °C 77 % 1006,5 hPa 0,0 mm 2,7 km/h (1 Bft) S 186 ° 0 min 0,000 mm 0,0 UV-I 9 W/m² 12,4 °C 16,4 °C 4,8 km/h (1 Bft)
29.09.2019 18:47 16,4 °C 77 % 1006,5 hPa 0,0 mm 2,9 km/h (1 Bft) S 186 ° 0 min 0,000 mm 0,0 UV-I 7 W/m² 12,4 °C 16,4 °C 4,8 km/h (1 Bft)
29.09.2019 18:48 16,4 °C 77 % 1006,5 hPa 0,0 mm 3,1 km/h (1 Bft) W-SW 255 ° 0 min 0,000 mm 0,0 UV-I 7 W/m² 12,4 °C 16,4 °C 6,4 km/h (2 Bft)
29.09.2019 18:49 16,3 °C 77 % 1006,6 hPa 0,0 mm 2,2 km/h (1 Bft) W-SW 255 ° 0 min 0,000 mm 0,0 UV-I 7 W/m² 12,3 °C 16,3 °C 3,2 km/h (1 Bft)
29.09.2019 18:50 16,2 °C 77 % 1006,5 hPa 0,0 mm 0,7 km/h (0 Bft) W-SW 255 ° 0 min 0,000 mm 0,0 UV-I 7 W/m² 12,2 °C 16,2 °C 1,6 km/h (1 Bft)
29.09.2019 18:51 16,2 °C 78 % 1006,6 hPa 0,0 mm 1,6 km/h (1 Bft) W-SW 255 ° 0 min 0,000 mm 0,0 UV-I 5 W/m² 12,4 °C 16,2 °C 3,2 km/h (1 Bft)
29.09.2019 18:52 16,2 °C 78 % 1006,5 hPa 0,0 mm 0,1 km/h (0 Bft) W-SW 255 ° 0 min 0,000 mm 0,0 UV-I 5 W/m² 12,4 °C 16,2 °C 1,6 km/h (1 Bft)
29.09.2019 18:53 16,2 °C 78 % 1006,6 hPa 0,0 mm 2,2 km/h (1 Bft) S-SO 166 ° 0 min 0,000 mm 0,0 UV-I 5 W/m² 12,4 °C 16,2 °C 8,0 km/h (2 Bft)
29.09.2019 18:54 16,2 °C 78 % 1006,5 hPa 0,0 mm 6,2 km/h (2 Bft) S 177 ° 0 min 0,000 mm 0,0 UV-I 5 W/m² 12,4 °C 16,2 °C 9,7 km/h (2 Bft)
29.09.2019 18:55 16,3 °C 78 % 1006,5 hPa 0,0 mm 2,3 km/h (1 Bft) S 177 ° 0 min 0,000 mm 0,0 UV-I 5 W/m² 12,5 °C 16,3 °C 6,4 km/h (2 Bft)
29.09.2019 18:56 16,2 °C 78 % 1006,5 hPa 0,0 mm 4,2 km/h (1 Bft) S-SW 194 ° 0 min 0,000 mm 0,0 UV-I 5 W/m² 12,4 °C 16,2 °C 8,0 km/h (2 Bft)
29.09.2019 18:57 16,2 °C 77 % 1006,5 hPa 0,0 mm 3,8 km/h (1 Bft) S-SW 194 ° 0 min 0,000 mm 0,0 UV-I 0 W/m² 12,2 °C 16,2 °C 6,4 km/h (2 Bft)
29.09.2019 18:58 16,2 °C 78 % 1006,6 hPa 0,0 mm 0,3 km/h (0 Bft) S-SW 194 ° 0 min 0,000 mm 0,0 UV-I 0 W/m² 12,4 °C 16,2 °C 1,6 km/h (1 Bft)
29.09.2019 18:59 16,1 °C 78 % 1006,6 hPa 0,0 mm 0,0 km/h (0 Bft) S-SW 194 ° 0 min 0,000 mm 0,0 UV-I 0 W/m² 12,3 °C 16,1 °C 0,0 km/h (0 Bft)
29.09.2019 19:00 15,9 °C 78 % 1006,5 hPa 0,0 mm 0,0 km/h (0 Bft) S-SW 194 ° 0 min 0,000 mm 0,0 UV-I 0 W/m² 12,1 °C 15,9 °C 0,0 km/h (0 Bft)
29.09.2019 19:01 15,8 °C 78 % 1006,5 hPa 0,0 mm 0,0 km/h (0 Bft) S-SW 194 ° 0 min 0,025 mm 0,0 UV-I 0 W/m² 12,0 °C 15,8 °C 0,0 km/h (0 Bft)
29.09.2019 19:02 15,8 °C 78 % 1006,6 hPa 0,0 mm 0,0 km/h (0 Bft) S-SW 194 ° 0 min 0,000 mm 0,0 UV-I 0 W/m² 12,0 °C 15,8 °C 0,0 km/h (0 Bft)
29.09.2019 19:03 15,7 °C 78 % 1006,5 hPa 0,0 mm 0,0 km/h (0 Bft) S-SW 194 ° 0 min 0,000 mm 0,0 UV-I 0 W/m² 11,9 °C 15,7 °C 0,0 km/h (0 Bft)
29.09.2019 19:04 15,7 °C 78 % 1006,4 hPa 0,0 mm 0,0 km/h (0 Bft) S-SW 203 ° 0 min 0,000 mm 0,0 UV-I 0 W/m² 11,9 °C 15,7 °C 0,0 km/h (0 Bft)
29.09.2019 19:05 15,7 °C 77 % 1006,5 hPa 0,0 mm 0,0 km/h (0 Bft) S-SW 192 ° 0 min 0,000 mm 0,0 UV-I 0 W/m² 11,7 °C 15,7 °C 0,0 km/h (0 Bft)
29.09.2019 19:06 15,8 °C 76 % 1006,5 hPa 0,0 mm 0,0 km/h (0 Bft) S-SW 192 ° 0 min 0,000 mm 0,0 UV-I 0 W/m² 11,6 °C 15,8 °C 0,0 km/h (0 Bft)
29.09.2019 19:07 15,9 °C 75 % 1006,5 hPa 0,0 mm 4,1 km/h (1 Bft) W-SW 254 ° 0 min 0,000 mm 0,0 UV-I 0 W/m² 11,5 °C 15,9 °C 9,7 km/h (2 Bft)
29.09.2019 19:08 16,0 °C 75 % 1006,4 hPa 0,0 mm 5,0 km/h (1 Bft) W 276 ° 0 min 0,000 mm 0,0 UV-I 0 W/m² 11,6 °C 16,0 °C 11,3 km/h (2 Bft)
29.09.2019 19:09 16,2 °C 74 % 1006,6 hPa 0,0 mm 9,9 km/h (2 Bft) W 265 ° 0 min 0,000 mm 0,0 UV-I 0 W/m² 11,6 °C 16,2 °C 16,1 km/h (3 Bft)
29.09.2019 19:10 16,3 °C 73 % 1006,6 hPa 0,0 mm 6,0 km/h (2 Bft) W 269 ° 0 min 0,000 mm 0,0 UV-I 0 W/m² 11,4 °C 16,3 °C 9,7 km/h (2 Bft)
29.09.2019 19:11 16,4 °C 72 % 1006,5 hPa 0,0 mm 2,2 km/h (1 Bft) W 259 ° 0 min 0,000 mm 0,0 UV-I 0 W/m² 11,3 °C 16,4 °C 6,4 km/h (2 Bft)
29.09.2019 19:12 16,4 °C 73 % 1006,6 hPa 0,0 mm 1,2 km/h (1 Bft) W-SW 244 ° 0 min 0,000 mm 0,0 UV-I 0 W/m² 11,5 °C 16,4 °C 4,8 km/h (1 Bft)
29.09.2019 19:13 16,4 °C 72 % 1006,6 hPa 0,0 mm 0,0 km/h (0 Bft) S-SW 196 ° 0 min 0,000 mm 0,0 UV-I 0 W/m² 11,3 °C 16,4 °C 0,0 km/h (0 Bft)
29.09.2019 19:14 16,4 °C 72 % 1006,6 hPa 0,0 mm 1,1 km/h (1 Bft) W-SW 254 ° 0 min 0,000 mm 0,0 UV-I 0 W/m² 11,3 °C 16,4 °C 4,8 km/h (1 Bft)
29.09.2019 19:15 16,6 °C 71 % 1006,5 hPa 0,0 mm 0,6 km/h (0 Bft) W-SW 254 ° 0 min 0,000 mm 0,0 UV-I 0 W/m² 11,3 °C 16,6 °C 3,2 km/h (1 Bft)
29.09.2019 19:16 16,6 °C 71 % 1006,5 hPa 0,0 mm 0,5 km/h (0 Bft) W-SW 254 ° 0 min 0,000 mm 0,0 UV-I 0 W/m² 11,3 °C 16,6 °C 1,6 km/h (1 Bft)
29.09.2019 19:17 16,6 °C 71 % 1006,5 hPa 0,0 mm 3,1 km/h (1 Bft) S 178 ° 0 min 0,000 mm 0,0 UV-I 0 W/m² 11,3 °C 16,6 °C 4,8 km/h (1 Bft)
29.09.2019 19:18 16,6 °C 71 % 1006,5 hPa 0,0 mm 3,6 km/h (1 Bft) W 279 ° 0 min 0,000 mm 0,0 UV-I 0 W/m² 11,3 °C 16,6 °C 6,4 km/h (2 Bft)
29.09.2019 19:19 16,7 °C 70 % 1006,4 hPa 0,0 mm 2,7 km/h (1 Bft) S-SW 194 ° 0 min 0,000 mm 0,0 UV-I 0 W/m² 11,2 °C 16,7 °C 4,8 km/h (1 Bft)
29.09.2019 19:20 16,7 °C 70 % 1006,4 hPa 0,0 mm 4,2 km/h (1 Bft) W-SW 245 ° 0 min 0,000 mm 0,0 UV-I 0 W/m² 11,2 °C 16,7 °C 9,7 km/h (2 Bft)
29.09.2019 19:21 16,7 °C 70 % 1006,3 hPa 0,0 mm 4,0 km/h (1 Bft) W 274 ° 0 min 0,000 mm 0,0 UV-I 0 W/m² 11,2 °C 16,7 °C 9,7 km/h (2 Bft)
29.09.2019 19:22 16,7 °C 70 % 1006,3 hPa 0,0 mm 3,0 km/h (1 Bft) W-SW 250 ° 0 min 0,000 mm 0,0 UV-I 0 W/m² 11,2 °C 16,7 °C 6,4 km/h (2 Bft)
29.09.2019 19:23 16,7 °C 69 % 1006,3 hPa 0,0 mm 1,5 km/h (1 Bft) W-SW 244 ° 0 min 0,000 mm 0,0 UV-I 0 W/m² 11,0 °C 16,7 °C 4,8 km/h (1 Bft)
29.09.2019 19:24 16,7 °C 69 % 1006,4 hPa 0,2 mm 3,2 km/h (1 Bft) SW 227 ° 0 min 0,000 mm 0,0 UV-I 0 W/m² 11,0 °C 16,7 °C 8,0 km/h (2 Bft)
29.09.2019 19:25 16,7 °C 69 % 1006,3 hPa 0,0 mm 4,0 km/h (1 Bft) W 280 ° 0 min 0,000 mm 0,0 UV-I 0 W/m² 11,0 °C 16,7 °C 9,7 km/h (2 Bft)
29.09.2019 19:26 16,8 °C 69 % 1006,4 hPa 0,0 mm 9,2 km/h (2 Bft) W 259 ° 0 min 0,000 mm 0,0 UV-I 0 W/m² 11,1 °C 16,8 °C 14,5 km/h (3 Bft)
29.09.2019 19:27 16,8 °C 69 % 1006,4 hPa 0,0 mm 3,1 km/h (1 Bft) S-SW 198 ° 0 min 0,000 mm 0,0 UV-I 0 W/m² 11,1 °C 16,8 °C 6,4 km/h (2 Bft)
29.09.2019 19:28 16,8 °C 68 % 1006,2 hPa 0,0 mm 4,4 km/h (1 Bft) S-SW 198 ° 0 min 0,000 mm 0,0 UV-I 0 W/m² 10,9 °C 16,8 °C 8,0 km/h (2 Bft)
29.09.2019 19:29 16,8 °C 68 % 1006,2 hPa 0,0 mm 3,4 km/h (1 Bft) W-SW 250 ° 0 min 0,000 mm 0,0 UV-I 0 W/m² 10,9 °C 16,8 °C 11,3 km/h (2 Bft)
29.09.2019 19:30 16,9 °C 67 % 1006,2 hPa 0,0 mm 5,0 km/h (1 Bft) W 275 ° 0 min 0,000 mm 0,0 UV-I 0 W/m² 10,7 °C 16,9 °C 6,4 km/h (2 Bft)
29.09.2019 19:31 17,0 °C 66 % 1006,3 hPa 0,0 mm 1,8 km/h (1 Bft) W-SW 258 ° 0 min 0,000 mm 0,0 UV-I 0 W/m² 10,6 °C 17,0 °C 6,4 km/h (2 Bft)
29.09.2019 19:32 17,1 °C 66 % 1006,2 hPa 0,0 mm 6,1 km/h (2 Bft) SW 220 ° 0 min 0,000 mm 0,0 UV-I 0 W/m² 10,7 °C 17,1 °C 8,0 km/h (2 Bft)
29.09.2019 19:33 16,9 °C 67 % 1006,3 hPa 0,0 mm 5,9 km/h (2 Bft) W-NW 286 ° 0 min 0,000 mm 0,0 UV-I 0 W/m² 10,7 °C 16,9 °C 11,3 km/h (2 Bft)
29.09.2019 19:34 16,9 °C 67 % 1006,1 hPa 0,0 mm 5,6 km/h (1 Bft) W-SW 252 ° 0 min 0,000 mm 0,0 UV-I 0 W/m² 10,7 °C 16,9 °C 9,7 km/h (2 Bft)
29.09.2019 19:35 16,8 °C 67 % 1006,2 hPa 0,0 mm 5,7 km/h (1 Bft) W 267 ° 0 min 0,000 mm 0,0 UV-I 0 W/m² 10,6 °C 16,8 °C 9,7 km/h (2 Bft)
29.09.2019 19:36 16,7 °C 67 % 1006,1 hPa 0,0 mm 5,9 km/h (2 Bft) W-SW 246 ° 0 min 0,000 mm 0,0 UV-I 0 W/m² 10,5 °C 16,7 °C 9,7 km/h (2 Bft)
29.09.2019 19:37 16,6 °C 67 % 1006,1 hPa 0,0 mm 8,2 km/h (2 Bft) W 259 ° 0 min 0,000 mm 0,0 UV-I 0 W/m² 10,4 °C 16,6 °C 12,9 km/h (3 Bft)
29.09.2019 19:38 16,5 °C 68 % 1006,2 hPa 0,0 mm 3,4 km/h (1 Bft) SW 223 ° 0 min 0,000 mm 0,0 UV-I 0 W/m² 10,6 °C 16,5 °C 6,4 km/h (2 Bft)
29.09.2019 19:39 16,4 °C 67 % 1006,2 hPa 0,0 mm 2,5 km/h (1 Bft) W-SW 254 ° 0 min 0,000 mm 0,0 UV-I 0 W/m² 10,3 °C 16,4 °C 9,7 km/h (2 Bft)
29.09.2019 19:40 16,5 °C 66 % 1006,1 hPa 0,0 mm 4,1 km/h (1 Bft) SW 219 ° 0 min 0,000 mm 0,0 UV-I 0 W/m² 10,1 °C 16,5 °C 6,4 km/h (2 Bft)
29.09.2019 19:41 16,6 °C 66 % 1006,2 hPa 0,0 mm 3,6 km/h (1 Bft) W-SW 240 ° 0 min 0,000 mm 0,0 UV-I 0 W/m² 10,2 °C 16,6 °C 6,4 km/h (2 Bft)
29.09.2019 19:42 16,6 °C 66 % 1006,2 hPa 0,0 mm 3,6 km/h (1 Bft) W-SW 242 ° 0 min 0,000 mm 0,0 UV-I 0 W/m² 10,2 °C 16,6 °C 4,8 km/h (1 Bft)
29.09.2019 19:43 16,6 °C 65 % 1006,1 hPa 0,0 mm 2,4 km/h (1 Bft) W-SW 242 ° 0 min 0,000 mm 0,0 UV-I 0 W/m² 10,0 °C 16,6 °C 4,8 km/h (1 Bft)
29.09.2019 19:44 16,6 °C 66 % 1006,1 hPa 0,0 mm 2,7 km/h (1 Bft) SW 232 ° 0 min 0,000 mm 0,0 UV-I 0 W/m² 10,2 °C 16,6 °C 3,2 km/h (1 Bft)
29.09.2019 19:45 16,6 °C 65 % 1006,1 hPa 0,0 mm 7,6 km/h (2 Bft) W 259 ° 0 min 0,000 mm 0,0 UV-I 0 W/m² 10,0 °C 16,6 °C 16,1 km/h (3 Bft)
29.09.2019 19:46 16,6 °C 65 % 1006,1 hPa 0,0 mm 3,6 km/h (1 Bft) W 281 ° 0 min 0,000 mm 0,0 UV-I 0 W/m² 10,0 °C 16,6 °C 6,4 km/h (2 Bft)
29.09.2019 19:47 16,7 °C 65 % 1006,1 hPa 0,0 mm 5,7 km/h (1 Bft) SW 231 ° 0 min 0,000 mm 0,0 UV-I 0 W/m² 10,1 °C 16,7 °C 12,9 km/h (3 Bft)
29.09.2019 19:48 16,7 °C 64 % 1006,1 hPa 0,0 mm 4,5 km/h (1 Bft) W 272 ° 0 min 0,000 mm 0,0 UV-I 0 W/m² 9,9 °C 16,7 °C 9,7 km/h (2 Bft)
29.09.2019 19:49 16,8 °C 64 % 1006,1 hPa 0,0 mm 5,6 km/h (1 Bft) SW 226 ° 0 min 0,000 mm 0,0 UV-I 0 W/m² 10,0 °C 16,8 °C 9,7 km/h (2 Bft)
29.09.2019 19:50 16,9 °C 62 % 1006,1 hPa 0,0 mm 4,9 km/h (1 Bft) W-SW 258 ° 0 min 0,000 mm 0,0 UV-I 0 W/m² 9,6 °C 16,9 °C 9,7 km/h (2 Bft)
29.09.2019 19:51 17,1 °C 63 % 1006,1 hPa 0,0 mm 2,2 km/h (1 Bft) W-SW 245 ° 0 min 0,000 mm 0,0 UV-I 0 W/m² 10,0 °C 17,1 °C 3,2 km/h (1 Bft)
29.09.2019 19:52 17,1 °C 63 % 1006,1 hPa 0,0 mm 3,8 km/h (1 Bft) W-SW 253 ° 0 min 0,000 mm 0,0 UV-I 0 W/m² 10,0 °C 17,1 °C 11,3 km/h (2 Bft)
29.09.2019 19:53 17,1 °C 64 % 1006,1 hPa 0,0 mm 0,6 km/h (0 Bft) W-SW 253 ° 0 min 0,000 mm 0,0 UV-I 0 W/m² 10,2 °C 17,1 °C 3,2 km/h (1 Bft)
29.09.2019 19:54 16,9 °C 63 % 1006,1 hPa 0,0 mm 2,1 km/h (1 Bft) W-SW 254 ° 0 min 0,000 mm 0,0 UV-I 0 W/m² 9,8 °C 16,9 °C 6,4 km/h (2 Bft)
29.09.2019 19:55 17,0 °C 63 % 1006,1 hPa 0,0 mm 3,3 km/h (1 Bft) W-SW 241 ° 0 min 0,000 mm 0,0 UV-I 0 W/m² 9,9 °C 17,0 °C 6,4 km/h (2 Bft)
29.09.2019 19:56 16,9 °C 63 % 1006,1 hPa 0,0 mm 2,4 km/h (1 Bft) W-SW 244 ° 0 min 0,000 mm 0,0 UV-I 0 W/m² 9,8 °C 16,9 °C 3,2 km/h (1 Bft)
29.09.2019 19:57 16,9 °C 64 % 1006,1 hPa 0,0 mm 0,3 km/h (0 Bft) W-SW 244 ° 0 min 0,000 mm 0,0 UV-I 0 W/m² 10,0 °C 16,9 °C 1,6 km/h (1 Bft)
29.09.2019 19:58 16,8 °C 64 % 1006,0 hPa 0,0 mm 0,7 km/h (0 Bft) S 191 ° 0 min 0,000 mm 0,0 UV-I 0 W/m² 10,0 °C 16,8 °C 3,2 km/h (1 Bft)
29.09.2019 19:59 16,8 °C 64 % 1006,1 hPa 0,0 mm 3,0 km/h (1 Bft) SW 232 ° 0 min 0,000 mm 0,0 UV-I 0 W/m² 10,0 °C 16,8 °C 4,8 km/h (1 Bft)
29.09.2019 20:00 16,7 °C 65 % 1006,1 hPa 0,0 mm 0,9 km/h (0 Bft) SW 231 ° 0 min 0,000 mm 0,0 UV-I 0 W/m² 10,1 °C 16,7 °C 4,8 km/h (1 Bft)
29.09.2019 20:01 16,7 °C 64 % 1006,1 hPa 0,0 mm 0,0 km/h (0 Bft) SW 225 ° 0 min 0,026 mm 0,0 UV-I 0 W/m² 9,9 °C 16,7 °C 0,0 km/h (0 Bft)
29.09.2019 20:02 16,7 °C 64 % 1006,1 hPa 0,0 mm 3,1 km/h (1 Bft) W-SW 246 ° 0 min 0,000 mm 0,0 UV-I 0 W/m² 9,9 °C 16,7 °C 8,0 km/h (2 Bft)
29.09.2019 20:03 16,7 °C 65 % 1006,1 hPa 0,0 mm 3,3 km/h (1 Bft) W-SW 246 ° 0 min 0,000 mm 0,0 UV-I 0 W/m² 10,1 °C 16,7 °C 4,8 km/h (1 Bft)
29.09.2019 20:04 16,7 °C 65 % 1006,2 hPa 0,0 mm 3,4 km/h (1 Bft) W 267 ° 0 min 0,000 mm 0,0 UV-I 0 W/m² 10,1 °C 16,7 °C 4,8 km/h (1 Bft)
29.09.2019 20:05 16,7 °C 64 % 1006,1 hPa 0,0 mm 0,5 km/h (0 Bft) W 263 ° 0 min 0,000 mm 0,0 UV-I 0 W/m² 9,9 °C 16,7 °C 1,6 km/h (1 Bft)
29.09.2019 20:06 16,7 °C 63 % 1006,1 hPa 0,0 mm 0,7 km/h (0 Bft) W 263 ° 0 min 0,000 mm 0,0 UV-I 0 W/m² 9,6 °C 16,7 °C 3,2 km/h (1 Bft)
29.09.2019 20:07 16,8 °C 63 % 1006,0 hPa 0,0 mm 2,4 km/h (1 Bft) S-SW 199 ° 0 min 0,000 mm 0,0 UV-I 0 W/m² 9,7 °C 16,8 °C 6,4 km/h (2 Bft)
29.09.2019 20:08 16,9 °C 63 % 1006,0 hPa 0,0 mm 0,6 km/h (0 Bft) S-SW 199 ° 0 min 0,000 mm 0,0 UV-I 0 W/m² 9,8 °C 16,9 °C 1,6 km/h (1 Bft)
29.09.2019 20:09 16,9 °C 63 % 1006,0 hPa 0,0 mm 0,0 km/h (0 Bft) S-SW 198 ° 0 min 0,000 mm 0,0 UV-I 0 W/m² 9,8 °C 16,9 °C 0,0 km/h (0 Bft)
29.09.2019 20:10 16,8 °C 64 % 1006,0 hPa 0,0 mm 0,0 km/h (0 Bft) S-SW 206 ° 0 min 0,000 mm 0,0 UV-I 0 W/m² 10,0 °C 16,8 °C 0,0 km/h (0 Bft)
29.09.2019 20:11 16,7 °C 65 % 1006,0 hPa 0,0 mm 0,0 km/h (0 Bft) S-SW 206 ° 0 min 0,000 mm 0,0 UV-I 0 W/m² 10,1 °C 16,7 °C 0,0 km/h (0 Bft)
29.09.2019 20:12 16,5 °C 65 % 1006,0 hPa 0,0 mm 0,0 km/h (0 Bft) S-SW 206 ° 0 min 0,000 mm 0,0 UV-I 0 W/m² 9,9 °C 16,5 °C 0,0 km/h (0 Bft)
29.09.2019 20:13 16,4 °C 65 % 1006,0 hPa 0,0 mm 0,0 km/h (0 Bft) S-SW 206 ° 0 min 0,000 mm 0,0 UV-I 0 W/m² 9,8 °C 16,4 °C 0,0 km/h (0 Bft)
29.09.2019 20:14 16,4 °C 65 % 1006,0 hPa 0,0 mm 0,0 km/h (0 Bft) S-SW 206 ° 0 min 0,000 mm 0,0 UV-I 0 W/m² 9,8 °C 16,4 °C 0,0 km/h (0 Bft)
29.09.2019 20:15 16,3 °C 64 % 1006,0 hPa 0,0 mm 0,0 km/h (0 Bft) S-SW 206 ° 0 min 0,000 mm 0,0 UV-I 0 W/m² 9,5 °C 16,3 °C 0,0 km/h (0 Bft)
29.09.2019 20:16 16,3 °C 65 % 1006,0 hPa 0,0 mm 0,0 km/h (0 Bft) S-SW 206 ° 0 min 0,000 mm 0,0 UV-I 0 W/m² 9,7 °C 16,3 °C 0,0 km/h (0 Bft)
29.09.2019 20:17 16,2 °C 65 % 1006,0 hPa 0,0 mm 0,0 km/h (0 Bft) S-SW 206 ° 0 min 0,000 mm 0,0 UV-I 0 W/m² 9,6 °C 16,2 °C 0,0 km/h (0 Bft)
29.09.2019 20:18 16,1 °C 67 % 1006,0 hPa 0,0 mm 0,5 km/h (0 Bft) S-SW 207 ° 0 min 0,000 mm 0,0 UV-I 0 W/m² 10,0 °C 16,1 °C 3,2 km/h (1 Bft)
29.09.2019 20:19 16,1 °C 66 % 1006,0 hPa 0,0 mm 0,0 km/h (0 Bft) S-SW 207 ° 0 min 0,000 mm 0,0 UV-I 0 W/m² 9,7 °C 16,1 °C 0,0 km/h (0 Bft)
29.09.2019 20:20 16,1 °C 66 % 1006,0 hPa 0,0 mm 0,0 km/h (0 Bft) S-SW 207 ° 0 min 0,000 mm 0,0 UV-I 0 W/m² 9,7 °C 16,1 °C 0,0 km/h (0 Bft)
29.09.2019 20:21 16,0 °C 67 % 1005,9 hPa 0,0 mm 0,0 km/h (0 Bft) S-SW 207 ° 0 min 0,000 mm 0,0 UV-I 0 W/m² 9,9 °C 16,0 °C 0,0 km/h (0 Bft)
29.09.2019 20:22 15,8 °C 67 % 1005,9 hPa 0,0 mm 0,0 km/h (0 Bft) S-SW 207 ° 0 min 0,000 mm 0,0 UV-I 0 W/m² 9,7 °C 15,8 °C 0,0 km/h (0 Bft)
29.09.2019 20:23 15,7 °C 67 % 1005,9 hPa 0,0 mm 0,0 km/h (0 Bft) S-SW 207 ° 0 min 0,000 mm 0,0 UV-I 0 W/m² 9,6 °C 15,7 °C 0,0 km/h (0 Bft)
29.09.2019 20:24 15,7 °C 67 % 1005,9 hPa 0,0 mm 0,0 km/h (0 Bft) S-SW 207 ° 0 min 0,000 mm 0,0 UV-I 0 W/m² 9,6 °C 15,7 °C 0,0 km/h (0 Bft)
29.09.2019 20:25 15,7 °C 65 % 1005,9 hPa 0,0 mm 0,0 km/h (0 Bft) S-SW 200 ° 0 min 0,000 mm 0,0 UV-I 0 W/m² 9,1 °C 15,7 °C 0,0 km/h (0 Bft)
29.09.2019 20:26 15,8 °C 65 % 1005,9 hPa 0,0 mm 0,0 km/h (0 Bft) S-SW 202 ° 0 min 0,000 mm 0,0 UV-I 0 W/m² 9,2 °C 15,8 °C 0,0 km/h (0 Bft)
29.09.2019 20:27 15,8 °C 65 % 1005,9 hPa 0,0 mm 1,1 km/h (1 Bft) S-SW 202 ° 0 min 0,000 mm 0,0 UV-I 0 W/m² 9,2 °C 15,8 °C 3,2 km/h (1 Bft)
29.09.2019 20:28 15,9 °C 65 % 1005,8 hPa 0,0 mm 0,5 km/h (0 Bft) S-SW 194 ° 0 min 0,000 mm 0,0 UV-I 0 W/m² 9,3 °C 15,9 °C 3,2 km/h (1 Bft)
29.09.2019 20:29 16,1 °C 64 % 1005,9 hPa 0,0 mm 0,0 km/h (0 Bft) S 183 ° 0 min 0,000 mm 0,0 UV-I 0 W/m² 9,3 °C 16,1 °C 0,0 km/h (0 Bft)
29.09.2019 20:30 16,2 °C 63 % 1005,9 hPa 0,0 mm 1,0 km/h (0 Bft) S 184 ° 0 min 0,000 mm 0,0 UV-I 0 W/m² 9,1 °C 16,2 °C 3,2 km/h (1 Bft)
29.09.2019 20:31 16,4 °C 62 % 1005,9 hPa 0,0 mm 0,5 km/h (0 Bft) S 184 ° 0 min 0,000 mm 0,0 UV-I 0 W/m² 9,1 °C 16,4 °C 1,6 km/h (1 Bft)
29.09.2019 20:32 16,4 °C 62 % 1005,9 hPa 0,0 mm 1,0 km/h (0 Bft) S 188 ° 0 min 0,000 mm 0,0 UV-I 0 W/m² 9,1 °C 16,4 °C 3,2 km/h (1 Bft)
29.09.2019 20:33 16,5 °C 62 % 1005,9 hPa 0,0 mm 0,3 km/h (0 Bft) S 188 ° 0 min 0,000 mm 0,0 UV-I 0 W/m² 9,2 °C 16,5 °C 1,6 km/h (1 Bft)
29.09.2019 20:34 16,6 °C 61 % 1005,9 hPa 0,0 mm 2,8 km/h (1 Bft) S-SW 207 ° 0 min 0,000 mm 0,0 UV-I 0 W/m² 9,0 °C 16,6 °C 4,8 km/h (1 Bft)
29.09.2019 20:35 16,7 °C 61 % 1005,9 hPa 0,0 mm 0,9 km/h (0 Bft) S 182 ° 0 min 0,000 mm 0,0 UV-I 0 W/m² 9,1 °C 16,7 °C 3,2 km/h (1 Bft)
29.09.2019 20:36 16,7 °C 61 % 1005,9 hPa 0,0 mm 0,7 km/h (0 Bft) S 182 ° 0 min 0,000 mm 0,0 UV-I 0 W/m² 9,1 °C 16,7 °C 3,2 km/h (1 Bft)
29.09.2019 20:37 16,7 °C 61 % 1005,8 hPa 0,0 mm 2,7 km/h (1 Bft) W-NW 302 ° 0 min 0,000 mm 0,0 UV-I 0 W/m² 9,1 °C 16,7 °C 4,8 km/h (1 Bft)
29.09.2019 20:38 16,6 °C 62 % 1005,9 hPa 0,0 mm 5,4 km/h (1 Bft) SW 216 ° 0 min 0,000 mm 0,0 UV-I 0 W/m² 9,3 °C 16,6 °C 9,7 km/h (2 Bft)
29.09.2019 20:39 16,4 °C 62 % 1005,8 hPa 0,0 mm 4,1 km/h (1 Bft) W-SW 243 ° 0 min 0,000 mm 0,0 UV-I 0 W/m² 9,1 °C 16,4 °C 6,4 km/h (2 Bft)
29.09.2019 20:40 16,3 °C 63 % 1005,9 hPa 0,0 mm 1,5 km/h (1 Bft) W-SW 246 ° 0 min 0,000 mm 0,0 UV-I 0 W/m² 9,2 °C 16,3 °C 3,2 km/h (1 Bft)
29.09.2019 20:41 16,2 °C 64 % 1005,9 hPa 0,0 mm 0,5 km/h (0 Bft) W-SW 246 ° 0 min 0,000 mm 0,0 UV-I 0 W/m² 9,4 °C 16,2 °C 1,6 km/h (1 Bft)
29.09.2019 20:42 16,0 °C 64 % 1005,9 hPa 0,0 mm 1,4 km/h (1 Bft) W-SW 246 ° 0 min 0,000 mm 0,0 UV-I 0 W/m² 9,2 °C 16,0 °C 3,2 km/h (1 Bft)
29.09.2019 20:43 15,8 °C 65 % 1005,9 hPa 0,0 mm 0,3 km/h (0 Bft) W-SW 246 ° 0 min 0,000 mm 0,0 UV-I 0 W/m² 9,2 °C 15,8 °C 1,6 km/h (1 Bft)
29.09.2019 20:44 15,7 °C 65 % 1005,9 hPa 0,0 mm 0,0 km/h (0 Bft) W-SW 246 ° 0 min 0,000 mm 0,0 UV-I 0 W/m² 9,1 °C 15,7 °C 0,0 km/h (0 Bft)
29.09.2019 20:45 15,7 °C 66 % 1005,9 hPa 0,0 mm 0,0 km/h (0 Bft) W-SW 246 ° 0 min 0,000 mm 0,0 UV-I 0 W/m² 9,4 °C 15,7 °C 0,0 km/h (0 Bft)
29.09.2019 20:46 15,7 °C 64 % 1005,9 hPa 0,0 mm 0,8 km/h (0 Bft) W-SW 239 ° 0 min 0,000 mm 0,0 UV-I 0 W/m² 8,9 °C 15,7 °C 3,2 km/h (1 Bft)
29.09.2019 20:47 15,8 °C 64 % 1005,8 hPa 0,0 mm 2,2 km/h (1 Bft) W-SW 239 ° 0 min 0,000 mm 0,0 UV-I 0 W/m² 9,0 °C 15,8 °C 3,2 km/h (1 Bft)
29.09.2019 20:48 15,9 °C 63 % 1005,8 hPa 0,0 mm 1,0 km/h (0 Bft) W-SW 239 ° 0 min 0,000 mm 0,0 UV-I 0 W/m² 8,9 °C 15,9 °C 3,2 km/h (1 Bft)
29.09.2019 20:49 16,1 °C 60 % 1005,8 hPa 0,0 mm 0,1 km/h (0 Bft) S-SW 201 ° 0 min 0,000 mm 0,0 UV-I 0 W/m² 8,3 °C 16,1 °C 1,6 km/h (1 Bft)
29.09.2019 20:50 16,3 °C 60 % 1005,8 hPa 0,0 mm 2,2 km/h (1 Bft) S-SW 200 ° 0 min 0,000 mm 0,0 UV-I 0 W/m² 8,5 °C 16,3 °C 4,8 km/h (1 Bft)
29.09.2019 20:51 16,6 °C 58 % 1005,8 hPa 0,0 mm 1,7 km/h (1 Bft) S-SW 201 ° 0 min 0,000 mm 0,0 UV-I 0 W/m² 8,3 °C 16,6 °C 3,2 km/h (1 Bft)
29.09.2019 20:52 16,7 °C 58 % 1005,8 hPa 0,0 mm 1,0 km/h (0 Bft) W-SW 247 ° 0 min 0,000 mm 0,0 UV-I 0 W/m² 8,4 °C 16,7 °C 4,8 km/h (1 Bft)
29.09.2019 20:53 16,8 °C 60 % 1005,8 hPa 0,0 mm 10,3 km/h (2 Bft) W 259 ° 0 min 0,000 mm 0,0 UV-I 0 W/m² 9,0 °C 16,8 °C 19,3 km/h (3 Bft)
29.09.2019 20:54 16,8 °C 59 % 1005,7 hPa 0,0 mm 4,2 km/h (1 Bft) W-SW 255 ° 0 min 0,000 mm 0,0 UV-I 0 W/m² 8,7 °C 16,8 °C 8,0 km/h (2 Bft)
29.09.2019 20:55 16,9 °C 58 % 1005,7 hPa 0,0 mm 2,3 km/h (1 Bft) SW 232 ° 0 min 0,000 mm 0,0 UV-I 0 W/m² 8,6 °C 16,9 °C 3,2 km/h (1 Bft)
29.09.2019 20:56 16,9 °C 58 % 1005,8 hPa 0,0 mm 1,9 km/h (1 Bft) SW 232 ° 0 min 0,000 mm 0,0 UV-I 0 W/m² 8,6 °C 16,9 °C 4,8 km/h (1 Bft)
29.09.2019 20:57 17,0 °C 58 % 1005,8 hPa 0,0 mm 1,9 km/h (1 Bft) SW 232 ° 0 min 0,000 mm 0,0 UV-I 0 W/m² 8,7 °C 17,0 °C 3,2 km/h (1 Bft)
29.09.2019 20:58 16,9 °C 58 % 1005,8 hPa 0,0 mm 0,0 km/h (0 Bft) SW 232 ° 0 min 0,000 mm 0,0 UV-I 0 W/m² 8,6 °C 16,9 °C 0,0 km/h (0 Bft)
29.09.2019 20:59 16,8 °C 59 % 1005,9 hPa 0,0 mm 0,0 km/h (0 Bft) SW 232 ° 0 min 0,000 mm 0,0 UV-I 0 W/m² 8,7 °C 16,8 °C 0,0 km/h (0 Bft)
29.09.2019 21:00 16,6 °C 60 % 1005,8 hPa 0,0 mm 0,0 km/h (0 Bft) SW 232 ° 0 min 0,000 mm 0,0 UV-I 0 W/m² 8,8 °C 16,6 °C 0,0 km/h (0 Bft)
29.09.2019 21:01 16,4 °C 60 % 1005,9 hPa 0,0 mm 0,0 km/h (0 Bft) SW 232 ° 0 min 0,025 mm 0,0 UV-I 0 W/m² 8,6 °C 16,4 °C 0,0 km/h (0 Bft)
29.09.2019 21:02 16,3 °C 61 % 1005,9 hPa 0,0 mm 0,0 km/h (0 Bft) SW 232 ° 0 min 0,000 mm 0,0 UV-I 0 W/m² 8,8 °C 16,3 °C 0,0 km/h (0 Bft)
29.09.2019 21:03 16,1 °C 61 % 1005,9 hPa 0,0 mm 0,0 km/h (0 Bft) SW 232 ° 0 min 0,000 mm 0,0 UV-I 0 W/m² 8,6 °C 16,1 °C 0,0 km/h (0 Bft)
29.09.2019 21:04 15,9 °C 63 % 1005,9 hPa 0,0 mm 0,7 km/h (0 Bft) SW 236 ° 0 min 0,000 mm 0,0 UV-I 0 W/m² 8,9 °C 15,9 °C 1,6 km/h (1 Bft)
29.09.2019 21:05 15,7 °C 65 % 1005,9 hPa 0,0 mm 0,1 km/h (0 Bft) SW 236 ° 0 min 0,000 mm 0,0 UV-I 0 W/m² 9,1 °C 15,7 °C 1,6 km/h (1 Bft)
29.09.2019 21:06 15,5 °C 64 % 1005,9 hPa 0,0 mm 0,0 km/h (0 Bft) SW 236 ° 0 min 0,000 mm 0,0 UV-I 0 W/m² 8,7 °C 15,5 °C 0,0 km/h (0 Bft)
29.09.2019 21:07 15,4 °C 64 % 1005,8 hPa 0,0 mm 0,0 km/h (0 Bft) SW 236 ° 0 min 0,000 mm 0,0 UV-I 0 W/m² 8,6 °C 15,4 °C 0,0 km/h (0 Bft)
29.09.2019 21:08 15,4 °C 64 % 1006,0 hPa 0,0 mm 1,4 km/h (1 Bft) SW 236 ° 0 min 0,000 mm 0,0 UV-I 0 W/m² 8,6 °C 15,4 °C 3,2 km/h (1 Bft)
29.09.2019 21:09 15,3 °C 64 % 1006,0 hPa 0,0 mm 2,8 km/h (1 Bft) SW 236 ° 0 min 0,000 mm 0,0 UV-I 0 W/m² 8,5 °C 15,3 °C 4,8 km/h (1 Bft)
29.09.2019 21:10 15,4 °C 63 % 1006,0 hPa 0,0 mm 2,7 km/h (1 Bft) W-SW 254 ° 0 min 0,000 mm 0,0 UV-I 0 W/m² 8,4 °C 15,4 °C 4,8 km/h (1 Bft)
29.09.2019 21:11 15,4 °C 63 % 1006,0 hPa 0,0 mm 0,3 km/h (0 Bft) W-SW 254 ° 0 min 0,000 mm 0,0 UV-I 0 W/m² 8,4 °C 15,4 °C 1,6 km/h (1 Bft)
29.09.2019 21:12 15,5 °C 63 % 1006,0 hPa 0,0 mm 0,2 km/h (0 Bft) W-SW 254 ° 0 min 0,000 mm 0,0 UV-I 0 W/m² 8,5 °C 15,5 °C 1,6 km/h (1 Bft)
29.09.2019 21:13 15,6 °C 63 % 1006,0 hPa 0,0 mm 0,0 km/h (0 Bft) W-SW 254 ° 0 min 0,000 mm 0,0 UV-I 0 W/m² 8,6 °C 15,6 °C 0,0 km/h (0 Bft)
29.09.2019 21:14 15,6 °C 62 % 1006,0 hPa 0,0 mm 3,0 km/h (1 Bft) W 263 ° 0 min 0,000 mm 0,0 UV-I 0 W/m² 8,3 °C 15,6 °C 14,5 km/h (3 Bft)
29.09.2019 21:15 15,8 °C 60 % 1005,9 hPa 0,2 mm 5,2 km/h (1 Bft) S 188 ° 0 min 0,000 mm 0,0 UV-I 0 W/m² 8,1 °C 15,8 °C 9,7 km/h (2 Bft)
29.09.2019 21:16 15,9 °C 61 % 1006,0 hPa 0,0 mm 3,0 km/h (1 Bft) W 262 ° 0 min 0,000 mm 0,0 UV-I 0 W/m² 8,4 °C 15,9 °C 4,8 km/h (1 Bft)
29.09.2019 21:17 16,2 °C 59 % 1006,0 hPa 0,0 mm 0,4 km/h (0 Bft) W 262 ° 0 min 0,000 mm 0,0 UV-I 0 W/m² 8,2 °C 16,2 °C 1,6 km/h (1 Bft)
29.09.2019 21:18 16,3 °C 59 % 1006,0 hPa 0,0 mm 1,2 km/h (1 Bft) W 262 ° 0 min 0,000 mm 0,0 UV-I 0 W/m² 8,3 °C 16,3 °C 3,2 km/h (1 Bft)
29.09.2019 21:19 16,5 °C 58 % 1006,0 hPa 0,0 mm 0,8 km/h (0 Bft) W 262 ° 0 min 0,000 mm 0,0 UV-I 0 W/m² 8,2 °C 16,5 °C 3,2 km/h (1 Bft)
29.09.2019 21:20 16,6 °C 59 % 1006,0 hPa 0,0 mm 3,9 km/h (1 Bft) W-NW 284 ° 0 min 0,000 mm 0,0 UV-I 0 W/m² 8,6 °C 16,6 °C 11,3 km/h (2 Bft)
29.09.2019 21:21 16,6 °C 58 % 1006,0 hPa 0,0 mm 1,0 km/h (0 Bft) W-NW 284 ° 0 min 0,000 mm 0,0 UV-I 0 W/m² 8,3 °C 16,6 °C 3,2 km/h (1 Bft)
29.09.2019 21:22 16,7 °C 57 % 1006,0 hPa 0,0 mm 0,0 km/h (0 Bft) W-NW 284 ° 0 min 0,000 mm 0,0 UV-I 0 W/m² 8,1 °C 16,7 °C 0,0 km/h (0 Bft)
29.09.2019 21:23 16,7 °C 59 % 1006,0 hPa 0,0 mm 3,7 km/h (1 Bft) W-SW 252 ° 0 min 0,000 mm 0,0 UV-I 0 W/m² 8,6 °C 16,7 °C 8,0 km/h (2 Bft)
29.09.2019 21:24 16,7 °C 58 % 1006,0 hPa 0,0 mm 2,7 km/h (1 Bft) W 263 ° 0 min 0,000 mm 0,0 UV-I 0 W/m² 8,4 °C 16,7 °C 4,8 km/h (1 Bft)
29.09.2019 21:25 16,7 °C 57 % 1006,0 hPa 0,0 mm 4,5 km/h (1 Bft) W 259 ° 0 min 0,000 mm 0,0 UV-I 0 W/m² 8,1 °C 16,7 °C 6,4 km/h (2 Bft)
29.09.2019 21:26 16,7 °C 57 % 1005,9 hPa 0,0 mm 0,6 km/h (0 Bft) W 259 ° 0 min 0,000 mm 0,0 UV-I 0 W/m² 8,1 °C 16,7 °C 1,6 km/h (1 Bft)
29.09.2019 21:27 16,7 °C 58 % 1006,0 hPa 0,0 mm 0,3 km/h (0 Bft) S-SW 202 ° 0 min 0,000 mm 0,0 UV-I 0 W/m² 8,4 °C 16,7 °C 4,8 km/h (1 Bft)
29.09.2019 21:28 16,8 °C 56 % 1005,9 hPa 0,0 mm 8,2 km/h (2 Bft) NW 307 ° 0 min 0,000 mm 0,0 UV-I 0 W/m² 8,0 °C 16,8 °C 20,9 km/h (4 Bft)
29.09.2019 21:29 16,9 °C 55 % 1005,9 hPa 0,0 mm 7,6 km/h (2 Bft) W 273 ° 0 min 0,000 mm 0,0 UV-I 0 W/m² 7,8 °C 16,9 °C 12,9 km/h (3 Bft)
29.09.2019 21:30 17,1 °C 54 % 1005,9 hPa 0,0 mm 8,9 km/h (2 Bft) S-SW 207 ° 0 min 0,000 mm 0,0 UV-I 0 W/m² 7,7 °C 17,1 °C 14,5 km/h (3 Bft)
29.09.2019 21:31 17,3 °C 54 % 1005,9 hPa 0,0 mm 4,9 km/h (1 Bft) W 261 ° 0 min 0,000 mm 0,0 UV-I 0 W/m² 7,9 °C 17,3 °C 6,4 km/h (2 Bft)
29.09.2019 21:32 17,4 °C 53 % 1005,9 hPa 0,0 mm 5,2 km/h (1 Bft) W 265 ° 0 min 0,000 mm 0,0 UV-I 0 W/m² 7,7 °C 17,4 °C 8,0 km/h (2 Bft)
29.09.2019 21:33 17,6 °C 52 % 1006,0 hPa 0,0 mm 4,6 km/h (1 Bft) W-NW 285 ° 0 min 0,000 mm 0,0 UV-I 0 W/m² 7,6 °C 17,6 °C 9,7 km/h (2 Bft)
29.09.2019 21:34 17,6 °C 53 % 1005,9 hPa 0,0 mm 4,7 km/h (1 Bft) W-NW 285 ° 0 min 0,000 mm 0,0 UV-I 0 W/m² 7,9 °C 17,6 °C 6,4 km/h (2 Bft)
29.09.2019 21:35 17,5 °C 55 % 1006,0 hPa 0,0 mm 7,8 km/h (2 Bft) W-SW 258 ° 0 min 0,000 mm 0,0 UV-I 0 W/m² 8,4 °C 17,5 °C 12,9 km/h (3 Bft)
29.09.2019 21:36 17,4 °C 55 % 1006,0 hPa 0,0 mm 5,5 km/h (1 Bft) W-NW 288 ° 0 min 0,000 mm 0,0 UV-I 0 W/m² 8,3 °C 17,4 °C 9,7 km/h (2 Bft)
29.09.2019 21:37 17,3 °C 54 % 1006,0 hPa 0,0 mm 5,6 km/h (1 Bft) W-SW 251 ° 0 min 0,000 mm 0,0 UV-I 0 W/m² 7,9 °C 17,3 °C 9,7 km/h (2 Bft)
29.09.2019 21:38 17,2 °C 56 % 1006,0 hPa 0,0 mm 7,4 km/h (2 Bft) W 268 ° 0 min 0,000 mm 0,0 UV-I 0 W/m² 8,3 °C 17,2 °C 11,3 km/h (2 Bft)
29.09.2019 21:39 17,2 °C 55 % 1006,1 hPa 0,0 mm 5,1 km/h (1 Bft) W-SW 246 ° 0 min 0,000 mm 0,0 UV-I 0 W/m² 8,1 °C 17,2 °C 8,0 km/h (2 Bft)
29.09.2019 21:40 17,1 °C 55 % 1006,1 hPa 0,0 mm 8,8 km/h (2 Bft) W-SW 255 ° 0 min 0,000 mm 0,0 UV-I 0 W/m² 8,0 °C 17,1 °C 12,9 km/h (3 Bft)
29.09.2019 21:41 17,1 °C 55 % 1006,1 hPa 0,0 mm 3,8 km/h (1 Bft) W 281 ° 0 min 0,000 mm 0,0 UV-I 0 W/m² 8,0 °C 17,1 °C 9,7 km/h (2 Bft)
29.09.2019 21:42 17,2 °C 54 % 1006,2 hPa 0,0 mm 6,8 km/h (2 Bft) W-SW 250 ° 0 min 0,000 mm 0,0 UV-I 0 W/m² 7,8 °C 17,2 °C 14,5 km/h (3 Bft)
29.09.2019 21:43 17,2 °C 57 % 1006,1 hPa 0,0 mm 7,6 km/h (2 Bft) W-SW 257 ° 0 min 0,000 mm 0,0 UV-I 0 W/m² 8,6 °C 17,2 °C 11,3 km/h (2 Bft)
29.09.2019 21:44 17,2 °C 55 % 1006,2 hPa 0,0 mm 4,9 km/h (1 Bft) W 273 ° 0 min 0,000 mm 0,0 UV-I 0 W/m² 8,1 °C 17,2 °C 9,7 km/h (2 Bft)
29.09.2019 21:45 17,2 °C 55 % 1006,2 hPa 0,0 mm 9,4 km/h (2 Bft) W-NW 290 ° 0 min 0,000 mm 0,0 UV-I 0 W/m² 8,1 °C 17,2 °C 17,7 km/h (3 Bft)
29.09.2019 21:46 17,3 °C 54 % 1006,2 hPa 0,0 mm 11,0 km/h (2 Bft) W 266 ° 0 min 0,000 mm 0,0 UV-I 0 W/m² 7,9 °C 17,3 °C 16,1 km/h (3 Bft)
29.09.2019 21:47 17,5 °C 53 % 1006,2 hPa 0,0 mm 7,1 km/h (2 Bft) W-NW 288 ° 0 min 0,000 mm 0,0 UV-I 0 W/m² 7,8 °C 17,5 °C 12,9 km/h (3 Bft)
29.09.2019 21:48 17,6 °C 53 % 1006,2 hPa 0,0 mm 10,5 km/h (2 Bft) W-SW 252 ° 0 min 0,000 mm 0,0 UV-I 0 W/m² 7,9 °C 17,6 °C 16,1 km/h (3 Bft)
29.09.2019 21:49 17,7 °C 53 % 1006,1 hPa 0,0 mm 10,8 km/h (2 Bft) W-SW 246 ° 0 min 0,000 mm 0,0 UV-I 0 W/m² 8,0 °C 17,7 °C 16,1 km/h (3 Bft)
29.09.2019 21:50 17,7 °C 52 % 1006,1 hPa 0,0 mm 9,6 km/h (2 Bft) W 264 ° 0 min 0,000 mm 0,0 UV-I 0 W/m² 7,7 °C 17,7 °C 20,9 km/h (4 Bft)
29.09.2019 21:51 17,8 °C 52 % 1006,1 hPa 0,0 mm 9,7 km/h (2 Bft) W-SW 258 ° 0 min 0,000 mm 0,0 UV-I 0 W/m² 7,8 °C 17,8 °C 20,9 km/h (4 Bft)
29.09.2019 21:52 17,9 °C 53 % 1006,1 hPa 0,0 mm 12,2 km/h (2 Bft) W 271 ° 0 min 0,000 mm 0,0 UV-I 0 W/m² 8,2 °C 17,9 °C 17,7 km/h (3 Bft)
29.09.2019 21:53 17,9 °C 54 % 1006,2 hPa 0,0 mm 6,6 km/h (2 Bft) W-NW 288 ° 0 min 0,000 mm 0,0 UV-I 0 W/m² 8,5 °C 17,9 °C 17,7 km/h (3 Bft)
29.09.2019 21:54 17,8 °C 53 % 1006,2 hPa 0,0 mm 14,5 km/h (3 Bft) W-SW 246 ° 0 min 0,000 mm 0,0 UV-I 0 W/m² 8,1 °C 17,8 °C 17,7 km/h (3 Bft)
29.09.2019 21:55 17,8 °C 53 % 1006,2 hPa 0,0 mm 9,0 km/h (2 Bft) W-SW 248 ° 0 min 0,000 mm 0,0 UV-I 0 W/m² 8,1 °C 17,8 °C 17,7 km/h (3 Bft)
29.09.2019 21:56 17,8 °C 53 % 1006,2 hPa 0,0 mm 7,8 km/h (2 Bft) W-NW 288 ° 0 min 0,000 mm 0,0 UV-I 0 W/m² 8,1 °C 17,8 °C 14,5 km/h (3 Bft)
29.09.2019 21:57 17,7 °C 54 % 1006,3 hPa 0,0 mm 7,9 km/h (2 Bft) W 281 ° 0 min 0,000 mm 0,0 UV-I 0 W/m² 8,3 °C 17,7 °C 16,1 km/h (3 Bft)
29.09.2019 21:58 17,7 °C 53 % 1006,2 hPa 0,0 mm 12,6 km/h (3 Bft) W-SW 242 ° 0 min 0,000 mm 0,0 UV-I 0 W/m² 8,0 °C 17,7 °C 17,7 km/h (3 Bft)
29.09.2019 21:59 17,7 °C 53 % 1006,2 hPa 0,0 mm 11,9 km/h (2 Bft) W 263 ° 0 min 0,000 mm 0,0 UV-I 0 W/m² 8,0 °C 17,7 °C 19,3 km/h (3 Bft)
29.09.2019 22:00 17,7 °C 54 % 1006,2 hPa 0,0 mm 12,4 km/h (3 Bft) SW 232 ° 0 min 0,000 mm 0,0 UV-I 0 W/m² 8,3 °C 17,7 °C 19,3 km/h (3 Bft)
29.09.2019 22:01 17,7 °C 53 % 1006,2 hPa 0,0 mm 10,1 km/h (2 Bft) W-SW 242 ° 0 min 0,051 mm 0,0 UV-I 0 W/m² 8,0 °C 17,7 °C 16,1 km/h (3 Bft)
29.09.2019 22:02 17,7 °C 53 % 1006,1 hPa 0,0 mm 13,9 km/h (3 Bft) W 274 ° 0 min 0,000 mm 0,0 UV-I 0 W/m² 8,0 °C 17,7 °C 20,9 km/h (4 Bft)
29.09.2019 22:03 17,7 °C 53 % 1006,2 hPa 0,0 mm 8,1 km/h (2 Bft) W-NW 293 ° 0 min 0,000 mm 0,0 UV-I 0 W/m² 8,0 °C 17,7 °C 17,7 km/h (3 Bft)
29.09.2019 22:04 17,7 °C 53 % 1006,2 hPa 0,0 mm 12,9 km/h (3 Bft) W-SW 239 ° 0 min 0,000 mm 0,0 UV-I 0 W/m² 8,0 °C 17,7 °C 19,3 km/h (3 Bft)
29.09.2019 22:05 17,7 °C 53 % 1006,2 hPa 0,0 mm 13,3 km/h (3 Bft) W 272 ° 0 min 0,000 mm 0,0 UV-I 0 W/m² 8,0 °C 17,7 °C 19,3 km/h (3 Bft)
29.09.2019 22:06 17,7 °C 53 % 1006,2 hPa 0,0 mm 10,1 km/h (2 Bft) W-SW 240 ° 0 min 0,000 mm 0,0 UV-I 0 W/m² 8,0 °C 17,7 °C 14,5 km/h (3 Bft)
29.09.2019 22:07 17,8 °C 53 % 1006,3 hPa 0,0 mm 16,8 km/h (3 Bft) W-SW 256 ° 0 min 0,000 mm 0,0 UV-I 0 W/m² 8,1 °C 17,8 °C 24,1 km/h (4 Bft)
29.09.2019 22:08 17,8 °C 53 % 1006,3 hPa 0,0 mm 6,7 km/h (2 Bft) SW 231 ° 0 min 0,000 mm 0,0 UV-I 0 W/m² 8,1 °C 17,8 °C 9,7 km/h (2 Bft)
29.09.2019 22:09 17,7 °C 54 % 1006,3 hPa 0,0 mm 8,0 km/h (2 Bft) W-SW 251 ° 0 min 0,000 mm 0,0 UV-I 0 W/m² 8,3 °C 17,7 °C 16,1 km/h (3 Bft)
29.09.2019 22:10 17,7 °C 54 % 1006,3 hPa 0,0 mm 15,6 km/h (3 Bft) W-NW 282 ° 0 min 0,000 mm 0,0 UV-I 0 W/m² 8,3 °C 17,7 °C 29,0 km/h (5 Bft)
29.09.2019 22:11 17,7 °C 53 % 1006,3 hPa 0,0 mm 13,8 km/h (3 Bft) W 281 ° 0 min 0,000 mm 0,0 UV-I 0 W/m² 8,0 °C 17,7 °C 20,9 km/h (4 Bft)
29.09.2019 22:12 17,7 °C 54 % 1006,3 hPa 0,0 mm 10,1 km/h (2 Bft) W 265 ° 0 min 0,000 mm 0,0 UV-I 0 W/m² 8,3 °C 17,7 °C 17,7 km/h (3 Bft)
29.09.2019 22:13 17,8 °C 53 % 1006,3 hPa 0,0 mm 7,2 km/h (2 Bft) W 259 ° 0 min 0,000 mm 0,0 UV-I 0 W/m² 8,1 °C 17,8 °C 14,5 km/h (3 Bft)
29.09.2019 22:14 17,8 °C 53 % 1006,3 hPa 0,0 mm 8,9 km/h (2 Bft) W-SW 254 ° 0 min 0,000 mm 0,0 UV-I 0 W/m² 8,1 °C 17,8 °C 12,9 km/h (3 Bft)
29.09.2019 22:15 17,7 °C 53 % 1006,3 hPa 0,0 mm 5,3 km/h (1 Bft) W 268 ° 0 min 0,000 mm 0,0 UV-I 0 W/m² 8,0 °C 17,7 °C 9,7 km/h (2 Bft)
29.09.2019 22:16 17,8 °C 54 % 1006,3 hPa 0,0 mm 11,3 km/h (2 Bft) W 267 ° 0 min 0,000 mm 0,0 UV-I 0 W/m² 8,4 °C 17,8 °C 20,9 km/h (4 Bft)
29.09.2019 22:17 17,8 °C 53 % 1006,3 hPa 0,0 mm 7,9 km/h (2 Bft) S-SW 209 ° 0 min 0,000 mm 0,0 UV-I 0 W/m² 8,1 °C 17,8 °C 20,9 km/h (4 Bft)
29.09.2019 22:18 17,8 °C 53 % 1006,2 hPa 0,0 mm 8,2 km/h (2 Bft) SW 232 ° 0 min 0,000 mm 0,0 UV-I 0 W/m² 8,1 °C 17,8 °C 12,9 km/h (3 Bft)
29.09.2019 22:19 17,8 °C 54 % 1006,2 hPa 0,0 mm 11,9 km/h (2 Bft) W 274 ° 0 min 0,000 mm 0,0 UV-I 0 W/m² 8,4 °C 17,8 °C 19,3 km/h (3 Bft)
29.09.2019 22:20 17,8 °C 54 % 1006,2 hPa 0,0 mm 8,8 km/h (2 Bft) SW 221 ° 0 min 0,000 mm 0,0 UV-I 0 W/m² 8,4 °C 17,8 °C 14,5 km/h (3 Bft)
29.09.2019 22:21 17,8 °C 54 % 1006,1 hPa 0,0 mm 10,5 km/h (2 Bft) NW 306 ° 0 min 0,000 mm 0,0 UV-I 0 W/m² 8,4 °C 17,8 °C 22,5 km/h (4 Bft)
29.09.2019 22:22 17,7 °C 54 % 1006,1 hPa 0,0 mm 11,3 km/h (2 Bft) W-SW 242 ° 0 min 0,000 mm 0,0 UV-I 0 W/m² 8,3 °C 17,7 °C 16,1 km/h (3 Bft)
29.09.2019 22:23 17,8 °C 53 % 1006,1 hPa 0,0 mm 7,5 km/h (2 Bft) W 261 ° 0 min 0,000 mm 0,0 UV-I 0 W/m² 8,1 °C 17,8 °C 16,1 km/h (3 Bft)
29.09.2019 22:24 17,8 °C 53 % 1006,0 hPa 0,0 mm 6,6 km/h (2 Bft) SW 236 ° 0 min 0,000 mm 0,0 UV-I 0 W/m² 8,1 °C 17,8 °C 12,9 km/h (3 Bft)
29.09.2019 22:25 17,8 °C 54 % 1006,0 hPa 0,0 mm 8,6 km/h (2 Bft) W-NW 289 ° 0 min 0,000 mm 0,0 UV-I 0 W/m² 8,4 °C 17,8 °C 17,7 km/h (3 Bft)
29.09.2019 22:26 17,7 °C 55 % 1006,0 hPa 0,0 mm 11,0 km/h (2 Bft) W 263 ° 0 min 0,000 mm 0,0 UV-I 0 W/m² 8,5 °C 17,7 °C 16,1 km/h (3 Bft)
29.09.2019 22:27 17,7 °C 54 % 1006,0 hPa 0,0 mm 7,0 km/h (2 Bft) W 279 ° 0 min 0,000 mm 0,0 UV-I 0 W/m² 8,3 °C 17,7 °C 11,3 km/h (2 Bft)
29.09.2019 22:28 17,7 °C 54 % 1006,0 hPa 0,0 mm 7,5 km/h (2 Bft) W 259 ° 0 min 0,000 mm 0,0 UV-I 0 W/m² 8,3 °C 17,7 °C 11,3 km/h (2 Bft)
29.09.2019 22:29 17,7 °C 56 % 1005,9 hPa 0,0 mm 8,6 km/h (2 Bft) W-SW 243 ° 0 min 0,000 mm 0,0 UV-I 0 W/m² 8,8 °C 17,7 °C 14,5 km/h (3 Bft)
29.09.2019 22:30 17,6 °C 55 % 1005,9 hPa 0,0 mm 7,5 km/h (2 Bft) W-SW 240 ° 0 min 0,000 mm 0,0 UV-I 0 W/m² 8,5 °C 17,6 °C 14,5 km/h (3 Bft)
29.09.2019 22:31 17,6 °C 55 % 1006,0 hPa 0,0 mm 7,3 km/h (2 Bft) S-SW 202 ° 0 min 0,000 mm 0,0 UV-I 0 W/m² 8,5 °C 17,6 °C 16,1 km/h (3 Bft)
29.09.2019 22:32 17,6 °C 54 % 1005,9 hPa 0,0 mm 5,9 km/h (2 Bft) W 279 ° 0 min 0,000 mm 0,0 UV-I 0 W/m² 8,2 °C 17,6 °C 9,7 km/h (2 Bft)
29.09.2019 22:33 17,6 °C 55 % 1005,9 hPa 0,0 mm 9,0 km/h (2 Bft) W-SW 256 ° 0 min 0,000 mm 0,0 UV-I 0 W/m² 8,5 °C 17,6 °C 17,7 km/h (3 Bft)
29.09.2019 22:34 17,6 °C 55 % 1005,9 hPa 0,0 mm 13,7 km/h (3 Bft) W-SW 240 ° 0 min 0,000 mm 0,0 UV-I 0 W/m² 8,5 °C 17,6 °C 22,5 km/h (4 Bft)
29.09.2019 22:35 17,7 °C 54 % 1005,9 hPa 0,0 mm 14,0 km/h (3 Bft) W 280 ° 0 min 0,000 mm 0,0 UV-I 0 W/m² 8,3 °C 17,7 °C 17,7 km/h (3 Bft)
29.09.2019 22:36 17,7 °C 55 % 1005,9 hPa 0,0 mm 9,3 km/h (2 Bft) W 263 ° 0 min 0,000 mm 0,0 UV-I 0 W/m² 8,5 °C 17,7 °C 16,1 km/h (3 Bft)
29.09.2019 22:37 17,6 °C 55 % 1005,9 hPa 0,0 mm 10,9 km/h (2 Bft) W 269 ° 0 min 0,000 mm 0,0 UV-I 0 W/m² 8,5 °C 17,6 °C 14,5 km/h (3 Bft)
29.09.2019 22:38 17,6 °C 54 % 1005,9 hPa 0,0 mm 8,9 km/h (2 Bft) W 275 ° 0 min 0,000 mm 0,0 UV-I 0 W/m² 8,2 °C 17,6 °C 14,5 km/h (3 Bft)
29.09.2019 22:39 17,6 °C 55 % 1005,9 hPa 0,0 mm 10,6 km/h (2 Bft) NW 306 ° 0 min 0,000 mm 0,0 UV-I 0 W/m² 8,5 °C 17,6 °C 14,5 km/h (3 Bft)
29.09.2019 22:40 17,6 °C 56 % 1005,8 hPa 0,0 mm 8,4 km/h (2 Bft) W 277 ° 0 min 0,000 mm 0,0 UV-I 0 W/m² 8,7 °C 17,6 °C 17,7 km/h (3 Bft)
29.09.2019 22:41 17,5 °C 55 % 1005,8 hPa 0,0 mm 7,8 km/h (2 Bft) W 264 ° 0 min 0,000 mm 0,0 UV-I 0 W/m² 8,4 °C 17,5 °C 17,7 km/h (3 Bft)
29.09.2019 22:42 17,5 °C 55 % 1005,9 hPa 0,0 mm 10,2 km/h (2 Bft) W-NW 288 ° 0 min 0,000 mm 0,0 UV-I 0 W/m² 8,4 °C 17,5 °C 16,1 km/h (3 Bft)
29.09.2019 22:43 17,5 °C 54 % 1005,8 hPa 0,0 mm 10,3 km/h (2 Bft) W-NW 293 ° 0 min 0,000 mm 0,0 UV-I 0 W/m² 8,1 °C 17,5 °C 16,1 km/h (3 Bft)
29.09.2019 22:44 17,6 °C 54 % 1005,8 hPa 0,0 mm 12,8 km/h (3 Bft) W 259 ° 0 min 0,000 mm 0,0 UV-I 0 W/m² 8,2 °C 17,6 °C 19,3 km/h (3 Bft)
29.09.2019 22:45 17,6 °C 54 % 1005,8 hPa 0,0 mm 13,9 km/h (3 Bft) W 276 ° 0 min 0,000 mm 0,0 UV-I 0 W/m² 8,2 °C 17,6 °C 17,7 km/h (3 Bft)
29.09.2019 22:46 17,6 °C 54 % 1005,8 hPa 0,0 mm 15,9 km/h (3 Bft) W-NW 284 ° 0 min 0,000 mm 0,0 UV-I 0 W/m² 8,2 °C 17,6 °C 20,9 km/h (4 Bft)
29.09.2019 22:47 17,6 °C 55 % 1005,8 hPa 0,0 mm 9,8 km/h (2 Bft) SW 235 ° 0 min 0,000 mm 0,0 UV-I 0 W/m² 8,5 °C 17,6 °C 12,9 km/h (3 Bft)
29.09.2019 22:48 17,6 °C 54 % 1005,8 hPa 0,0 mm 12,1 km/h (2 Bft) W 259 ° 0 min 0,000 mm 0,0 UV-I 0 W/m² 8,2 °C 17,6 °C 19,3 km/h (3 Bft)
29.09.2019 22:49 17,6 °C 54 % 1005,8 hPa 0,0 mm 18,0 km/h (3 Bft) W 270 ° 0 min 0,000 mm 0,0 UV-I 0 W/m² 8,2 °C 17,6 °C 30,6 km/h (5 Bft)
29.09.2019 22:50 17,6 °C 54 % 1005,9 hPa 0,0 mm 8,5 km/h (2 Bft) W-SW 242 ° 0 min 0,000 mm 0,0 UV-I 0 W/m² 8,2 °C 17,6 °C 16,1 km/h (3 Bft)
29.09.2019 22:51 17,6 °C 55 % 1005,8 hPa 0,0 mm 10,9 km/h (2 Bft) W 261 ° 0 min 0,000 mm 0,0 UV-I 0 W/m² 8,5 °C 17,6 °C 16,1 km/h (3 Bft)
29.09.2019 22:52 17,6 °C 54 % 1005,9 hPa 0,0 mm 16,1 km/h (3 Bft) NW 306 ° 0 min 0,000 mm 0,0 UV-I 0 W/m² 8,2 °C 17,6 °C 25,7 km/h (4 Bft)
29.09.2019 22:53 17,6 °C 55 % 1006,0 hPa 0,0 mm 10,1 km/h (2 Bft) W-NW 303 ° 0 min 0,000 mm 0,0 UV-I 0 W/m² 8,5 °C 17,6 °C 14,5 km/h (3 Bft)
29.09.2019 22:54 17,6 °C 55 % 1006,0 hPa 0,0 mm 15,2 km/h (3 Bft) W-SW 246 ° 0 min 0,000 mm 0,0 UV-I 0 W/m² 8,5 °C 17,6 °C 20,9 km/h (4 Bft)
29.09.2019 22:55 17,6 °C 54 % 1006,0 hPa 0,0 mm 13,2 km/h (3 Bft) W 278 ° 0 min 0,000 mm 0,0 UV-I 0 W/m² 8,2 °C 17,6 °C 19,3 km/h (3 Bft)
29.09.2019 22:56 17,6 °C 54 % 1006,0 hPa 0,0 mm 12,6 km/h (3 Bft) W 281 ° 0 min 0,000 mm 0,0 UV-I 0 W/m² 8,2 °C 17,6 °C 16,1 km/h (3 Bft)
29.09.2019 22:57 17,6 °C 55 % 1006,0 hPa 0,0 mm 11,8 km/h (2 Bft) W 269 ° 0 min 0,000 mm 0,0 UV-I 0 W/m² 8,5 °C 17,6 °C 16,1 km/h (3 Bft)
29.09.2019 22:58 17,6 °C 55 % 1006,0 hPa 0,0 mm 8,0 km/h (2 Bft) W 274 ° 0 min 0,000 mm 0,0 UV-I 0 W/m² 8,5 °C 17,6 °C 12,9 km/h (3 Bft)
29.09.2019 22:59 17,6 °C 55 % 1006,0 hPa 0,0 mm 9,0 km/h (2 Bft) W 263 ° 0 min 0,000 mm 0,0 UV-I 0 W/m² 8,5 °C 17,6 °C 12,9 km/h (3 Bft)
29.09.2019 23:00 17,6 °C 55 % 1006,0 hPa 0,0 mm 11,2 km/h (2 Bft) W-SW 258 ° 0 min 0,000 mm 0,0 UV-I 0 W/m² 8,5 °C 17,6 °C 20,9 km/h (4 Bft)
29.09.2019 23:01 17,6 °C 54 % 1005,9 hPa 0,0 mm 12,5 km/h (3 Bft) W-NW 294 ° 0 min 0,076 mm 0,0 UV-I 0 W/m² 8,2 °C 17,6 °C 22,5 km/h (4 Bft)
29.09.2019 23:02 17,6 °C 54 % 1005,9 hPa 0,0 mm 7,8 km/h (2 Bft) W-NW 298 ° 0 min 0,000 mm 0,0 UV-I 0 W/m² 8,2 °C 17,6 °C 12,9 km/h (3 Bft)
29.09.2019 23:03 17,6 °C 54 % 1005,9 hPa 0,0 mm 10,4 km/h (2 Bft) W-NW 297 ° 0 min 0,000 mm 0,0 UV-I 0 W/m² 8,2 °C 17,6 °C 17,7 km/h (3 Bft)
29.09.2019 23:04 17,6 °C 55 % 1005,9 hPa 0,0 mm 12,7 km/h (3 Bft) W-SW 257 ° 0 min 0,000 mm 0,0 UV-I 0 W/m² 8,5 °C 17,6 °C 22,5 km/h (4 Bft)
29.09.2019 23:05 17,6 °C 55 % 1005,8 hPa 0,0 mm 14,7 km/h (3 Bft) NW 313 ° 0 min 0,000 mm 0,0 UV-I 0 W/m² 8,5 °C 17,6 °C 22,5 km/h (4 Bft)
29.09.2019 23:06 17,6 °C 55 % 1005,8 hPa 0,0 mm 11,8 km/h (2 Bft) W-SW 254 ° 0 min 0,000 mm 0,0 UV-I 0 W/m² 8,5 °C 17,6 °C 17,7 km/h (3 Bft)
29.09.2019 23:07 17,6 °C 56 % 1006,0 hPa 0,0 mm 10,3 km/h (2 Bft) NW 306 ° 0 min 0,000 mm 0,0 UV-I 0 W/m² 8,7 °C 17,6 °C 20,9 km/h (4 Bft)
29.09.2019 23:08 17,6 °C 55 % 1005,9 hPa 0,0 mm 11,9 km/h (2 Bft) W 279 ° 0 min 0,000 mm 0,0 UV-I 0 W/m² 8,5 °C 17,6 °C 19,3 km/h (3 Bft)
29.09.2019 23:09 17,6 °C 55 % 1006,0 hPa 0,0 mm 10,9 km/h (2 Bft) W-NW 303 ° 0 min 0,000 mm 0,0 UV-I 0 W/m² 8,5 °C 17,6 °C 12,9 km/h (3 Bft)
29.09.2019 23:10 17,5 °C 56 % 1005,9 hPa 0,0 mm 11,1 km/h (2 Bft) W 268 ° 0 min 0,000 mm 0,0 UV-I 0 W/m² 8,6 °C 17,5 °C 20,9 km/h (4 Bft)
29.09.2019 23:11 17,4 °C 56 % 1006,0 hPa 0,0 mm 10,5 km/h (2 Bft) W 259 ° 0 min 0,000 mm 0,0 UV-I 0 W/m² 8,5 °C 17,4 °C 12,9 km/h (3 Bft)
29.09.2019 23:12 17,4 °C 57 % 1006,0 hPa 0,0 mm 13,6 km/h (3 Bft) SW 226 ° 0 min 0,000 mm 0,0 UV-I 0 W/m² 8,8 °C 17,4 °C 25,7 km/h (4 Bft)
29.09.2019 23:13 17,4 °C 57 % 1006,0 hPa 0,0 mm 14,0 km/h (3 Bft) W 260 ° 0 min 0,000 mm 0,0 UV-I 0 W/m² 8,8 °C 17,4 °C 22,5 km/h (4 Bft)
29.09.2019 23:14 17,3 °C 56 % 1005,9 hPa 0,0 mm 11,6 km/h (2 Bft) S-SW 206 ° 0 min 0,000 mm 0,0 UV-I 0 W/m² 8,4 °C 17,3 °C 19,3 km/h (3 Bft)
29.09.2019 23:15 17,4 °C 56 % 1006,0 hPa 0,0 mm 5,2 km/h (1 Bft) W 264 ° 0 min 0,000 mm 0,0 UV-I 0 W/m² 8,5 °C 17,4 °C 9,7 km/h (2 Bft)
29.09.2019 23:16 17,3 °C 57 % 1006,0 hPa 0,0 mm 7,1 km/h (2 Bft) W 263 ° 0 min 0,000 mm 0,0 UV-I 0 W/m² 8,7 °C 17,3 °C 12,9 km/h (3 Bft)
29.09.2019 23:17 17,4 °C 56 % 1005,9 hPa 0,0 mm 4,3 km/h (1 Bft) W-SW 251 ° 0 min 0,000 mm 0,0 UV-I 0 W/m² 8,5 °C 17,4 °C 9,7 km/h (2 Bft)
29.09.2019 23:18 17,3 °C 56 % 1005,8 hPa 0,0 mm 12,3 km/h (3 Bft) W-SW 240 ° 0 min 0,000 mm 0,0 UV-I 0 W/m² 8,4 °C 17,3 °C 20,9 km/h (4 Bft)
29.09.2019 23:19 17,3 °C 57 % 1005,8 hPa 0,0 mm 7,2 km/h (2 Bft) S-SW 207 ° 0 min 0,000 mm 0,0 UV-I 0 W/m² 8,7 °C 17,3 °C 11,3 km/h (2 Bft)
29.09.2019 23:20 17,3 °C 57 % 1005,8 hPa 0,0 mm 5,4 km/h (1 Bft) W 272 ° 0 min 0,000 mm 0,0 UV-I 0 W/m² 8,7 °C 17,3 °C 9,7 km/h (2 Bft)
29.09.2019 23:21 17,3 °C 57 % 1005,8 hPa 0,0 mm 6,2 km/h (2 Bft) W 269 ° 0 min 0,000 mm 0,0 UV-I 0 W/m² 8,7 °C 17,3 °C 9,7 km/h (2 Bft)
29.09.2019 23:22 17,3 °C 58 % 1005,9 hPa 0,2 mm 7,1 km/h (2 Bft) W 280 ° 0 min 0,000 mm 0,0 UV-I 0 W/m² 9,0 °C 17,3 °C 12,9 km/h (3 Bft)
29.09.2019 23:23 17,2 °C 58 % 1005,9 hPa 0,0 mm 8,2 km/h (2 Bft) W 275 ° 0 min 0,000 mm 0,0 UV-I 0 W/m² 8,9 °C 17,2 °C 14,5 km/h (3 Bft)
29.09.2019 23:24 17,2 °C 58 % 1005,9 hPa 0,0 mm 8,2 km/h (2 Bft) W 267 ° 0 min 0,000 mm 0,0 UV-I 0 W/m² 8,9 °C 17,2 °C 12,9 km/h (3 Bft)
29.09.2019 23:25 17,2 °C 58 % 1005,8 hPa 0,0 mm 6,8 km/h (2 Bft) W 264 ° 0 min 0,000 mm 0,0 UV-I 0 W/m² 8,9 °C 17,2 °C 11,3 km/h (2 Bft)
29.09.2019 23:26 17,1 °C 58 % 1005,8 hPa 0,0 mm 5,6 km/h (1 Bft) W 271 ° 0 min 0,000 mm 0,0 UV-I 0 W/m² 8,8 °C 17,1 °C 11,3 km/h (2 Bft)
29.09.2019 23:27 17,1 °C 59 % 1005,7 hPa 0,0 mm 3,8 km/h (1 Bft) W-SW 243 ° 0 min 0,000 mm 0,0 UV-I 0 W/m² 9,0 °C 17,1 °C 4,8 km/h (1 Bft)
29.09.2019 23:28 17,0 °C 59 % 1005,6 hPa 0,0 mm 6,0 km/h (2 Bft) W 277 ° 0 min 0,000 mm 0,0 UV-I 0 W/m² 8,9 °C 17,0 °C 14,5 km/h (3 Bft)
29.09.2019 23:29 16,9 °C 58 % 1005,6 hPa 0,0 mm 4,8 km/h (1 Bft) W 269 ° 0 min 0,000 mm 0,0 UV-I 0 W/m² 8,6 °C 16,9 °C 6,4 km/h (2 Bft)
29.09.2019 23:30 16,9 °C 59 % 1005,6 hPa 0,0 mm 4,4 km/h (1 Bft) N-NW 335 ° 0 min 0,000 mm 0,0 UV-I 0 W/m² 8,8 °C 16,9 °C 6,4 km/h (2 Bft)
29.09.2019 23:31 16,8 °C 59 % 1005,5 hPa 0,0 mm 5,2 km/h (1 Bft) W 266 ° 0 min 0,000 mm 0,0 UV-I 0 W/m² 8,7 °C 16,8 °C 8,0 km/h (2 Bft)
29.09.2019 23:32 16,8 °C 60 % 1005,5 hPa 0,0 mm 3,3 km/h (1 Bft) W 267 ° 0 min 0,000 mm 0,0 UV-I 0 W/m² 9,0 °C 16,8 °C 4,8 km/h (1 Bft)
29.09.2019 23:33 16,8 °C 59 % 1005,5 hPa 0,0 mm 2,6 km/h (1 Bft) W 267 ° 0 min 0,000 mm 0,0 UV-I 0 W/m² 8,7 °C 16,8 °C 4,8 km/h (1 Bft)
29.09.2019 23:34 16,7 °C 60 % 1005,6 hPa 0,0 mm 1,6 km/h (1 Bft) W 267 ° 0 min 0,000 mm 0,0 UV-I 0 W/m² 8,9 °C 16,7 °C 3,2 km/h (1 Bft)
29.09.2019 23:35 16,7 °C 59 % 1005,5 hPa 0,0 mm 2,3 km/h (1 Bft) S-SW 200 ° 0 min 0,000 mm 0,0 UV-I 0 W/m² 8,6 °C 16,7 °C 4,8 km/h (1 Bft)
29.09.2019 23:36 16,8 °C 58 % 1005,4 hPa 0,0 mm 2,9 km/h (1 Bft) S-SW 203 ° 0 min 0,000 mm 0,0 UV-I 0 W/m² 8,5 °C 16,8 °C 4,8 km/h (1 Bft)
29.09.2019 23:37 16,8 °C 58 % 1005,3 hPa 0,0 mm 1,8 km/h (1 Bft) S-SW 205 ° 0 min 0,000 mm 0,0 UV-I 0 W/m² 8,5 °C 16,8 °C 3,2 km/h (1 Bft)
29.09.2019 23:38 16,8 °C 59 % 1005,2 hPa 0,0 mm 4,6 km/h (1 Bft) S-SW 197 ° 0 min 0,000 mm 0,0 UV-I 0 W/m² 8,7 °C 16,8 °C 8,0 km/h (2 Bft)
29.09.2019 23:39 16,8 °C 60 % 1005,2 hPa 0,0 mm 3,1 km/h (1 Bft) S 182 ° 0 min 0,000 mm 0,0 UV-I 0 W/m² 9,0 °C 16,8 °C 6,4 km/h (2 Bft)
29.09.2019 23:40 16,8 °C 59 % 1005,2 hPa 0,0 mm 2,9 km/h (1 Bft) S 190 ° 0 min 0,000 mm 0,0 UV-I 0 W/m² 8,7 °C 16,8 °C 4,8 km/h (1 Bft)
29.09.2019 23:41 16,7 °C 59 % 1005,2 hPa 0,0 mm 4,3 km/h (1 Bft) SW 227 ° 0 min 0,000 mm 0,0 UV-I 0 W/m² 8,6 °C 16,7 °C 6,4 km/h (2 Bft)
29.09.2019 23:42 16,7 °C 60 % 1005,2 hPa 0,0 mm 0,9 km/h (0 Bft) SW 222 ° 0 min 0,000 mm 0,0 UV-I 0 W/m² 8,9 °C 16,7 °C 4,8 km/h (1 Bft)
29.09.2019 23:43 16,7 °C 61 % 1005,1 hPa 0,0 mm 3,0 km/h (1 Bft) S 180 ° 0 min 0,000 mm 0,0 UV-I 0 W/m² 9,1 °C 16,7 °C 9,7 km/h (2 Bft)
29.09.2019 23:44 16,6 °C 59 % 1005,1 hPa 0,0 mm 4,6 km/h (1 Bft) S-SW 197 ° 0 min 0,000 mm 0,0 UV-I 0 W/m² 8,6 °C 16,6 °C 6,4 km/h (2 Bft)
29.09.2019 23:45 16,5 °C 63 % 1005,1 hPa 0,0 mm 2,2 km/h (1 Bft) S-SW 192 ° 0 min 0,000 mm 0,0 UV-I 0 W/m² 9,4 °C 16,5 °C 4,8 km/h (1 Bft)
29.09.2019 23:46 16,4 °C 62 % 1005,1 hPa 0,0 mm 0,0 km/h (0 Bft) S-SW 192 ° 0 min 0,000 mm 0,0 UV-I 0 W/m² 9,1 °C 16,4 °C 0,0 km/h (0 Bft)
29.09.2019 23:47 16,2 °C 63 % 1005,1 hPa 0,0 mm 0,0 km/h (0 Bft) S-SW 192 ° 0 min 0,000 mm 0,0 UV-I 0 W/m² 9,1 °C 16,2 °C 0,0 km/h (0 Bft)
29.09.2019 23:48 16,1 °C 63 % 1005,1 hPa 0,0 mm 0,0 km/h (0 Bft) S-SW 192 ° 0 min 0,000 mm 0,0 UV-I 0 W/m² 9,1 °C 16,1 °C 0,0 km/h (0 Bft)
29.09.2019 23:49 16,0 °C 64 % 1005,0 hPa 0,0 mm 0,0 km/h (0 Bft) S-SW 192 ° 0 min 0,000 mm 0,0 UV-I 0 W/m² 9,2 °C 16,0 °C 0,0 km/h (0 Bft)
29.09.2019 23:50 15,9 °C 64 % 1005,0 hPa 0,0 mm 1,6 km/h (1 Bft) S-SW 192 ° 0 min 0,000 mm 0,0 UV-I 0 W/m² 9,1 °C 15,9 °C 3,2 km/h (1 Bft)
29.09.2019 23:51 15,8 °C 65 % 1005,0 hPa 0,0 mm 0,0 km/h (0 Bft) S-SW 192 ° 0 min 0,000 mm 0,0 UV-I 0 W/m² 9,2 °C 15,8 °C 0,0 km/h (0 Bft)
29.09.2019 23:52 15,7 °C 65 % 1004,9 hPa 0,0 mm 0,0 km/h (0 Bft) S-SW 192 ° 0 min 0,000 mm 0,0 UV-I 0 W/m² 9,1 °C 15,7 °C 0,0 km/h (0 Bft)
29.09.2019 23:53 15,7 °C 65 % 1004,9 hPa 0,0 mm 0,0 km/h (0 Bft) S-SW 192 ° 0 min 0,000 mm 0,0 UV-I 0 W/m² 9,1 °C 15,7 °C 0,0 km/h (0 Bft)
29.09.2019 23:54 15,6 °C 67 % 1004,9 hPa 0,0 mm 0,0 km/h (0 Bft) S-SW 192 ° 0 min 0,000 mm 0,0 UV-I 0 W/m² 9,5 °C 15,6 °C 0,0 km/h (0 Bft)
29.09.2019 23:55 15,4 °C 68 % 1004,7 hPa 0,0 mm 1,3 km/h (1 Bft) S-SW 192 ° 0 min 0,000 mm 0,0 UV-I 0 W/m² 9,5 °C 15,4 °C 3,2 km/h (1 Bft)
29.09.2019 23:56 15,3 °C 68 % 1004,9 hPa 0,0 mm 0,3 km/h (0 Bft) S-SW 192 ° 0 min 0,000 mm 0,0 UV-I 0 W/m² 9,4 °C 15,3 °C 1,6 km/h (1 Bft)
29.09.2019 23:57 15,2 °C 68 % 1004,9 hPa 0,0 mm 0,0 km/h (0 Bft) S-SW 192 ° 0 min 0,000 mm 0,0 UV-I 0 W/m² 9,3 °C 15,2 °C 0,0 km/h (0 Bft)
29.09.2019 23:58 15,1 °C 68 % 1004,9 hPa 0,0 mm 2,0 km/h (1 Bft) W-NW 286 ° 0 min 0,000 mm 0,0 UV-I 0 W/m² 9,2 °C 15,1 °C 6,4 km/h (2 Bft)
29.09.2019 23:59 15,2 °C 65 % 1004,9 hPa 0,0 mm 4,5 km/h (1 Bft) S-SW 198 ° 0 min 0,000 mm 0,0 UV-I 0 W/m² 8,7 °C 15,2 °C 6,4 km/h (2 Bft)
_ Min-Zeit 06:23 21:51 23:55 - 23:57 - - - - - - 06:10 06:23 23:57
Minimum _ 6,3 °C 52 % 1004,7 hPa - 0,0 km/h (0 Bft) - - - - - - 5,5 °C 6,3 °C 0,0 km/h (0 Bft)
_ Max-Zeit 15:10 08:36 00:03 23:22 22:49 - - 14:41 14:01 13:18 13:34 16:15 15:10 22:49
Maximum _ 20,7 °C 95 % 1017,1 hPa 0,2 mm 18,0 km/h
W (3 Bft)
- - 1 min 0,381 mm 4,5 UV-I 654 W/m² 14,9 °C 20,7 °C 30,6 km/h
W-NW (5 Bft)
Durchschnitt _ 13,8 °C 78 % 1010,7 hPa #4,2 mm 1,6 km/h (1 Bft) W - #2:56 h #2,108 mm 3,1 UV-I 144 W/m² 9,8 °C 13,8 °C 2,9 km/h (1 Bft)